Date StartTime U_cm/s V_cm/s W_cm/s Ustd_cm/s Vstd_cm/s Wstd_cm/s Uvar_(cm/s)^2 Vvar_(cm/s)^2 Wvar_(cm/s)^2 KE_(m/s)^2 TurbulentKE_(m/s)^2 HorizWindSpeed_cm/s FrictionSpeec_cm/s DragCoef SpeedOfSound_m/s SonicTemperature_C Pressure_mb 
03/11/2014  00:00:00      -70.160       42.090       -9.912       25.695       27.403       18.616      660.219      750.909      346.545        0.427        0.088       81.817        9.187        0.013      334.424        4.388      868.084
03/11/2014  00:01:00      -80.901       69.867      -26.076       28.785       24.650       16.794      828.591      607.632      282.028        0.691        0.086      106.894       15.540        0.021      334.362        4.286      868.083
03/11/2014  00:02:00      -74.856       75.985      -19.805       43.986       39.212       23.326     1934.751     1537.589      544.102        0.789        0.201      106.664       18.580        0.030      334.387        4.325      868.075
03/11/2014  00:03:00      -45.694       31.178       -5.886       43.842       35.722       18.208     1922.087     1276.047      331.541        0.331        0.176       55.317       23.137        0.175      334.407        4.360      868.077
03/11/2014  00:04:00      -55.354       40.395       -2.969       41.460       23.850       21.774     1718.914      568.836      474.124        0.373        0.138       68.526       20.449        0.089      334.372        4.300      868.106
03/11/2014  00:05:00        4.418       72.497       -7.197       26.230       21.027       16.212      688.010      442.142      262.845        0.336        0.070       72.631       13.289        0.033      334.424        4.388      868.130
03/11/2014  00:06:00       -3.353      117.269       -7.616       41.153       62.139       22.272     1693.543     3861.298      496.062        0.993        0.303      117.317       27.860        0.056      334.325        4.222      868.147
03/11/2014  00:07:00       12.618      122.714      -15.140       20.450       30.538       17.969      418.208      932.562      322.881        0.856        0.084      123.361       11.611        0.009      334.331        4.233      868.178
03/11/2014  00:08:00       24.123       84.209       -0.872       32.040       41.129       22.480     1026.589     1691.610      505.355        0.545        0.161       87.596       19.629        0.050      334.230        4.066      868.184
03/11/2014  00:09:00       -2.273      129.908      -11.409       40.422       31.132       27.865     1633.948      969.217      776.443        1.019        0.169      129.928       18.133        0.019      334.223        4.054      868.182
03/11/2014  00:10:00      -15.987      157.281      -20.069       47.597       51.307       29.242     2265.473     2632.394      855.105        1.557        0.288      158.092       31.346        0.039      334.294        4.170      868.165
03/11/2014  00:11:00      -43.967      134.996      -20.967       31.516       39.648       19.135      993.278     1571.969      366.154        1.176        0.147      141.976       15.569        0.012      334.362        4.285      868.159
03/11/2014  00:12:00      -24.072      146.875      -21.194       17.734       22.210       13.347      314.506      493.306      178.152        1.179        0.049      148.834        8.691        0.003      334.260        4.117      868.141
03/11/2014  00:13:00        0.051      152.044      -22.226       24.922       37.621       18.049      621.111     1415.324      325.766        1.299        0.118      152.044       17.458        0.013      334.205        4.025      868.112
03/11/2014  00:14:00       16.969       89.950      -20.957       23.181       56.136       13.582      537.375     3151.218      184.465        0.634        0.194       91.536       15.854        0.030      334.161        3.951      868.068
03/11/2014  00:15:00       14.311       95.629      -23.137       27.641       31.831       17.381      764.024     1013.185      302.083        0.598        0.104       96.694       15.607        0.026      334.179        3.980      868.047
03/11/2014  00:16:00       15.141       51.122       -1.006       40.952       26.004       17.576     1677.054      676.212      308.916        0.275        0.133       53.317       23.354        0.192      334.147        3.929      868.032
03/11/2014  00:17:00      -10.281       31.803        3.846       15.374       39.941       16.916      236.355     1595.315      286.159        0.162        0.106       33.423       22.261        0.444      334.219        4.048      868.025
03/11/2014  00:18:00       28.953       44.109        2.199       28.646       34.565       21.592      820.598     1194.720      466.206        0.263        0.124       52.763       21.303        0.163      334.161        3.952      868.032
03/11/2014  00:19:00       43.559       39.283        5.660       16.768       22.285       16.117      281.159      496.605      259.747        0.225        0.052       58.656       12.705        0.047      334.056        3.779      868.041
03/11/2014  00:20:00       23.606       13.632       -2.476       34.215       18.993       20.141     1170.638      360.751      405.677        0.134        0.097       27.259       22.563        0.685      334.059        3.782      868.049
03/11/2014  00:21:00       16.489       20.905        8.373       12.706       16.671       14.626      161.454      277.915      213.910        0.072        0.033       26.625        9.814        0.136      334.099        3.847      868.053
03/11/2014  00:22:00       19.169        0.251        7.333       26.300       19.040       16.645      691.664      362.534      277.053        0.088        0.067       19.170       13.247        0.478      334.081        3.819      868.045
03/11/2014  00:23:00       23.796       15.366       26.580       23.167       24.794       19.016      536.688      614.745      361.597        0.151        0.076       28.326        9.815        0.120      334.053        3.773      868.015
03/11/2014  00:24:00       54.207       36.015        4.027       17.367       11.860       14.174      301.596      140.669      200.899        0.245        0.032       65.080        9.986        0.024      334.072        3.804      867.985
03/11/2014  00:25:00       31.478       17.342       -6.062       34.184       19.135        8.543     1168.560      366.148       72.989        0.147        0.080       35.939        7.491        0.043      333.980        3.651      867.956
03/11/2014  00:26:00      -17.140       17.000      -16.219       25.655       26.846       16.107      658.161      720.712      259.420        0.124        0.082       24.141        7.111        0.087      334.109        3.865      867.930
03/11/2014  00:27:00        8.509       27.159       -4.285       23.458       12.602       14.616      550.294      158.819      213.627        0.088        0.046       28.460        7.911        0.077      334.077        3.812      867.935
03/11/2014  00:28:00       24.498       25.485        1.719       15.431       13.920       13.962      238.131      193.771      194.940        0.094        0.031       35.350        7.935        0.050      334.052        3.770      867.968
03/11/2014  00:29:00        4.629        4.029        3.147       30.589       15.954       15.782      935.697      254.530      249.087        0.074        0.072        6.137        9.906        2.605      334.006        3.693      868.000
03/11/2014  00:30:00      -64.220       -8.397       -3.749       41.393       41.232       16.438     1713.394     1700.042      270.207        0.395        0.184       64.767       10.845        0.028      334.139        3.915      868.007
03/11/2014  00:31:00      -84.387       13.980       -8.555       49.110       31.944       18.954     2411.774     1020.435      359.258        0.559        0.190       85.537       13.586        0.025      334.032        3.738      868.001
03/11/2014  00:32:00      -35.131      101.955      -16.289       29.008       60.118       17.218      841.476     3614.221      296.468        0.832        0.238      107.837       10.553        0.010      334.077        3.812      867.998
03/11/2014  00:33:00      -47.725       34.413        6.022       36.960       46.131       16.948     1366.006     2128.024      287.231        0.364        0.189       58.838       13.766        0.055      334.134        3.907      867.982
03/11/2014  00:34:00     -110.062      117.657      -29.853       40.059       54.215       29.797     1604.739     2939.239      887.863        1.614        0.272      161.111       28.784        0.032      333.957        3.613      867.972
03/11/2014  00:35:00      -93.941       92.689      -23.134       31.683       37.965       23.256     1003.793     1441.312      540.835        1.047        0.149      131.970       18.862        0.020      333.999        3.681      867.954
03/11/2014  00:36:00      -77.273       86.782      -16.216       34.235       64.971       25.864     1172.065     4221.292      668.967        0.991        0.303      116.199       21.689        0.035      334.023        3.721      867.935
03/11/2014  00:37:00     -129.142       64.753      -26.340       35.388       42.145       21.878     1252.282     1776.172      478.659        1.254        0.175      144.467       20.707        0.021      334.004        3.691      867.929
03/11/2014  00:38:00     -128.888       32.432      -16.941       39.541       38.471       27.111     1563.456     1479.998      735.012        1.086        0.189      132.906       20.099        0.023      334.043        3.754      867.936
03/11/2014  00:39:00      -64.215      -23.189       -4.365       33.510       38.548       17.918     1122.894     1485.948      321.037        0.380        0.146       68.274       18.415        0.073      333.985        3.660      867.951
03/11/2014  00:40:00      -36.876      -11.328        2.200       15.537       36.004       10.147      241.407     1296.264      102.963        0.157        0.082       38.577        6.527        0.029      334.036        3.743      867.968
03/11/2014  00:41:00      -14.102        4.104       -4.131       17.542       27.944       14.086      307.713      780.841      198.418        0.076        0.064       14.687       12.805        0.760      333.994        3.673      867.992
03/11/2014  00:42:00      -81.360       42.951      -11.830       60.532       58.556       27.135     3664.130     3428.800      736.335        0.822        0.391       92.001       32.831        0.127      333.998        3.681      868.005
03/11/2014  00:43:00      -57.272       82.373      -12.751       40.671       32.146       25.056     1654.091     1033.342      627.824        0.677        0.166      100.327       19.899        0.039      334.078        3.813      868.014
03/11/2014  00:44:00      -65.867       46.767      -10.190       27.585       23.110       16.669      760.906      534.064      277.863        0.410        0.079       80.781       10.683        0.017      334.020        3.717      868.018
03/11/2014  00:45:00      -70.831       46.395      -17.360       18.367       24.605       16.123      337.348      605.387      259.945        0.434        0.060       84.673       13.039        0.024      333.986        3.662      868.029
03/11/2014  00:46:00      -68.676       56.778      -11.776       30.714       27.373       18.229      943.338      749.280      332.280        0.505        0.101       89.107       17.689        0.039      334.010        3.700      868.023
03/11/2014  00:47:00      -21.717       95.473      -14.221       36.025       40.597       22.018     1297.787     1648.125      484.812        0.661        0.172       97.911       11.333        0.013      333.990        3.667      868.015
03/11/2014  00:48:00      -15.896       98.165       -4.238       29.611       36.218       23.231      876.786     1311.756      539.676        0.632        0.136       99.443       21.263        0.046      334.001        3.686      868.007
03/11/2014  00:49:00      -45.601       19.113       -4.798       23.537       28.908       17.550      554.009      835.691      308.015        0.208        0.085       49.444       15.218        0.095      334.042        3.753      868.015
03/11/2014  00:50:00      -44.151        2.100      -10.353       17.130       25.440       11.494      293.449      647.198      132.119        0.157        0.054       44.201       10.044        0.052      334.059        3.781      868.013
03/11/2014  00:51:00      -60.053      -29.013       -4.008       26.830       44.286       18.325      719.850     1961.266      335.805        0.374        0.151       66.694       11.182        0.028      334.044        3.758      868.005
03/11/2014  00:52:00      -82.919       -1.070      -11.118       47.717       42.533       24.441     2276.943     1809.066      597.362        0.584        0.234       82.926       18.102        0.048      334.021        3.718      868.003
03/11/2014  00:53:00      -58.240       82.753      -12.642       56.221       77.229       35.311     3160.766     5964.384     1246.851        1.038        0.519      101.193       43.016        0.181      333.996        3.676      868.020
03/11/2014  00:54:00     -121.591      146.319      -41.689       50.062       52.234       29.632     2506.231     2728.420      878.073        2.202        0.306      190.246       26.256        0.019      334.009        3.697      868.029
03/11/2014  00:55:00      -96.920      137.216      -16.755       35.640       70.401       35.782     1270.177     4956.258     1280.365        1.800        0.375      167.994       35.899        0.046      333.956        3.611      868.057
03/11/2014  00:56:00     -140.595      100.449      -33.059       29.667       65.632       28.472      880.116     4307.625      810.672        1.847        0.300      172.792       32.976        0.036      334.021        3.718      868.064
03/11/2014  00:57:00      -75.278      126.250      -21.431       32.840       78.734       35.313     1078.456     6198.977     1247.002        1.529        0.426      146.989       31.942        0.047      333.964        3.623      868.088
03/11/2014  00:58:00     -104.858       69.469      -25.650       34.695       36.971       20.934     1203.722     1366.820      438.232        0.974        0.150      125.782       19.953        0.025      333.983        3.658      868.108
03/11/2014  00:59:00      -89.139       46.551      -18.594       37.284       36.415       22.128     1390.106     1326.065      489.631        0.683        0.160      100.563       19.652        0.038      334.000        3.685      868.135
03/11/2014  01:00:00      -86.289       87.134      -20.442       38.562       47.417       25.117     1487.049     2248.337      630.879        0.991        0.218      122.630       26.867        0.048      333.921        3.554      868.156
03/11/2014  01:01:00      -75.780       66.151      -11.829       53.020       54.888       22.963     2811.159     3012.644      527.303        0.830        0.318      100.591       19.687        0.038      333.917        3.546      868.170
03/11/2014  01:02:00      -95.431       83.145      -21.185       50.739       61.311       37.836     2574.423     3759.007     1431.533        1.212        0.388      126.571       38.827        0.094      333.885        3.493      868.174
03/11/2014  01:03:00      -97.200       16.700      -10.119       41.013       73.464       23.500     1682.066     5396.918      552.264        0.873        0.382       98.624       21.020        0.045      333.795        3.343      868.148
03/11/2014  01:04:00     -136.586      -52.288       -9.575       27.958       24.284       16.056      781.658      589.701      257.797        1.156        0.081      146.253        8.589        0.003      333.613        3.041      868.116
03/11/2014  01:05:00      -93.420      -18.084       -7.546       40.356       18.295       15.247     1628.593      334.694      232.465        0.565        0.110       95.154       17.493        0.034      333.558        2.952      868.084
03/11/2014  01:06:00      -37.120       -7.103       -6.492       13.625       14.361        9.223      185.629      206.233       85.064        0.097        0.024       37.793        8.732        0.053      333.625        3.062      868.061
03/11/2014  01:07:00      -85.638        1.106      -14.178       32.307       34.624       17.779     1043.726     1198.805      316.097        0.505        0.128       85.645       16.323        0.036      333.713        3.209      868.061
03/11/2014  01:08:00      -66.197       -9.971        0.844       38.818       28.434       22.082     1506.800      808.505      487.600        0.364        0.140       66.943       20.678        0.095      333.601        3.022      868.068
03/11/2014  01:09:00      -82.013       23.237      -13.027       46.067       30.470       21.870     2122.182      928.447      478.316        0.548        0.176       85.241       21.507        0.064      333.657        3.115      868.079
03/11/2014  01:10:00     -107.192       74.632      -27.335       37.267       36.636       25.514     1388.792     1342.211      650.986        1.059        0.169      130.614       13.186        0.010      333.711        3.204      868.084
03/11/2014  01:11:00      -41.777       40.362       -2.859       28.530       37.543       23.336      813.979     1409.508      544.582        0.307        0.138       58.090       16.995        0.086      333.700        3.187      868.095
03/11/2014  01:12:00      -52.503        1.498       -6.792       25.917       30.257       23.999      671.709      915.481      575.967        0.248        0.108       52.524       23.134        0.194      333.787        3.331      868.098
03/11/2014  01:13:00     -104.904       65.375      -21.608       41.215       27.110       22.140     1698.638      734.969      490.185        0.933        0.146      123.607       18.353        0.022      333.731        3.238      868.107
03/11/2014  01:14:00      -91.421       27.532      -14.781       37.033       55.141       27.435     1371.472     3040.505      752.681        0.725        0.258       95.476       23.073        0.058      333.777        3.314      868.094
03/11/2014  01:15:00      -35.042       -1.965       -6.280       30.541       26.237       15.611      932.736      688.394      243.712        0.157        0.093       35.097       14.550        0.172      333.776        3.312      868.077
03/11/2014  01:16:00     -111.598       23.992      -16.310       48.361       61.003       33.158     2338.809     3721.310     1099.479        1.023        0.358      114.147       28.860        0.064      333.752        3.270      868.050
03/11/2014  01:17:00     -132.603       83.062      -34.970       58.027       53.885       31.374     3367.160     2903.559      984.320        1.648        0.363      156.470       29.524        0.036      333.722        3.223      868.036
03/11/2014  01:18:00      -76.442       92.632       -8.745       47.938       79.341       35.598     2298.058     6295.041     1267.202        1.218        0.493      120.100       35.829        0.089      333.743        3.257      868.026
03/11/2014  01:19:00     -118.188      157.619      -29.295       58.899       65.030       46.685     3469.151     4228.877     2179.453        2.477        0.494      197.008       38.865        0.039      333.711        3.202      868.032
03/11/2014  01:20:00     -105.543      102.606      -18.185       70.298       76.020       35.011     4941.862     5779.074     1225.796        1.697        0.597      147.199       31.656        0.046      333.702        3.188      868.037
03/11/2014  01:21:00      -93.391       78.597      -11.883       49.957       75.254       35.153     2495.707     5663.188     1235.745        1.222        0.470      122.063       35.567        0.085      333.752        3.272      868.055
03/11/2014  01:22:00      -68.016       78.588       -8.775       44.172       38.654       35.274     1951.129     1494.160     1244.234        0.778        0.234      103.934       24.123        0.054      333.739        3.251      868.066
03/11/2014  01:23:00      -71.892       71.148       -8.943       58.130       54.565       28.493     3379.062     2977.322      811.823        0.874        0.358      101.145       29.886        0.087      333.717        3.214      868.088
03/11/2014  01:24:00      -53.246       76.518      -14.567       52.719       50.478       25.697     2779.243     2547.992      660.343        0.744        0.299       93.221       24.831        0.071      333.675        3.145      868.118
03/11/2014  01:25:00     -105.669       82.522      -17.236       50.790       58.722       33.336     2579.597     3448.316     1111.259        1.270        0.357      134.074       35.117        0.069      333.683        3.158      868.137
03/11/2014  01:26:00      -85.712      157.624      -20.627       48.689       77.083       32.394     2370.664     5941.842     1049.372        2.099        0.468      179.421       33.785        0.035      333.710        3.201      868.151
03/11/2014  01:27:00      -90.495      164.333      -17.030       59.212       87.994       47.665     3506.103     7742.898     2271.983        2.450        0.676      187.603       50.626        0.073      333.702        3.187      868.167
03/11/2014  01:28:00     -125.253      145.399      -25.151       61.184       85.414       42.263     3743.467     7295.598     1786.190        2.514        0.641      191.909       40.383        0.044      333.750        3.266      868.199
03/11/2014  01:29:00     -125.568      109.337      -17.081       76.977       79.968       41.762     5925.489     6394.936     1744.106        2.104        0.703      166.499       52.198        0.098      333.687        3.163      868.216
03/11/2014  01:30:00     -105.621      224.131      -29.326       53.402       98.824       47.471     2851.791     9766.197     2253.465        3.856        0.744      247.771       41.200        0.028      333.688        3.163      868.221
03/11/2014  01:31:00     -115.552      199.459      -32.933       72.438       90.398       45.755     5247.259     8171.856     2093.504        3.486        0.776      230.513       53.100        0.053      333.670        3.133      868.216
03/11/2014  01:32:00      -63.676      153.473      -10.601       57.707       76.631       44.107     3330.072     5872.336     1945.394        1.943        0.557      166.158       45.839        0.076      333.654        3.108      868.213
03/11/2014  01:33:00     -106.446      174.847      -22.245       72.954      105.443       49.555     5322.319    11118.329     2455.723        3.064        0.945      204.700       58.252        0.081      333.626        3.060      868.202
03/11/2014  01:34:00     -119.364      218.738      -40.337       74.797       80.970       48.949     5594.569     6556.061     2396.030        3.913        0.727      249.187       48.286        0.038      333.668        3.131      868.175
03/11/2014  01:35:00     -115.097      195.346      -30.921       74.914       96.109       52.338     5612.040     9236.854     2739.245        3.497        0.879      226.732       57.157        0.064      333.694        3.172      868.166
03/11/2014  01:36:00     -165.001      283.707      -44.422       75.630      103.616       55.644     5719.828    10736.296     3096.246        6.462        0.978      328.199       47.632        0.021      333.669        3.131      868.176
03/11/2014  01:37:00     -183.503      264.776      -37.796       87.755      136.718       52.278     7700.928    18691.867     2732.982        6.716        1.456      322.149       47.691        0.022      333.681        3.150      868.163
03/11/2014  01:38:00     -118.522      133.343      -23.874       65.836       65.947       43.285     4334.390     4349.009     1873.609        2.148        0.528      178.404       40.456        0.051      333.648        3.098      868.159
03/11/2014  01:39:00      -84.153      204.252      -27.097       63.628       70.163       42.500     4048.567     4922.915     1806.263        3.015        0.539      220.908       36.340        0.027      333.581        2.986      868.160
03/11/2014  01:40:00      -87.619      191.583      -20.223       93.262       99.431       50.874     8697.816     9886.504     2588.203        3.298        1.059      210.669       54.804        0.068      333.599        3.017      868.165
03/11/2014  01:41:00      -27.063      137.099        5.078       46.310      115.499       40.744     2144.635    13339.926     1660.068        1.835        0.857      139.745       34.803        0.062      333.574        2.978      868.184
03/11/2014  01:42:00      -93.254      242.642      -37.266       76.660       97.743       38.002     5876.729     9553.648     1444.130        4.291        0.844      259.946       38.540        0.022      333.611        3.035      868.208
03/11/2014  01:43:00      -98.554      222.024      -31.661       52.453       66.040       38.730     2751.352     4361.219     1500.049        3.431        0.431      242.915       30.305        0.016      333.553        2.939      868.257
03/11/2014  01:44:00      -98.279      280.087      -38.700       70.653      117.174       53.190     4991.822    13729.648     2829.210        5.557        1.078      296.829       54.359        0.034      333.550        2.933      868.283
03/11/2014  01:45:00      -50.840      242.725      -24.514       70.503      111.021       49.411     4970.692    12325.592     2441.444        4.092        0.987      247.993       56.738        0.052      333.535        2.909      868.311
03/11/2014  01:46:00      -35.458      228.086      -28.603       45.077       79.258       25.379     2031.905     6281.860      644.080        3.153        0.448      230.826       28.299        0.015      333.492        2.840      868.296
03/11/2014  01:47:00     -103.059      179.065      -21.209       64.427       80.391       39.175     4150.860     6462.740     1534.649        2.764        0.607      206.604       46.171        0.050      333.528        2.899      868.305
03/11/2014  01:48:00      -83.269      174.584      -21.112       54.699       70.295       37.489     2991.985     4941.398     1405.429        2.360        0.467      193.426       36.007        0.035      333.524        2.892      868.323
03/11/2014  01:49:00     -123.000      204.289      -26.051       59.651       98.390       46.794     3558.272     9680.595     2189.647        3.648        0.771      238.460       45.754        0.037      333.471        2.803      868.350
03/11/2014  01:50:00     -126.780      267.164      -36.961       88.283       99.689       57.659     7793.891     9937.956     3324.539        5.493        1.053      295.719       58.591        0.039      333.486        2.828      868.362
03/11/2014  01:51:00     -130.842      278.273      -32.247       61.903       88.412       49.062     3831.966     7816.617     2407.110        5.482        0.703      307.498       43.104        0.020      333.579        2.982      868.369
03/11/2014  01:52:00     -112.344      232.037      -29.321       72.198       75.215       52.350     5212.551     5657.366     2740.564        4.046        0.681      257.803       43.932        0.029      333.610        3.033      868.347
03/11/2014  01:53:00      -86.899      190.027      -19.914       72.788       91.367       42.409     5298.063     8347.852     1798.525        2.975        0.772      208.953       41.699        0.040      333.623        3.056      868.329
03/11/2014  01:54:00      -69.674      235.597      -37.876       59.163      106.434       42.099     3500.296    11328.180     1772.317        3.919        0.830      245.684       49.671        0.041      333.451        2.772      868.312
03/11/2014  01:55:00      -87.512      210.830      -25.845       64.302       74.992       47.108     4134.716     5623.840     2219.178        3.237        0.599      228.271       37.666        0.027      333.442        2.756      868.292
03/11/2014  01:56:00     -100.802      231.056      -42.747       68.121       79.645       45.961     4640.509     6343.322     2112.421        3.923        0.655      252.087       41.612        0.027      333.418        2.717      868.280
03/11/2014  01:57:00      -74.366      202.427      -19.402       54.142       88.696       45.587     2931.333     7866.895     2078.188        2.988        0.644      215.655       45.604        0.045      333.408        2.700      868.274
03/11/2014  01:58:00     -124.471      183.673      -26.019       70.964       88.169       47.686     5035.848     7773.716     2273.977        3.249        0.754      221.875       54.716        0.061      333.414        2.710      868.275
03/11/2014  01:59:00     -130.929      183.567      -40.536       96.098       77.790       50.132     9234.777     6051.241     2513.254        3.514        0.890      225.476       45.852        0.041      333.517        2.880      868.274
03/11/2014  02:00:00     -136.801      236.087      -33.885       61.087       89.171       43.252     3731.584     7951.511     1870.735        4.457        0.678      272.858       43.763        0.026      333.548        2.932      868.269
03/11/2014  02:01:00      -82.126      202.058      -21.454       80.552      117.812       44.166     6488.646    13879.698     1950.670        3.517        1.116      218.111       49.185        0.051      333.512        2.871      868.262
03/11/2014  02:02:00     -119.137      181.683      -28.808       96.812      111.377       53.596     9372.484    12404.931     2872.529        3.634        1.232      217.261       53.775        0.061      333.495        2.844      868.276
03/11/2014  02:03:00     -105.087      191.481      -22.620       74.558       88.813       51.583     5558.870     7887.678     2660.771        3.216        0.805      218.422       49.700        0.052      333.413        2.711      868.289
03/11/2014  02:04:00     -108.854      205.310      -28.266       70.296       87.997       44.022     4941.580     7743.510     1937.941        3.471        0.731      232.383       38.428        0.027      333.347        2.600      868.318
03/11/2014  02:05:00     -100.170      273.632      -38.792       63.553      102.403       37.516     4038.974    10486.386     1407.444        5.117        0.797      291.391       34.763        0.014      333.331        2.573      868.324
03/11/2014  02:06:00      -79.361      178.162      -16.141       60.421      113.113       47.354     3650.685    12794.589     2242.421        2.849        0.934      195.038       55.181        0.080      333.327        2.567      868.336
03/11/2014  02:07:00     -127.693      222.913      -36.591       69.425       89.176       46.582     4819.882     7952.401     2169.862        4.114        0.747      256.897       43.409        0.029      333.243        2.429      868.344
03/11/2014  02:08:00      -78.588      185.085      -17.597       62.251       84.989       44.075     3875.168     7223.068     1942.604        2.689        0.652      201.078       31.368        0.024      333.279        2.488      868.349
03/11/2014  02:09:00     -144.835      159.968      -31.066       77.035      106.520       50.478     5934.347    11346.570     2548.047        3.368        0.991      215.794       58.495        0.073      333.321        2.556      868.340
03/11/2014  02:10:00     -125.089       89.711      -19.426       71.703       73.454       40.808     5141.273     5395.498     1665.268        1.813        0.610      153.933       42.752        0.077      333.309        2.537      868.335
03/11/2014  02:11:00     -120.842      115.574      -29.360       61.813       85.575       44.800     3820.896     7323.002     2007.080        2.098        0.658      167.213       46.908        0.079      333.259        2.455      868.341
03/11/2014  02:12:00     -147.009      150.413      -38.312       59.509       93.337       39.832     3541.305     8711.738     1586.616        2.977        0.692      210.322       33.038        0.025      333.219        2.386      868.329
03/11/2014  02:13:00     -144.611      195.704      -39.736       93.136       92.370       61.676     8674.352     8532.144     3803.955        4.090        1.051      243.336       63.742        0.069      333.275        2.479      868.317
03/11/2014  02:14:00     -125.021      163.937      -24.664       54.125       68.621       41.649     2929.519     4708.874     1734.649        2.624        0.469      206.169       37.966        0.034      333.245        2.432      868.312
03/11/2014  02:15:00     -129.578      131.392      -35.209       43.963       43.526       31.254     1932.708     1894.533      976.818        2.005        0.240      184.538       21.956        0.014      333.283        2.496      868.323
03/11/2014  02:16:00     -130.015      170.784      -28.052       71.460      104.016       56.236     5106.571    10819.310     3162.476        3.297        0.954      214.642       55.511        0.067      333.273        2.477      868.330
03/11/2014  02:17:00      -92.801      246.692      -24.964       60.541       75.570       44.441     3665.206     5710.754     1975.000        4.072        0.568      263.569       37.202        0.020      333.237        2.416      868.338
03/11/2014  02:18:00     -178.302      161.099      -41.834       83.546       85.765       43.570     6979.933     7355.571     1898.380        3.786        0.812      240.301       50.118        0.043      333.272        2.476      868.338
03/11/2014  02:19:00     -114.460      186.840      -27.075       69.503      103.028       48.745     4830.664    10614.794     2376.044        3.328        0.891      219.112       55.065        0.063      333.222        2.392      868.344
03/11/2014  02:20:00      -95.162      198.852      -21.798       44.181       59.197       29.639     1951.980     3504.324      878.487        2.770        0.317      220.450       15.537        0.005      333.248        2.435      868.346
03/11/2014  02:21:00     -136.883      150.502      -37.037       78.720       56.368       45.900     6196.915     3177.353     2106.793        2.712        0.574      203.440       47.034        0.053      333.224        2.395      868.354
03/11/2014  02:22:00      -78.975      124.408      -13.679       47.799       87.984       42.284     2284.728     7741.134     1787.968        1.686        0.591      147.358       37.420        0.064      333.229        2.405      868.352
03/11/2014  02:23:00     -174.588      160.149      -37.220       89.995       64.938       38.060     8099.132     4216.973     1448.569        3.564        0.688      236.915       37.899        0.026      333.216        2.381      868.358
03/11/2014  02:24:00     -140.418      137.351      -34.524       85.794       45.176       37.301     7360.660     2040.868     1391.395        2.528        0.540      196.425       40.847        0.043      333.232        2.408      868.360
03/11/2014  02:25:00     -104.735      103.347      -15.104       52.765       54.747       37.138     2784.167     2997.191     1379.262        1.452        0.358      147.140       33.019        0.050      333.231        2.409      868.359
03/11/2014  02:26:00      -72.208      163.671      -26.305       57.773      126.271       30.844     3337.776    15944.290      951.345        2.646        1.012      178.892       46.104        0.066      333.232        2.410      868.378
03/11/2014  02:27:00     -105.670       81.445      -11.330       60.124       53.997       31.716     3614.930     2915.700     1005.878        1.273        0.377      133.414       19.279        0.021      333.256        2.449      868.377
03/11/2014  02:28:00      -43.745      148.867       -4.155       44.887       79.726       48.867     2014.836     6356.291     2387.987        1.742        0.538      155.161       44.882        0.084      333.266        2.467      868.383
03/11/2014  02:29:00     -110.222      125.178      -23.481       57.761       98.687       46.992     3336.381     9739.099     2208.233        2.182        0.764      166.789       36.686        0.048      333.232        2.411      868.383
03/11/2014  02:30:00      -66.862       72.773       -7.992       48.748       76.115       32.563     2376.393     5793.450     1060.365        0.953        0.462       98.825       31.157        0.099      333.275        2.482      868.368
03/11/2014  02:31:00     -139.690      139.767      -33.982       63.003       66.556       36.770     3969.351     4429.765     1352.016        2.498        0.488      197.606       38.495        0.038      333.208        2.369      868.363
03/11/2014  02:32:00     -162.606      113.585      -30.490       67.136       58.263       43.398     4507.299     3394.520     1883.347        2.503        0.489      198.349       33.343        0.028      333.216        2.383      868.376
03/11/2014  02:33:00     -171.336      145.806      -38.782       79.367       91.256       44.018     6299.137     8327.701     1937.547        3.434        0.828      224.979       32.984        0.021      333.204        2.363      868.369
03/11/2014  02:34:00     -172.260      140.762      -39.766       75.766       74.363       44.095     5740.522     5529.803     1944.379        3.214        0.661      222.458       39.380        0.031      333.228        2.402      868.349
03/11/2014  02:35:00      -78.736      110.599      -13.434       48.796       71.681       32.920     2381.074     5138.235     1083.706        1.361        0.430      135.763       31.979        0.055      333.231        2.409      868.326
03/11/2014  02:36:00     -163.552      155.587      -36.428       63.346       91.914       49.406     4012.682     8448.275     2441.000        3.359        0.745      225.736       49.168        0.047      333.220        2.388      868.319
03/11/2014  02:37:00     -170.451      158.212      -40.026       78.056       91.596       43.680     6092.698     8389.794     1907.985        3.604        0.820      232.561       44.645        0.037      333.161        2.291      868.322
03/11/2014  02:38:00     -102.111      159.210      -17.222       58.710       94.973       42.109     3446.917     9019.942     1773.189        2.515        0.712      189.142       38.644        0.042      333.128        2.238      868.310
03/11/2014  02:39:00     -135.245      136.865      -16.108       87.547      109.107       56.890     7664.390    11904.272     3236.462        3.004        1.140      192.415       57.952        0.091      333.191        2.341      868.302
03/11/2014  02:40:00     -134.223      154.893      -32.955       61.894      130.718       47.327     3830.910    17087.212     2239.831        3.312        1.158      204.958       47.623        0.054      333.209        2.371      868.306
03/11/2014  02:41:00     -111.186      146.818      -14.988       86.812       89.401       33.395     7536.344     7992.480     1115.216        2.539        0.832      184.168       31.636        0.030      333.271        2.474      868.281
03/11/2014  02:42:00      -91.438       65.480      -12.659       86.658       73.269       44.775     7509.622     5368.291     2004.795        1.384        0.744      112.466       25.399        0.051      333.307        2.535      868.266
03/11/2014  02:43:00      -87.027      130.432      -19.108       61.890       79.753       43.909     3830.409     6360.484     1927.995        1.853        0.606      156.800       41.014        0.068      333.276        2.483      868.256
03/11/2014  02:44:00     -145.335      118.134      -25.845       65.234      119.182       46.203     4255.471    14204.355     2134.755        2.817        1.030      187.291       45.723        0.060      333.292        2.508      868.246
03/11/2014  02:45:00      -82.144      123.610      -18.231       48.957       82.327       39.127     2396.761     6777.785     1530.920        1.653        0.535      148.415       31.198        0.044      333.280        2.490      868.236
03/11/2014  02:46:00     -118.733      101.076      -13.957       71.208       91.878       42.673     5070.575     8441.492     1820.953        1.992        0.767      155.929       36.219        0.054      333.281        2.491      868.217
03/11/2014  02:47:00     -137.003      207.569      -23.492       60.393       82.510       41.693     3647.326     6807.950     1738.322        3.730        0.610      248.706       34.866        0.020      333.273        2.476      868.200
03/11/2014  02:48:00     -142.926      184.432      -42.427       48.266       77.939       41.405     2329.588     6074.539     1714.377        3.318        0.506      233.330       34.080        0.021      333.286        2.497      868.191
03/11/2014  02:49:00      -80.463       57.060      -20.951       55.033       48.205       24.372     3028.581     2323.738      593.985        0.806        0.297       98.641       31.452        0.102      333.339        2.588      868.194
03/11/2014  02:50:00      -53.547       82.823       -6.146       42.103       68.327       32.989     1772.665     4668.603     1088.285        0.865        0.376       98.625       30.728        0.097      333.320        2.558      868.209
03/11/2014  02:51:00     -105.725       84.630      -14.425       63.873       74.539       40.714     4079.812     5556.120     1657.620        1.492        0.565      135.426       42.981        0.101      333.283        2.495      868.226
03/11/2014  02:52:00     -104.028       31.108       -0.778       61.670       49.604       33.971     3803.152     2460.568     1154.025        0.960        0.371      108.580       29.568        0.074      333.290        2.506      868.239
03/11/2014  02:53:00      -57.510       22.954       -2.466       33.122       48.169       21.542     1097.045     2320.292      464.070        0.386        0.194       61.922       17.594        0.081      333.280        2.491      868.241
03/11/2014  02:54:00      -78.490       -9.165      -16.495       27.268       33.177       20.337      743.567     1100.689      413.597        0.439        0.113       79.023        5.453        0.005      333.368        2.637      868.225
03/11/2014  02:55:00      -59.958       19.680       -7.682       45.499       56.951       31.527     2070.123     3243.424      993.944        0.517        0.315       63.105       30.901        0.240      333.345        2.598      868.190
03/11/2014  02:56:00     -123.468        7.869       -7.336       63.139      117.005       35.516     3986.495    13690.103     1261.414        1.715        0.947      123.718       24.139        0.038      333.300        2.522      868.157
03/11/2014  02:57:00      -96.261       28.247      -12.764       40.023       69.455       30.935     1601.845     4823.975      956.951        0.880        0.369      100.320       29.724        0.088      333.294        2.513      868.133
03/11/2014  02:58:00      -78.318       41.018       -2.818       64.597       64.076       42.153     4172.734     4105.792     1776.861        0.894        0.503       88.409       43.688        0.244      333.302        2.526      868.115
03/11/2014  02:59:00      -91.697      105.460      -13.410       57.977       59.465       40.505     3361.367     3536.053     1640.648        1.412        0.427      139.751       40.066        0.082      333.225        2.399      868.098
03/11/2014  03:00:00      -84.573       80.543      -15.864       44.535       58.198       40.046     1983.394     3387.006     1603.698        1.043        0.349      116.790       27.561        0.056      333.264        2.463      868.083
03/11/2014  03:01:00     -117.414       16.645       -5.954       57.274       28.302       23.506     3280.334      801.024      552.537        0.937        0.232      118.588       25.130        0.045      333.254        2.448      868.066
03/11/2014  03:02:00      -67.242       15.285       -2.009       38.590       50.534       25.708     1489.158     2553.647      660.888        0.473        0.235       68.958       17.717        0.066      333.285        2.500      868.066
03/11/2014  03:03:00      -64.109        0.308       -1.552       67.786       40.908       23.661     4594.952     1673.503      559.825        0.547        0.341       64.110       18.980        0.088      333.292        2.512      868.065
03/11/2014  03:04:00        9.210        1.806       20.845       50.242       39.573       31.105     2524.262     1566.035      967.548        0.279        0.253        9.386       32.379       11.901      333.277        2.484      868.075
03/11/2014  03:05:00      -35.193       46.130      -20.373       38.276       51.380       23.772     1465.054     2639.893      565.110        0.422        0.234       58.022       26.721        0.212      333.282        2.495      868.100
03/11/2014  03:06:00      -89.031      103.553      -25.786       38.200       40.931       23.698     1459.214     1675.309      561.615        1.150        0.185      136.564       21.874        0.026      333.261        2.460      868.110
03/11/2014  03:07:00     -149.613      105.075      -25.656       51.182       45.207       30.267     2619.637     2043.715      916.080        1.983        0.279      182.825       30.797        0.028      333.240        2.424      868.123
03/11/2014  03:08:00     -157.640      160.991      -35.483       56.404       70.908       38.317     3181.439     5027.895     1468.156        3.085        0.484      225.319       30.899        0.019      333.228        2.404      868.128
03/11/2014  03:09:00     -136.882      124.288      -25.494       75.740       67.689       40.387     5736.591     4581.852     1631.114        2.339        0.597      184.890       46.807        0.064      333.224        2.397      868.130
03/11/2014  03:10:00     -111.189      103.000      -16.720       64.362       53.135       39.336     4142.413     2823.313     1547.285        1.588        0.426      151.565       36.051        0.057      333.204        2.363      868.130
03/11/2014  03:11:00      -85.787      132.043      -18.483       41.126       47.412       34.357     1691.386     2247.942     1180.370        1.513        0.256      157.463       27.156        0.030      333.189        2.340      868.130
03/11/2014  03:12:00     -138.347      172.273      -38.722       58.205       63.741       36.292     3387.879     4062.854     1317.128        2.954        0.438      220.948       32.811        0.022      333.221        2.390      868.137
03/11/2014  03:13:00      -79.596       80.477       -5.533       44.818       46.487       32.595     2008.647     2161.077     1062.412        0.904        0.262      113.191       26.848        0.056      333.191        2.343      868.151
03/11/2014  03:14:00      -78.797       93.663      -12.058       72.480       60.337       34.927     5253.309     3640.523     1219.909        1.262        0.506      122.400       33.809        0.076      333.180        2.324      868.154
03/11/2014  03:15:00      -61.486      185.452      -17.558       47.769       91.537       29.921     2281.846     8378.973      895.295        2.502        0.578      195.379       26.238        0.018      333.180        2.326      868.151
03/11/2014  03:16:00     -105.597       66.673      -10.366       83.073       54.830       43.897     6901.081     3006.332     1926.910        1.377        0.592      124.884       48.532        0.151      333.127        2.238      868.164
03/11/2014  03:17:00     -101.258       72.803       -4.040       63.369       42.970       37.109     4015.603     1846.384     1377.079        1.140        0.362      124.714       21.562        0.030      333.100        2.193      868.168
03/11/2014  03:18:00     -115.824      175.574      -36.693       55.786       82.700       39.688     3112.092     6839.244     1575.140        2.855        0.576      210.336       40.393        0.037      333.083        2.165      868.181
03/11/2014  03:19:00     -114.976      156.527      -19.989       69.655       76.778       44.083     4851.755     5894.880     1943.342        2.540        0.634      194.217       45.284        0.054      333.063        2.132      868.183
03/11/2014  03:20:00     -118.469      154.081      -34.042       76.230       69.359       43.815     5810.996     4810.647     1919.721        2.574        0.627      194.360       45.911        0.056      333.044        2.100      868.182
03/11/2014  03:21:00     -122.536      149.894      -27.170       63.005       61.267       41.733     3969.605     3753.687     1741.622        2.384        0.473      193.606       34.839        0.032      333.042        2.097      868.186
03/11/2014  03:22:00     -109.576      138.498      -20.268       72.256       85.368       43.080     5220.899     7287.698     1855.866        2.298        0.718      176.603       33.660        0.036      333.075        2.151      868.183
03/11/2014  03:23:00     -141.303      186.690      -31.812       75.195      111.817       55.336     5654.301    12502.952     3062.109        3.852        1.061      234.136       50.989        0.047      333.068        2.138      868.201
03/11/2014  03:24:00     -159.254      192.889      -36.094      107.253       90.674       56.705    11503.208     8221.823     3215.418        4.340        1.147      250.136       60.349        0.058      333.024        2.066      868.215
03/11/2014  03:25:00     -172.453      187.652      -37.064       82.794       86.191       48.368     6854.916     7428.852     2339.431        4.147        0.831      254.860       37.121        0.021      333.054        2.117      868.224
03/11/2014  03:26:00     -189.222      243.692      -47.324       77.275      101.605       47.920     5971.356    10323.666     2296.319        5.801        0.930      308.530       41.892        0.018      333.045        2.100      868.229
03/11/2014  03:27:00     -131.971      167.812      -23.506       84.237       73.441       44.556     7095.956     5393.548     1985.263        3.030        0.724      213.488       40.171        0.035      333.004        2.033      868.223
03/11/2014  03:28:00     -164.241      227.472      -38.074       50.935      106.062       50.471     2594.334    11249.072     2547.312        4.828        0.820      280.569       50.377        0.032      333.039        2.091      868.211
03/11/2014  03:29:00     -191.868      204.046      -40.220       89.831      116.016       61.040     8069.519    13459.654     3725.852        5.266        1.263      280.086       59.910        0.046      333.055        2.117      868.201
03/11/2014  03:30:00     -188.984      152.786      -41.856       85.844       77.837       37.818     7369.225     6058.622     1430.220        3.783        0.743      243.020       34.434        0.020      333.034        2.082      868.180
03/11/2014  03:31:00     -184.685      220.625      -42.098       83.069      116.707       53.242     6900.481    13620.553     2834.659        5.395        1.168      287.722       51.575        0.032      333.006        2.038      868.145
03/11/2014  03:32:00     -169.077      170.473      -39.779       55.500       75.465       35.735     3080.252     5694.923     1277.001        3.464        0.503      240.100       26.468        0.012      333.002        2.030      868.123
03/11/2014  03:33:00     -158.810      196.075      -44.289       57.065       96.589       47.335     3256.463     9329.469     2240.636        4.022        0.741      252.321       44.752        0.031      333.002        2.029      868.111
03/11/2014  03:34:00     -137.643      188.558      -47.458       63.181       67.487       42.348     3991.815     4554.446     1793.332        3.354        0.517      233.452       26.991        0.013      332.974        1.981      868.101
03/11/2014  03:35:00     -114.351      155.540      -25.986       56.934       68.422       42.757     3241.489     4681.566     1828.181        2.385        0.488      193.052       37.010        0.037      332.960        1.960      868.093
03/11/2014  03:36:00      -98.467       44.593      -18.468       41.141       42.714       25.625     1692.621     1824.485      656.626        0.810        0.209      108.094       19.775        0.033      333.043        2.101      868.091
03/11/2014  03:37:00      -72.324       67.253      -18.435       45.214       58.937       27.346     2044.328     3473.534      747.794        0.818        0.313       98.761       25.185        0.065      333.015        2.055      868.072
03/11/2014  03:38:00     -110.149      163.819      -24.989       62.324       57.647       47.219     3884.239     3323.205     2229.661        2.451        0.472      197.407       38.445        0.038      332.954        1.950      868.066
03/11/2014  03:39:00      -96.923      161.443      -36.413       78.686       68.104       38.491     6191.509     4638.183     1481.565        2.455        0.616      188.302       44.424        0.056      332.978        1.990      868.068
03/11/2014  03:40:00     -100.582      116.387      -16.784       49.355       53.922       29.079     2435.915     2907.574      845.599        1.507        0.309      153.827       26.256        0.029      332.996        2.021      868.045
03/11/2014  03:41:00      -66.498       86.409      -16.360       27.546       45.370       22.995      758.764     2058.394      528.773        0.775        0.167      109.034       19.658        0.033      332.998        2.024      868.037
03/11/2014  03:42:00     -118.684       99.125      -36.691       60.017       46.129       33.774     3602.077     2127.927     1140.713        1.606        0.344      154.634       29.341        0.036      332.982        1.997      868.025
03/11/2014  03:43:00      -75.507       47.692       -9.403       25.151       23.197       17.889      632.584      538.087      320.031        0.478        0.075       89.308        4.029        0.002      332.984        2.003      867.989
03/11/2014  03:44:00     -125.012       98.217      -21.632       53.727       59.499       32.977     2886.541     3540.180     1087.505        1.663        0.376      158.980       36.232        0.052      332.953        1.949      867.955
03/11/2014  03:45:00     -102.586      104.629      -24.017       41.335       35.718       23.582     1708.551     1275.768      556.106        1.279        0.177      146.530       20.990        0.021      332.889        1.845      867.951
03/11/2014  03:46:00     -139.613       97.733      -31.500       35.417       39.294       27.567     1254.367     1544.037      759.963        1.680        0.178      170.422       23.287        0.019      332.949        1.945      867.953
03/11/2014  03:47:00     -117.770       97.128      -25.263       32.367       40.057       26.843     1047.597     1604.526      720.541        1.366        0.169      152.656       20.951        0.019      332.918        1.893      867.956
03/11/2014  03:48:00      -75.471      138.965      -17.831       42.599       50.108       25.864     1814.650     2510.860      668.939        1.516        0.250      158.137       20.928        0.018      332.971        1.981      867.969
03/11/2014  03:49:00      -75.890       90.933      -17.365       49.659       57.946       26.695     2466.027     3357.728      712.619        1.043        0.327      118.440       28.774        0.059      333.028        2.074      867.982
03/11/2014  03:50:00      -19.747       49.574        0.590       40.527       47.998       25.663     1642.433     2303.780      658.581        0.373        0.230       53.362       26.955        0.255      332.980        1.995      868.001
03/11/2014  03:51:00      -15.103      118.330        0.589       44.402       67.922       31.225     1971.504     4613.384      975.025        1.089        0.378      119.290       34.456        0.083      333.014        2.051      868.029
03/11/2014  03:52:00     -107.203       94.523      -21.031       48.017       31.871       29.698     2305.591     1015.764      881.953        1.254        0.210      142.923       20.009        0.020      332.863        1.804      868.058
03/11/2014  03:53:00      -18.805       62.712        2.366       43.332       47.212       26.454     1877.694     2228.964      699.806        0.455        0.240       65.470       25.610        0.153      332.874        1.822      868.058
03/11/2014  03:54:00      -66.674       84.618       -4.091       55.807       68.880       33.779     3114.470     4744.391     1140.989        1.031        0.450      107.730       25.937        0.058      332.897        1.858      868.046
03/11/2014  03:55:00      -98.768       84.286      -17.227       59.699       73.209       44.789     3563.958     5359.582     2006.094        1.404        0.546      129.843       50.663        0.152      332.922        1.898      868.024
03/11/2014  03:56:00     -113.675       81.479      -24.403       64.254       48.606       29.256     4128.570     2362.577      855.900        1.375        0.367      139.860       35.646        0.065      332.907        1.874      867.999
03/11/2014  03:57:00      -95.761       55.664      -16.887       69.416       56.546       25.938     4818.627     3197.394      672.771        1.062        0.434      110.764       20.697        0.035      332.926        1.905      867.963
03/11/2014  03:58:00     -101.457       79.166      -16.610       46.043       56.166       26.681     2119.944     3154.578      711.857        1.141        0.299      128.689       21.164        0.027      332.908        1.877      867.950
03/11/2014  03:59:00     -107.549      129.176      -21.888       37.000       56.683       31.493     1369.013     3213.000      991.778        1.715        0.279      168.087       29.135        0.030      332.861        1.798      867.931
03/11/2014  04:00:00     -151.986      126.293      -34.790       66.530       87.089       38.379     4426.239     7584.456     1472.986        2.687        0.674      197.610       37.283        0.036      332.919        1.893      867.918
03/11/2014  04:01:00      -96.444       80.222      -25.748       41.141       43.394       28.785     1692.546     1883.010      828.585        1.040        0.220      125.447       11.921        0.009      332.916        1.891      867.908
03/11/2014  04:02:00     -110.233      101.335      -42.640       36.317       47.845       26.423     1318.899     2289.178      698.158        1.427        0.215      149.733       17.614        0.014      332.924        1.904      867.908
03/11/2014  04:03:00     -123.396       83.909      -26.459       48.884       37.661       30.979     2389.651     1418.329      959.677        1.387        0.238      149.222       27.127        0.033      332.911        1.881      867.905
03/11/2014  04:04:00     -102.637      141.904      -26.632       54.064       69.442       32.926     2922.939     4822.199     1084.124        2.010        0.441      175.132       24.255        0.019      332.866        1.806      867.903
03/11/2014  04:05:00      -58.888       27.349       -5.305       37.251       51.343       23.891     1387.623     2636.119      570.794        0.442        0.230       64.929       18.044        0.077      332.976        1.989      867.900
03/11/2014  04:06:00     -120.689        3.236      -17.877       35.984       39.825       21.172     1294.864     1586.056      448.234        0.911        0.166      120.733       14.646        0.015      332.886        1.842      867.908
03/11/2014  04:07:00      -85.426       27.280      -16.877       44.671       41.818       21.373     1995.455     1748.760      456.817        0.626        0.210       89.676       18.282        0.042      332.877        1.826      867.929
03/11/2014  04:08:00      -95.951      -20.298       -9.319       30.324       36.445       16.376      919.524     1328.246      268.181        0.611        0.126       98.075        6.648        0.005      332.934        1.921      867.942
03/11/2014  04:09:00     -120.589      -48.393      -14.287       20.817       16.457       10.754      433.330      270.820      115.638        0.895        0.041      129.937        5.540        0.002      332.935        1.923      867.945
03/11/2014  04:10:00      -52.021      -43.367       -0.623       52.187       27.703       14.879     2723.447      767.440      221.387        0.415        0.186       67.727       19.352        0.082      332.968        1.976      867.946
03/11/2014  04:11:00      -39.138      -36.605        5.651       33.227       25.486       26.477     1104.009      649.553      701.056        0.268        0.123       53.588       25.819        0.232      332.954        1.953      867.950
03/11/2014  04:12:00      -43.717      -38.054        8.244       43.620       22.290       18.304     1902.699      496.856      335.042        0.308        0.137       57.959       18.968        0.107      332.962        1.967      867.952
03/11/2014  04:13:00      -71.039      -39.467       -6.269       30.270       27.190       17.368      916.272      739.313      301.631        0.430        0.098       81.266       10.346        0.016      332.909        1.879      867.969
03/11/2014  04:14:00      -63.420      -14.254       -7.709       18.782       15.647        9.420      352.771      244.823       88.730        0.249        0.034       65.002        7.692        0.014      332.885        1.839      867.978
03/11/2014  04:15:00      -33.832        3.034       -4.928       13.478       10.146        9.673      181.654      102.934       93.576        0.078        0.019       33.967        5.829        0.029      332.888        1.846      867.990
03/11/2014  04:16:00      -50.412      -21.912       -8.493       17.423       13.156       10.227      303.551      173.090      104.599        0.184        0.029       54.968        5.974        0.012      332.869        1.815      867.988
03/11/2014  04:17:00      -61.029       -3.046       -8.627        9.186        8.597        7.165       84.385       73.915       51.339        0.201        0.010       61.105        4.822        0.006      332.858        1.795      867.986
03/11/2014  04:18:00      -72.815      -14.959       -9.906       16.132       20.717       11.219      260.233      429.181      125.869        0.322        0.041       74.335        6.471        0.008      332.900        1.865      867.979
03/11/2014  04:19:00      -43.324       -7.323       -3.782       16.377       20.180        8.669      268.194      407.224       75.144        0.135        0.038       43.938        6.800        0.024      332.853        1.787      867.974
03/11/2014  04:20:00      -36.903      -44.061        4.112       35.630       22.603       16.874     1269.530      510.897      284.728        0.269        0.103       57.473       17.013        0.088      332.848        1.777      867.974
03/11/2014  04:21:00      -94.963       -5.188       -2.780       22.667       24.496       12.428      513.772      600.076      154.459        0.516        0.063       95.104       13.227        0.019      332.821        1.734      867.985
03/11/2014  04:22:00      -91.215      -29.310       -3.681       30.952       23.058        9.541      958.016      531.691       91.034        0.539        0.079       95.808        2.147        0.001      332.763        1.638      867.994
03/11/2014  04:23:00      -25.337       -5.485       -0.238       20.104       10.939        9.358      404.171      119.657       87.577        0.064        0.031       25.924        8.250        0.101      332.741        1.602      868.006
03/11/2014  04:24:00      -43.414       10.825       -5.820       15.654       14.969       12.233      245.058      224.066      149.657        0.133        0.031       44.744       11.223        0.063      332.674        1.490      868.031
03/11/2014  04:25:00      -23.533       -9.457        2.656       11.437       11.485        8.858      130.795      131.903       78.459        0.050        0.017       25.362        2.423        0.009      332.690        1.517      868.058
03/11/2014  04:26:00       -8.959       15.585       -0.495       23.232       11.712        9.678      539.739      137.162       93.671        0.055        0.039       17.976        2.814        0.024      332.717        1.561      868.089
03/11/2014  04:27:00       86.581       35.910        7.912       36.472       33.422       28.111     1330.200     1117.041      790.250        0.604        0.162       93.732       19.014        0.041      332.494        1.193      868.113
03/11/2014  04:28:00       91.231       76.003       30.726       28.720       27.124       34.770      824.853      735.689     1208.927        0.891        0.138      118.742       16.093        0.018      332.371        0.991      868.124
03/11/2014  04:29:00       79.229       70.255       43.558       36.609       28.852       33.315     1340.195      832.438     1109.878        0.820        0.164      105.892       28.111        0.070      332.326        0.916      868.133
03/11/2014  04:30:00       52.023       50.253       30.511       24.696       23.176       23.516      609.908      537.137      553.016        0.393        0.085       72.330       15.228        0.044      332.288        0.854      868.147
03/11/2014  04:31:00       35.377       21.892       18.791       24.190       16.761       22.768      585.155      280.936      518.375        0.173        0.069       41.602       10.134        0.059      332.285        0.850      868.158
03/11/2014  04:32:00       16.670       16.185        1.955       12.774        9.234       11.817      163.175       85.260      139.642        0.047        0.019       23.234        7.524        0.105      332.384        1.011      868.170
03/11/2014  04:33:00      -16.553        8.662       -0.105       24.141        9.373       10.526      582.765       87.854      110.804        0.057        0.039       18.683        5.382        0.083      332.532        1.256      868.178
03/11/2014  04:34:00      -49.362       30.065      -13.332       23.107       16.485       12.837      533.923      271.767      164.779        0.224        0.049       57.797       12.275        0.045      332.559        1.301      868.190
03/11/2014  04:35:00      -39.030        4.773       -3.529       16.720       18.787       11.582      279.546      352.965      134.132        0.116        0.038       39.321       10.388        0.070      332.543        1.274      868.207
03/11/2014  04:36:00      -64.858      -14.450       -7.625       25.921       38.751       19.807      671.895     1501.639      392.314        0.352        0.128       66.448        9.123        0.019      332.579        1.332      868.222
03/11/2014  04:37:00      -95.316        0.762       -2.822       37.096       51.656       21.935     1376.135     2668.375      481.134        0.681        0.226       95.319       27.175        0.081      332.493        1.192      868.228
03/11/2014  04:38:00      -17.755       17.263       -5.246       25.555       36.400       17.038      653.072     1324.941      290.284        0.145        0.113       24.764       17.541        0.502      332.543        1.273      868.221
03/11/2014  04:39:00      -38.178       -2.295       -2.675       48.550       35.179       28.631     2357.141     1237.553      819.706        0.294        0.221       38.247       21.368        0.312      332.581        1.337      868.205
03/11/2014  04:40:00      -55.402      -27.913       -2.232       30.046       33.050       13.964      902.742     1092.289      194.985        0.302        0.110       62.036       10.892        0.031      332.606        1.378      868.192
03/11/2014  04:41:00      -27.666       -3.964        2.991       31.919       23.765       19.341     1018.810      564.759      374.089        0.137        0.098       27.949       10.269        0.135      332.590        1.352      868.182
03/11/2014  04:42:00      -55.007       54.983      -16.756       43.273       86.929       37.089     1872.591     7556.616     1375.612        0.857        0.540       77.775       37.901        0.237      332.624        1.409      868.198
03/11/2014  04:43:00      -76.694       86.246      -22.431       30.609       36.221       17.534      936.925     1311.980      307.445        0.819        0.128      115.414       16.772        0.021      332.607        1.380      868.222
03/11/2014  04:44:00      -77.868       53.116      -16.575       36.100       40.716       27.379     1303.226     1657.762      749.597        0.643        0.186       94.259       24.120        0.065      332.635        1.425      868.240
03/11/2014  04:45:00      -44.809      104.743      -17.591       36.007       53.116       20.365     1296.520     2821.307      414.716        0.891        0.227      113.925       20.728        0.033      332.669        1.482      868.249
03/11/2014  04:46:00      -49.639       44.585      -16.340       28.471       28.989       21.755      810.587      840.347      473.295        0.342        0.106       66.723       13.187        0.039      332.644        1.441      868.242
03/11/2014  04:47:00      -43.126       53.344       -3.327       28.876       41.215       18.742      833.843     1698.698      351.281        0.380        0.144       68.597       11.163        0.026      332.596        1.362      868.251
03/11/2014  04:48:00      -25.893       90.302      -23.497       44.929       30.324       20.705     2018.595      919.571      428.702        0.637        0.168       93.941       11.437        0.015      332.711        1.551      868.273
03/11/2014  04:49:00       37.082       40.287       -3.451       19.024       18.511       15.774      361.909      342.667      248.806        0.198        0.048       54.755       12.207        0.050      332.587        1.346      868.277
03/11/2014  04:50:00        2.812       14.778        3.347       23.762       19.174       16.856      564.622      367.630      284.141        0.073        0.061       15.043       12.660        0.708      332.460        1.137      868.277
03/11/2014  04:51:00       19.627       40.036        1.368       23.923       19.598       12.569      572.311      384.071      157.982        0.155        0.056       44.589       11.131        0.062      332.463        1.141      868.274
03/11/2014  04:52:00      -22.745       38.957        0.615       14.075       36.787       12.122      198.092     1353.258      146.952        0.187        0.085       45.111        7.467        0.027      332.551        1.287      868.274
03/11/2014  04:53:00      -13.010       -6.442       -3.512       16.648       10.943        9.452      277.168      119.744       89.345        0.035        0.024       14.518        6.348        0.191      332.593        1.356      868.261
03/11/2014  04:54:00      -50.357      -62.175      -13.755       13.928       17.942       14.954      193.997      321.926      223.626        0.367        0.037       80.010       10.932        0.019      332.611        1.388      868.245
03/11/2014  04:55:00      -13.854      -27.179        8.868       28.044       21.329       22.797      786.440      454.937      519.707        0.138        0.088       30.506       16.167        0.281      332.736        1.594      868.221
03/11/2014  04:56:00       -3.497      -40.217        3.569       16.586       16.721       14.629      275.089      279.604      213.999        0.121        0.038       40.368        9.172        0.052      332.674        1.490      868.222
03/11/2014  04:57:00      -26.326      -20.711        2.224       21.317       13.361       11.347      454.435      178.529      128.747        0.094        0.038       33.496        8.566        0.065      332.708        1.546      868.229
03/11/2014  04:58:00       -8.664       -3.995        8.983       18.625       17.347       12.305      346.874      300.917      151.411        0.049        0.040        9.541       12.152        1.622      332.543        1.273      868.255
03/11/2014  04:59:00       22.124       26.357       34.690       25.283       17.803       16.330      639.207      316.955      266.678        0.180        0.061       34.411       17.827        0.268      332.295        0.863      868.281
03/11/2014  05:00:00        3.308        9.909       15.847        8.010       16.047       13.046       64.164      257.522      170.194        0.043        0.025       10.447       10.025        0.921      332.270        0.825      868.302
03/11/2014  05:01:00        6.564       10.442        9.955       21.958       18.481       21.348      482.136      341.547      455.740        0.077        0.064       12.334        9.955        0.651      332.283        0.845      868.316
03/11/2014  05:02:00       12.967       30.832       40.104       16.432       22.632       14.637      269.998      512.218      214.240        0.186        0.050       33.448        9.331        0.078      332.220        0.741      868.325
03/11/2014  05:03:00       -2.688       22.486       44.724       16.046       25.553       16.141      257.466      652.951      260.540        0.184        0.059       22.646       16.486        0.530      332.230        0.759      868.319
03/11/2014  05:04:00        3.778       27.704       43.014       14.714       23.125       11.959      216.498      534.780      143.016        0.176        0.045       27.960       11.918        0.182      332.212        0.728      868.313
03/11/2014  05:05:00       -2.441      -21.803       13.123       12.895       24.748       14.253      166.289      612.476      203.161        0.082        0.049       21.939       11.725        0.286      332.295        0.863      868.304
03/11/2014  05:06:00        0.172        7.192       17.949       15.892       13.508       10.138      252.546      182.464      102.779        0.046        0.027        7.194        7.555        1.103      332.256        0.799      868.296
03/11/2014  05:07:00       -0.883       16.162       22.045        8.202       13.874       10.077       67.272      192.479      101.540        0.055        0.018       16.187        7.630        0.222      332.215        0.732      868.291
03/11/2014  05:08:00       -1.567       -2.546       29.131       15.376       17.535       11.988      236.431      307.487      143.720        0.077        0.034        2.990        9.033        9.130      332.245        0.781      868.280
03/11/2014  05:09:00       -3.368       11.262       43.913       11.949       29.630       12.581      142.777      877.911      158.274        0.162        0.059       11.754       12.956        1.215      332.278        0.837      868.264
03/11/2014  05:10:00       -0.588       -1.015       39.594       16.100       31.132       15.092      259.209      969.215      227.755        0.151        0.073        1.173       11.808      101.352      332.302        0.875      868.250
03/11/2014  05:11:00        7.607        5.689       47.877       18.343       26.317       16.888      336.457      692.600      285.215        0.185        0.066        9.499       12.987        1.869      332.248        0.788      868.251
03/11/2014  05:12:00        3.444        5.504       25.822       15.499       39.265       21.077      240.228     1541.778      444.242        0.147        0.111        6.493       24.195       13.886      332.175        0.667      868.259
03/11/2014  05:13:00       12.144      -40.891       20.528       19.947       30.850       19.841      397.877      951.733      393.682        0.199        0.087       42.656       13.427        0.099      332.249        0.790      868.256
03/11/2014  05:14:00       -8.765       -9.970        9.074       15.709       30.131       11.028      246.764      907.848      121.615        0.077        0.064       13.275        8.299        0.391      332.326        0.917      868.241
03/11/2014  05:15:00        3.874      -31.280       -9.019       17.779       18.229       12.889      316.095      332.311      166.135        0.094        0.041       31.519        5.282        0.028      332.524        1.242      868.231
03/11/2014  05:16:00      -31.623      -24.321       -1.130       13.254       20.551       12.366      175.671      422.362      152.923        0.117        0.038       39.894        4.346        0.012      332.397        1.033      868.232
03/11/2014  05:17:00      -11.512      -56.744      -12.939       19.298       17.653       15.123      372.406      311.619      228.705        0.222        0.046       57.900        9.299        0.026      332.380        1.004      868.238
03/11/2014  05:18:00        5.568       -1.724        8.099       19.241       17.347       13.676      370.214      300.925      187.019        0.048        0.043        5.829       15.073        6.688      332.340        0.939      868.256
03/11/2014  05:19:00        1.202       14.894       14.686        6.029       10.738        6.550       36.352      115.310       42.899        0.032        0.010       14.943        2.932        0.039      332.220        0.742      868.262
03/11/2014  05:20:00      -15.115       -4.552        2.137       11.592        8.912        6.663      134.365       79.426       44.394        0.026        0.013       15.785        5.990        0.144      332.228        0.753      868.260
03/11/2014  05:21:00       -1.943       -5.952        3.894        7.056       15.538       11.477       49.783      241.432      131.713        0.024        0.021        6.261       11.114        3.151      332.265        0.814      868.257
03/11/2014  05:22:00       19.177       26.232        7.667       11.522        8.049       10.424      132.761       64.789      108.653        0.071        0.015       32.494        7.833        0.058      332.224        0.746      868.251
03/11/2014  05:23:00        8.236       27.869        4.723       10.561        8.940        9.552      111.531       79.929       91.235        0.057        0.014       29.060        7.538        0.067      332.239        0.772      868.241
03/11/2014  05:24:00        8.060       26.323        4.617        8.403        7.421        6.550       70.617       55.067       42.901        0.047        0.008       27.530        2.421        0.008      332.276        0.834      868.242
03/11/2014  05:25:00       14.683       14.045       11.454        9.640       12.222        8.919       92.921      149.377       79.556        0.043        0.016       20.319        5.812        0.082      332.274        0.830      868.258
03/11/2014  05:26:00       10.665       24.698        6.520       14.586       10.840       11.189      212.764      117.500      125.205        0.061        0.023       26.902        8.739        0.106      332.229        0.754      868.280
03/11/2014  05:27:00       17.786       54.221       -0.803       16.014       10.653        8.411      256.454      113.486       70.750        0.185        0.022       57.064        3.631        0.004      332.151        0.628      868.295
03/11/2014  05:28:00        5.083       53.521       -5.085       13.654       14.386        7.591      186.436      206.945       57.621        0.168        0.023       53.762        7.319        0.019      332.076        0.503      868.299
03/11/2014  05:29:00        5.929       25.520       -2.000       14.149       24.362        9.135      200.184      593.508       83.453        0.078        0.044       26.200        4.983        0.036      332.070        0.495      868.282
03/11/2014  05:30:00        1.765       10.769        0.504        7.355        9.374        5.441       54.103       87.870       29.604        0.015        0.009       10.913        4.578        0.176      332.083        0.514      868.263
03/11/2014  05:31:00      -19.338        2.807       -0.448       11.539       10.994        6.396      133.157      120.873       40.912        0.034        0.015       19.541        2.727        0.019      332.088        0.523      868.245
03/11/2014  05:32:00      -44.143       -0.192       -1.476       17.927       13.667       10.204      321.359      186.800      104.118        0.128        0.031       44.143       10.722        0.059      332.046        0.455      868.254
03/11/2014  05:33:00      -22.557        9.915        0.343       12.394       12.502        9.280      153.608      156.295       86.109        0.050        0.020       24.640        7.239        0.086      331.993        0.367      868.272
03/11/2014  05:34:00      -33.587       21.732       -5.334       10.272        6.849        5.921      105.516       46.906       35.055        0.091        0.009       40.005        2.051        0.003      332.037        0.441      868.309
03/11/2014  05:35:00       -4.977        6.415       -0.022       13.572       12.832        5.510      184.209      164.651       30.359        0.022        0.019        8.120        6.504        0.642      332.015        0.403      868.336
03/11/2014  05:36:00        1.284        7.440        3.804       12.297       20.490       10.192      151.211      419.848      103.887        0.037        0.034        7.550        8.868        1.379      332.021        0.412      868.340
03/11/2014  05:37:00       13.401       14.528        5.409       17.419       12.622        8.534      303.407      159.321       72.831        0.048        0.027       19.765       10.110        0.262      332.053        0.465      868.339
03/11/2014  05:38:00       24.260       25.110       16.543       10.824        6.560        7.825      117.153       43.028       61.237        0.086        0.011       34.915        1.854        0.003      332.110        0.560      868.344
03/11/2014  05:39:00       29.435       26.401        8.136       10.843        9.619       10.188      117.577       92.520      103.796        0.097        0.016       39.540        7.631        0.037      332.075        0.501      868.354
03/11/2014  05:40:00       21.904       17.074        2.584       14.476        8.862        7.750      209.567       78.541       60.068        0.056        0.017       27.772        6.631        0.057      332.076        0.503      868.344
03/11/2014  05:41:00       -5.772        5.653        8.745        8.966        7.973        9.690       80.389       63.573       93.894        0.019        0.012        8.080        2.191        0.074      331.943        0.285      868.328
03/11/2014  05:42:00      -40.136       -6.179       -4.008       12.532       15.737       10.715      157.055      247.649      114.820        0.109        0.026       40.609        6.324        0.024      331.804        0.057      868.330
03/11/2014  05:43:00      -46.578       -9.874       -7.054       20.998       17.868       15.931      440.930      319.274      253.787        0.167        0.051       47.613       15.340        0.104      331.708       -0.102      868.345
03/11/2014  05:44:00      -43.666      -17.319       -4.549       23.044       21.343       10.235      531.005      455.540      104.757        0.166        0.055       46.975        9.202        0.038      331.686       -0.138      868.361
03/11/2014  05:45:00      -27.016       -5.154        0.394       28.121       12.995       11.744      790.818      168.857      137.912        0.093        0.055       27.503        9.011        0.107      331.607       -0.270      868.367
03/11/2014  05:46:00      -35.012        1.609       -1.359       21.849       12.725       14.221      477.364      161.920      202.247        0.104        0.042       35.049        9.791        0.078      331.600       -0.280      868.377
03/11/2014  05:47:00      -42.895       12.389       -5.050       22.298       19.337       14.710      497.215      373.938      216.389        0.155        0.054       44.648       12.018        0.072      331.567       -0.334      868.387
03/11/2014  05:48:00      -80.982       -6.248       -8.744       23.777       26.119       15.076      565.345      682.219      227.296        0.407        0.074       81.223       12.516        0.024      331.661       -0.180      868.378
03/11/2014  05:49:00      -79.543      -11.097       -7.591       26.577       21.244       19.143      706.327      451.321      366.450        0.402        0.076       80.313       15.690        0.038      331.634       -0.226      868.372
03/11/2014  05:50:00      -97.548      -16.541      -13.466       27.005       23.885       14.908      729.267      570.479      222.251        0.575        0.076       98.941       11.671        0.014      331.653       -0.193      868.351
03/11/2014  05:51:00      -97.156      -58.065       -8.427       26.828       26.393       20.390      719.726      696.604      415.756        0.736        0.092      113.185       14.305        0.016      331.632       -0.228      868.321
03/11/2014  05:52:00      -66.496      -20.561       -3.508       39.869       30.424       19.744     1589.566      925.627      389.821        0.388        0.145       69.603       18.972        0.074      331.733       -0.062      868.287
03/11/2014  05:53:00      -89.722      -25.636       -7.312       20.634       24.586       12.542      425.744      604.480      157.311        0.497        0.059       93.313        8.491        0.008      331.715       -0.090      868.267
03/11/2014  05:54:00      -87.136      -15.738      -12.661       23.767       23.003       15.014      564.863      529.129      225.429        0.466        0.066       88.546       12.713        0.021      331.575       -0.322      868.272
03/11/2014  05:55:00      -57.706        1.285       -8.430       31.911       28.759       19.921     1018.339      827.100      396.827        0.282        0.112       57.720       17.765        0.095      331.522       -0.409      868.300
03/11/2014  05:56:00      -27.487        0.866       -9.428       25.844       21.896       16.119      667.900      479.417      259.833        0.113        0.070       27.501       15.443        0.315      331.532       -0.392      868.327
03/11/2014  05:57:00      -59.483       14.590       -2.369       31.827       18.983       12.732     1012.939      360.351      162.100        0.265        0.077       61.246       11.552        0.036      331.580       -0.313      868.341
03/11/2014  05:58:00      -30.551       -2.633        0.220       22.203       20.566       11.743      492.993      422.963      137.889        0.100        0.053       30.664       11.846        0.149      331.684       -0.142      868.323
03/11/2014  05:59:00      -68.953       -2.577      -13.282       40.478       21.294       13.687     1638.494      453.421      187.335        0.361        0.114       69.001       10.745        0.024      331.659       -0.182      868.292
03/11/2014  06:00:00      -78.036      -18.799       -5.271       32.489       24.645       18.157     1055.530      607.367      329.678        0.423        0.100       80.269       16.849        0.044      331.665       -0.172      868.253
03/11/2014  06:01:00     -116.583       10.412      -11.748       28.512       27.761       15.598      812.922      770.664      243.291        0.783        0.091      117.047        7.658        0.004      331.649       -0.199      868.214
03/11/2014  06:02:00      -86.325       -4.337      -10.530       21.577       23.918       15.005      465.577      572.061      225.151        0.442        0.063       86.434       10.590        0.015      331.593       -0.291      868.183
03/11/2014  06:03:00      -68.659       -0.429       -8.731       24.616       22.266       12.966      605.956      495.775      168.129        0.303        0.063       68.660        8.858        0.017      331.619       -0.248      868.183
03/11/2014  06:04:00      -71.952        4.326       -3.551       28.172       23.395       15.577      793.646      547.332      242.657        0.340        0.079       72.082       12.615        0.031      331.619       -0.249      868.211
03/11/2014  06:05:00      -66.683      -13.067       -1.739       32.260       22.817       16.501     1040.736      520.625      272.271        0.323        0.092       67.951       15.580        0.053      331.683       -0.143      868.242
03/11/2014  06:06:00      -51.917       -2.031       -4.239       26.794       26.026       12.722      717.908      677.364      161.853        0.214        0.078       51.957        4.697        0.008      331.683       -0.143      868.257
03/11/2014  06:07:00      -47.150       -3.463       -9.348       19.241       28.501       15.209      370.225      812.321      231.328        0.187        0.071       47.277        6.960        0.022      331.745       -0.042      868.251
03/11/2014  06:08:00      -80.481      -18.685       -9.111       21.747       19.113       12.221      472.920      365.317      149.352        0.395        0.049       82.622        5.595        0.005      331.717       -0.089      868.250
03/11/2014  06:09:00      -76.007      -11.515       -8.778       23.096       23.144       13.690      533.433      535.650      187.409        0.362        0.063       76.874        8.607        0.013      331.553       -0.358      868.264
03/11/2014  06:10:00      -82.674       -4.429       -9.940       38.442       24.419       18.813     1477.807      596.265      353.928        0.469        0.121       82.792       17.016        0.042      331.447       -0.532      868.283
03/11/2014  06:11:00     -103.275      -12.540      -11.369       26.349       27.925       17.483      694.244      779.825      305.652        0.637        0.089      104.033       14.091        0.018      331.437       -0.548      868.273
03/11/2014  06:12:00      -87.997      -18.713       -5.202       30.319       31.880       17.955      919.267     1016.313      322.396        0.519        0.113       89.965       16.575        0.034      331.379       -0.644      868.237
03/11/2014  06:13:00      -82.961      -18.809       -4.371       34.706       22.567       20.506     1204.516      509.264      420.483        0.469        0.107       85.067       18.700        0.048      331.419       -0.578      868.202
03/11/2014  06:14:00      -88.825      -13.195       -0.766       38.587       20.105       23.371     1488.962      404.225      546.214        0.525        0.122       89.800       26.898        0.090      331.437       -0.548      868.199
03/11/2014  06:15:00     -112.125      -15.835      -12.373       27.572       16.997       17.181      760.237      288.882      295.191        0.716        0.067      113.237       15.836        0.020      331.419       -0.578      868.200
03/11/2014  06:16:00     -100.778       -6.037       -5.564       33.000       26.819       24.702     1089.022      719.270      610.193        0.632        0.121      100.959       23.514        0.054      331.380       -0.641      868.209
03/11/2014  06:17:00      -74.440       -9.681        1.186       33.875       21.465       19.796     1147.537      460.730      391.880        0.382        0.100       75.067       21.212        0.080      331.333       -0.719      868.220
03/11/2014  06:18:00      -98.365        1.238       -9.795       30.616       25.630       14.605      937.367      656.885      213.300        0.579        0.090       98.373       14.392        0.021      331.401       -0.607      868.238
03/11/2014  06:19:00      -36.029       -7.163      -11.113       29.623       21.217       17.278      877.510      450.177      298.515        0.155        0.081       36.734        8.797        0.057      331.399       -0.611      868.250
03/11/2014  06:20:00      -44.099        1.774      -15.504       13.492       11.220       10.676      182.042      125.881      113.983        0.130        0.021       44.134        8.066        0.033      331.523       -0.409      868.259
03/11/2014  06:21:00      -48.095       36.935      -13.767       14.907       28.661       11.735      222.227      821.455      137.707        0.252        0.059       60.640       13.030        0.046      331.662       -0.178      868.260
03/11/2014  06:22:00      -34.923       10.163        0.803       12.347       20.292       11.624      152.449      411.771      135.129        0.101        0.035       36.371       12.838        0.125      331.604       -0.272      868.229
03/11/2014  06:23:00      -13.830       -1.568       -1.167        8.780        6.203        6.206       77.088       38.476       38.516        0.017        0.008       13.918        2.655        0.036      331.583       -0.307      868.177
03/11/2014  06:24:00       -5.882       -1.986       -6.731        9.653       10.192        8.570       93.189      103.877       73.445        0.018        0.014        6.208        8.564        1.903      331.583       -0.308      868.149
03/11/2014  06:25:00       27.176       29.149        8.947       12.028       11.036        9.436      144.669      121.786       89.042        0.101        0.018       39.853        4.904        0.015      331.669       -0.166      868.159
03/11/2014  06:26:00       42.762       31.805       -1.790        7.037        5.883        7.351       49.526       34.606       54.045        0.149        0.007       53.293        3.528        0.004      331.526       -0.401      868.196
03/11/2014  06:27:00       29.214       27.771       -2.846       11.119       11.434        7.036      123.640      130.734       49.501        0.097        0.015       40.307        4.584        0.013      331.576       -0.320      868.235
03/11/2014  06:28:00       23.208       14.647       -4.401        8.457       12.928        9.791       71.527      167.133       95.869        0.055        0.017       27.443        5.643        0.042      331.570       -0.330      868.243
03/11/2014  06:29:00        9.373       38.318       -7.555        9.922       12.366        8.063       98.452      152.925       65.020        0.096        0.016       39.448        7.041        0.032      331.742       -0.046      868.203
03/11/2014  06:30:00       20.665       39.630        5.966       12.485       19.581       12.178      155.878      383.428      148.297        0.136        0.034       44.694       12.476        0.078      331.730       -0.067      868.158
03/11/2014  06:31:00       -2.875       40.782        2.193       17.839       16.840       11.747      318.236      283.586      138.000        0.121        0.037       40.884       13.299        0.106      331.672       -0.163      868.154
03/11/2014  06:32:00       -4.971       31.506        5.371       14.063       30.329       10.244      197.776      919.864      104.936        0.113        0.061       31.896        8.342        0.068      331.749       -0.035      868.174
03/11/2014  06:33:00      -25.659       13.682       -5.422       17.334       14.971        8.467      300.468      224.137       71.684        0.074        0.030       29.079        6.396        0.048      331.723       -0.078      868.175
03/11/2014  06:34:00      -60.158        3.550      -11.598       10.416        8.998        7.661      108.484       80.965       58.696        0.201        0.012       60.262        4.963        0.007      331.689       -0.132      868.164
03/11/2014  06:35:00      -62.523      -17.296      -10.919        8.706       11.871        7.435       75.791      140.915       55.284        0.230        0.014       64.871        1.589        0.001      331.451       -0.525      868.151
03/11/2014  06:36:00      -36.378      -16.333       -6.992       12.706       13.559        9.879      161.454      183.842       97.587        0.104        0.022       39.877       10.071        0.064      331.456       -0.518      868.139
03/11/2014  06:37:00      -60.883       -8.995       -8.390       12.105       12.084       11.752      146.520      146.021      138.111        0.214        0.022       61.544        8.199        0.018      331.597       -0.285      868.155
03/11/2014  06:38:00      -20.907        3.550       -9.248       16.402       10.999        8.998      269.035      120.969       80.964        0.050        0.024       21.207        8.564        0.163      331.570       -0.330      868.196
03/11/2014  06:39:00       -5.160       30.490        1.960       16.029       26.025       11.289      256.922      677.320      127.442        0.101        0.053       30.924        5.703        0.034      331.644       -0.208      868.219
03/11/2014  06:40:00       11.484       -2.082        8.431       14.106       13.574       11.298      198.991      184.254      127.640        0.036        0.026       11.671        3.561        0.093      331.805        0.056      868.232
03/11/2014  06:41:00       11.292       26.727       -0.815       19.133       33.659       15.493      366.057     1132.924      240.019        0.129        0.087       29.015       18.233        0.395      331.826        0.091      868.231
03/11/2014  06:42:00       15.214       58.860       -3.973       24.826       28.185       13.991      616.316      794.377      195.745        0.266        0.080       60.794       17.352        0.081      331.905        0.222      868.232
03/11/2014  06:43:00       12.967       85.086      -10.494       12.743       15.782        8.333      162.386      249.079       69.446        0.400        0.024       86.068        6.426        0.006      331.926        0.256      868.235
03/11/2014  06:44:00       23.547       45.226       -4.186       16.200       21.214        9.405      262.432      450.015       88.446        0.171        0.040       50.988        6.567        0.017      331.850        0.130      868.253
03/11/2014  06:45:00       29.403       22.377       -1.765       12.263       13.704        8.657      150.390      187.791       74.941        0.089        0.021       36.949        9.593        0.067      331.785        0.022      868.261
03/11/2014  06:46:00        6.490       26.409       -4.222       11.236       15.443       11.737      126.254      238.487      137.766        0.063        0.025       27.195        7.176        0.070      331.784        0.023      868.237
03/11/2014  06:47:00       -0.320       35.068       -5.351       12.674       17.671        8.170      160.635      312.271       66.745        0.090        0.027       35.070       10.046        0.082      331.859        0.145      868.207
03/11/2014  06:48:00        9.966       47.666       -8.465       13.047       15.179        8.604      170.223      230.402       74.028        0.146        0.024       48.697        8.329        0.029      331.929        0.262      868.185
03/11/2014  06:49:00       20.714       68.452       -9.252       15.798       21.345       10.103      249.580      455.592      102.062        0.300        0.040       71.518        9.777        0.019      331.919        0.245      868.199
03/11/2014  06:50:00       21.290       75.624      -10.754       15.357       11.188        9.190      235.833      125.164       84.464        0.337        0.022       78.564        7.082        0.008      331.891        0.198      868.224
03/11/2014  06:51:00       15.481       77.064       -8.668       15.519       11.116        8.240      240.848      123.561       67.901        0.334        0.022       78.603        7.001        0.008      331.867        0.159      868.231
03/11/2014  06:52:00       17.450       92.861      -11.657       15.220       17.484       10.808      231.640      305.696      116.806        0.486        0.033       94.486        8.732        0.009      331.853        0.136      868.222
03/11/2014  06:53:00       20.470       59.573       -8.239       13.505       21.655       11.362      182.381      468.939      129.086        0.241        0.039       62.992        8.154        0.017      331.783        0.020      868.216
03/11/2014  06:54:00       20.873       80.750       -5.655       13.828       23.516       12.343      191.202      552.991      152.353        0.394        0.045       83.404       10.741        0.017      331.840        0.115      868.222
03/11/2014  06:55:00       23.625       52.516       -5.523       15.800       24.650       15.922      249.639      607.633      253.514        0.223        0.056       57.585       13.302        0.053      331.837        0.109      868.245
03/11/2014  06:56:00       36.747       32.974       -0.894       25.592       15.167       10.797      654.940      230.045      116.567        0.172        0.050       49.372       10.592        0.046      331.777        0.011      868.252
03/11/2014  06:57:00       70.449       40.211       -0.618       17.518       13.938       17.343      306.887      194.278      300.782        0.369        0.040       81.117        8.320        0.011      331.639       -0.215      868.240
03/11/2014  06:58:00       51.449       33.916        6.857       17.552       15.104       14.807      308.079      228.134      219.246        0.230        0.038       61.622       12.563        0.042      331.608       -0.267      868.213
03/11/2014  06:59:00       49.090       28.167       10.307       15.613       15.716       12.892      243.758      247.008      166.216        0.198        0.033       56.597        9.625        0.029      331.699       -0.118      868.195
03/11/2014  07:00:00       49.436       39.994       10.489       10.617        9.224        8.784      112.713       85.090       77.150        0.221        0.014       63.588        5.123        0.006      331.715       -0.090      868.191
03/11/2014  07:01:00       60.599       43.332       10.134       15.469       11.884       11.327      239.282      141.225      128.291        0.308        0.025       74.498        5.844        0.006      331.762       -0.016      868.196
03/11/2014  07:02:00       67.667       36.581        3.943       11.557       15.980       11.089      133.557      255.357      122.960        0.322        0.026       76.922        5.430        0.005      331.751       -0.031      868.221
03/11/2014  07:03:00       66.196       44.229        9.317       11.064        9.558        8.715      122.411       91.359       75.943        0.336        0.014       79.613        2.885        0.001      331.762       -0.015      868.255
03/11/2014  07:04:00       37.511       31.677        1.486       16.339       12.179       12.084      266.952      148.337      146.013        0.149        0.028       49.097        4.656        0.009      331.716       -0.090      868.274
03/11/2014  07:05:00       25.509       41.864       -7.281       17.312       13.732        9.853      299.705      188.567       97.086        0.152        0.029       49.023        7.235        0.022      331.766       -0.007      868.252
03/11/2014  07:06:00        7.762       61.505       -6.959        8.850       10.783        5.701       78.315      116.278       32.497        0.206        0.011       61.992        3.553        0.003      331.804        0.053      868.221
03/11/2014  07:07:00       17.652       42.721       -2.944       11.250       13.941        7.985      126.558      194.361       63.767        0.126        0.019       46.224        8.320        0.032      331.825        0.088      868.198
03/11/2014  07:08:00       21.244       54.678       -8.234       11.113       10.163        6.772      123.499      103.284       45.866        0.189        0.014       58.660        4.300        0.005      331.832        0.099      868.194
03/11/2014  07:09:00       14.500       66.371       -9.253        9.523       12.422        5.421       90.689      154.294       29.388        0.249        0.014       67.937        2.993        0.002      331.839        0.113      868.203
03/11/2014  07:10:00       37.342       55.250       -1.820       15.887       23.284       13.144      252.398      542.135      172.765        0.271        0.048       66.685       13.006        0.038      331.746       -0.040      868.216
03/11/2014  07:11:00       60.849       48.925       10.161       25.727       16.439       14.879      661.875      270.251      221.389        0.368        0.058       78.078        7.760        0.010      331.738       -0.053      868.246
03/11/2014  07:12:00       79.948       57.896        8.585       22.528       16.359       14.791      507.511      267.605      218.761        0.541        0.050       98.710        7.637        0.006      331.783        0.019      868.283
03/11/2014  07:13:00       71.758       40.042        1.629       16.254       11.989       12.337      264.195      143.732      152.192        0.366        0.028       82.174        7.105        0.007      331.806        0.057      868.295
03/11/2014  07:14:00       45.036       16.098       -1.417       11.894        8.579       10.071      141.476       73.596      101.432        0.130        0.016       47.826        6.853        0.021      331.755       -0.025      868.283
03/11/2014  07:15:00       28.716       18.354       -1.241       13.992       13.923        8.583      195.785      193.854       73.675        0.081        0.023       34.080        7.918        0.054      331.761       -0.016      868.260
03/11/2014  07:16:00       20.734       19.330       -2.604        9.875        9.337        9.239       97.512       87.188       85.366        0.054        0.014       28.346        7.031        0.062      331.740       -0.049      868.238
03/11/2014  07:17:00       31.721       23.876        2.252       12.085       10.900        7.393      146.057      118.807       54.650        0.095        0.016       39.702        5.908        0.022      331.783        0.020      868.240
03/11/2014  07:18:00       51.902       37.245        4.041       10.515        9.496        8.047      110.556       90.170       64.757        0.218        0.013       63.883        5.754        0.008      331.760       -0.019      868.267
03/11/2014  07:19:00       54.684       20.969        3.443        9.915       12.305        8.443       98.301      151.422       71.277        0.188        0.016       58.567        2.163        0.001      331.753       -0.031      868.267
03/11/2014  07:20:00       24.034       13.481        1.080       20.398       10.951       11.504      416.071      119.915      132.337        0.071        0.033       27.557        8.322        0.091      331.807        0.059      868.231
03/11/2014  07:21:00        0.925       19.616       19.851        8.564       10.441        7.852       73.342      109.023       61.646        0.051        0.012       19.638        2.780        0.020      331.777        0.011      868.190
03/11/2014  07:22:00       14.009       14.236       11.078       11.775        5.847       13.515      138.640       34.185      182.660        0.044        0.018       19.973        9.204        0.212      331.786        0.027      868.183
03/11/2014  07:23:00       22.471       27.395       -0.204       12.347        9.150        9.767      152.453       83.726       95.402        0.079        0.017       35.432        6.807        0.037      331.830        0.096      868.203
03/11/2014  07:24:00       36.157       31.419        3.276       13.857       11.827        9.186      192.011      139.879       84.390        0.136        0.021       47.901        6.590        0.019      331.834        0.104      868.244
03/11/2014  07:25:00       38.139       29.398        1.531       12.462       10.735        9.498      155.310      115.243       90.214        0.134        0.018       48.154        8.697        0.033      331.852        0.134      868.274
03/11/2014  07:26:00       37.186       27.391       -0.521       13.354       14.274       10.252      178.324      203.747      105.098        0.131        0.024       46.185       10.393        0.051      331.837        0.109      868.307
03/11/2014  07:27:00       38.662       34.921        0.458       17.406       18.805       11.902      302.967      353.633      141.653        0.176        0.040       52.098        8.081        0.024      331.788        0.030      868.349
03/11/2014  07:28:00       39.164       45.203        1.999       22.721       22.699       18.252      516.259      515.237      333.125        0.247        0.068       59.809       16.520        0.076      331.735       -0.058      868.380
03/11/2014  07:29:00       40.117       47.656       -4.117       16.471       20.382       13.796      271.287      415.442      190.343        0.239        0.044       62.293       11.044        0.031      331.749       -0.034      868.402
03/11/2014  07:30:00       28.883       62.862       -4.124       15.004       20.780       15.187      225.130      431.814      230.630        0.285        0.044       69.180       14.003        0.041      331.717       -0.088      868.423
03/11/2014  07:31:00       35.683       83.148      -11.708       14.042       20.923       11.167      197.185      437.765      124.691        0.454        0.038       90.481       12.709        0.020      331.778        0.012      868.442
03/11/2014  07:32:00       29.630       73.959       -7.425       14.270       20.800       11.529      203.634      432.627      132.920        0.359        0.038       79.673       10.465        0.017      331.751       -0.032      868.467
03/11/2014  07:33:00       35.797       68.014      -10.903       19.908       21.923       13.476      396.322      480.629      181.602        0.354        0.053       76.859        8.807        0.013      331.716       -0.090      868.486
03/11/2014  07:34:00       24.916       38.576       -5.477       20.202       33.270       14.915      408.139     1106.882      222.472        0.194        0.087       45.923       16.321        0.126      331.682       -0.146      868.496
03/11/2014  07:35:00       27.290       55.229       -8.219       18.458       23.782       14.025      340.715      565.561      196.702        0.248        0.055       61.604       14.762        0.057      331.727       -0.071      868.484
03/11/2014  07:36:00       12.761       20.630       -3.086       16.485       17.700        8.014      271.757      313.289       64.226        0.062        0.032       24.258        6.782        0.078      331.766       -0.009      868.467
03/11/2014  07:37:00        2.827       70.170       -9.803        6.538        9.398        5.815       42.747       88.317       33.813        0.260        0.008       70.227        1.799        0.001      331.851        0.134      868.451
03/11/2014  07:38:00       12.820       73.535      -10.654       10.045       11.006        5.409      100.900      121.125       29.262        0.297        0.013       74.644        4.175        0.003      331.878        0.177      868.444
03/11/2014  07:39:00       29.586       53.965       -9.561       11.879       27.515       14.113      141.118      757.097      199.189        0.249        0.055       61.543       13.676        0.049      331.877        0.175      868.444
03/11/2014  07:40:00       23.836       29.952       -0.741       13.844       16.514       12.249      191.664      272.706      150.028        0.104        0.031       38.279       10.721        0.078      331.855        0.140      868.445
03/11/2014  07:41:00       24.992       27.108       -0.390        9.808       15.963        9.484       96.191      254.828       89.940        0.090        0.022       36.871        8.283        0.050      331.934        0.270      868.441
03/11/2014  07:42:00       20.922       20.738       -1.992       13.091        9.590        9.558      171.378       91.975       91.348        0.061        0.018       29.458        7.112        0.058      331.948        0.293      868.431
03/11/2014  07:43:00       32.839       23.864       -0.236       16.267       13.396        8.387      264.622      179.461       70.341        0.108        0.026       40.594        6.683        0.027      331.981        0.348      868.418
03/11/2014  07:44:00       44.945       28.338        3.559       14.649       10.047       13.766      214.593      100.939      189.500        0.167        0.025       53.133        7.032        0.018      332.022        0.416      868.400
03/11/2014  07:45:00       48.715       39.751        3.897       15.302       11.687       12.060      234.145      136.591      145.443        0.224        0.026       62.875        7.566        0.014      332.063        0.484      868.382
03/11/2014  07:46:00       42.230       41.905       12.839       15.147       10.040       13.251      229.426      100.798      175.599        0.210        0.025       59.493        9.079        0.023      332.088        0.524      868.385
03/11/2014  07:47:00       37.092       36.016       21.958       11.316        8.114        8.851      128.060       65.841       78.336        0.171        0.014       51.701        5.892        0.013      332.085        0.519      868.415
03/11/2014  07:48:00       30.801       34.020       23.335       12.097       13.058        9.758      146.345      170.517       95.210        0.153        0.021       45.892        3.568        0.006      332.121        0.578      868.459
03/11/2014  07:49:00       53.476       38.444       12.694       11.677       11.157       14.160      136.362      124.475      200.514        0.248        0.023       65.861        6.784        0.011      332.107        0.555      868.491
03/11/2014  07:50:00       76.878       43.609        4.380       13.176        9.403       10.869      173.606       88.410      118.142        0.411        0.019       88.385        5.903        0.004      332.026        0.421      868.522
03/11/2014  07:51:00       63.089       41.746       -0.167       14.958        7.808       12.903      223.755       60.964      166.491        0.309        0.023       75.650        5.216        0.005      332.059        0.477      868.554
03/11/2014  07:52:00       57.717       31.737       -2.135       17.157       15.643       13.558      294.371      244.704      183.809        0.253        0.036       65.868        3.880        0.003      332.113        0.566      868.586
03/11/2014  07:53:00       52.791       31.315        0.779       28.171       15.616       17.653      793.599      243.866      311.615        0.256        0.067       61.380       12.891        0.044      332.156        0.635      868.599
03/11/2014  07:54:00       57.066       26.382        9.222       20.302       17.473       17.773      412.158      305.307      315.884        0.254        0.052       62.869       11.546        0.034      332.083        0.516      868.612
03/11/2014  07:55:00       49.158       17.453        2.554       20.114       18.693       16.157      404.590      349.439      261.057        0.187        0.051       52.165        8.478        0.026      332.111        0.562      868.605
03/11/2014  07:56:00       53.908       25.291        0.987       24.118       11.556       15.451      581.673      133.538      238.739        0.225        0.048       59.546        8.925        0.022      332.034        0.433      868.575
03/11/2014  07:57:00       70.081       26.762        1.559       17.416       15.455       18.270      303.318      238.854      333.778        0.325        0.044       75.017       11.014        0.022      332.030        0.427      868.582
03/11/2014  07:58:00       62.034       30.048        8.672       23.133       20.912       21.788      535.123      437.294      474.732        0.314        0.072       68.929       15.042        0.048      332.094        0.532      868.591
03/11/2014  07:59:00       78.848       44.091        3.275       20.588       14.895       15.553      423.865      221.871      241.911        0.453        0.044       90.339       11.028        0.015      331.999        0.375      868.616
03/11/2014  08:00:00       78.083       48.662       -1.968       18.567       15.387       17.170      344.726      236.761      294.810        0.467        0.044       92.005       11.368        0.015      331.977        0.339      868.639
03/11/2014  08:01:00       78.669       48.283       -2.888       21.482       17.125       15.731      461.476      293.250      247.471        0.477        0.050       92.304        9.461        0.011      332.001        0.380      868.647
03/11/2014  08:02:00       80.026       40.010       -5.706       26.443       18.957       14.625      699.241      359.355      213.890        0.465        0.064       89.470       10.128        0.013      331.988        0.358      868.656
03/11/2014  08:03:00       56.084       40.723      -15.767       11.598       17.865       10.963      134.511      319.162      120.197        0.281        0.029       69.309        7.171        0.011      332.041        0.446      868.652
03/11/2014  08:04:00       57.517       27.903       -5.337       10.365       13.600       12.026      107.428      184.961      144.626        0.228        0.022       63.928        7.223        0.013      332.066        0.486      868.652
03/11/2014  08:05:00       45.675       29.225        0.170       11.395       20.980       19.381      129.839      440.169      375.634        0.194        0.047       54.224       15.030        0.077      332.155        0.635      868.660
03/11/2014  08:06:00       13.012       53.280       44.153       26.343       20.342       21.482      693.963      413.778      461.461        0.326        0.078       54.846        5.922        0.012      332.365        0.980      868.666
03/11/2014  08:07:00       18.896       63.623       51.365       24.905       20.394       21.948      620.262      415.898      481.720        0.428        0.076       66.370       14.480        0.048      332.321        0.906      868.686
03/11/2014  08:08:00       59.478       62.289       47.121       38.400       28.290       28.679     1474.587      800.298      822.492        0.637        0.155       86.126       23.440        0.074      332.235        0.765      868.708
03/11/2014  08:09:00       70.643       52.352        3.995       31.993       29.897       28.649     1023.582      893.821      820.765        0.524        0.137       87.927       21.527        0.060      332.199        0.706      868.739
03/11/2014  08:10:00       32.256       54.239       34.330       32.460       22.264       24.127     1053.638      495.669      582.100        0.365        0.107       63.106       23.274        0.136      332.382        1.008      868.761
03/11/2014  08:11:00       77.702       51.116       18.434       26.707       25.311       24.911      713.244      640.652      620.574        0.548        0.099       93.008       18.160        0.038      332.266        0.818      868.772
03/11/2014  08:12:00       69.945       33.659       12.083       33.954       27.130       27.110     1152.878      736.020      734.970        0.440        0.131       77.622       16.840        0.047      332.284        0.845      868.786
03/11/2014  08:13:00       72.421       54.806        3.333       14.613       13.505       15.185      213.543      182.385      230.586        0.444        0.031       90.821       10.767        0.014      332.125        0.586      868.802
03/11/2014  08:14:00       76.211       58.417        3.513       17.313       19.729       21.501      299.735      389.233      462.302        0.519        0.058       96.024        5.947        0.004      332.170        0.659      868.794
03/11/2014  08:15:00       70.611       67.558       33.764       22.976       19.320       25.190      527.885      373.256      634.531        0.611        0.077       97.724       11.843        0.015      332.265        0.817      868.802
03/11/2014  08:16:00       26.286       57.576       76.788       37.357       43.709       28.327     1395.512     1910.470      802.418        0.700        0.205       63.293       25.652        0.164      332.300        0.874      868.829
03/11/2014  08:17:00      122.248       95.770       50.562       30.897       20.104       29.127      954.655      404.171      848.387        1.444        0.110      155.295       15.239        0.010      332.072        0.497      868.868
03/11/2014  08:18:00      106.704       64.250       30.698       27.167       21.831       33.062      738.038      476.575     1093.103        0.938        0.115      124.554       18.640        0.022      332.171        0.661      868.923
03/11/2014  08:19:00       56.555       62.902       56.452       45.512       34.910       37.422     2071.386     1218.707     1400.389        0.752        0.235       84.588       33.333        0.155      332.334        0.930      868.969
03/11/2014  08:20:00       29.065       43.733       43.269       38.438       36.770       34.916     1477.473     1352.005     1219.104        0.434        0.202       52.510       19.176        0.133      332.471        1.155      868.995
03/11/2014  08:21:00       75.127       52.574       24.577       32.363       22.401       30.062     1047.363      501.805      903.745        0.573        0.123       91.696       20.383        0.049      332.342        0.942      868.983
03/11/2014  08:22:00       47.614        2.430       22.486       28.011       24.757       21.241      784.601      612.923      451.175        0.231        0.092       47.676       19.042        0.160      332.493        1.190      868.964
03/11/2014  08:23:00       12.984       -5.949       10.444       44.302       26.318       18.351     1962.694      692.612      336.774        0.165        0.150       14.282       10.809        0.573      332.592        1.355      868.936
03/11/2014  08:24:00       -7.072       -5.949       16.281       29.929       28.955       14.788      895.748      838.400      218.684        0.115        0.098        9.241       17.628        3.639      332.627        1.412      868.926
03/11/2014  08:25:00       17.361       15.890       40.951       24.988       19.698       15.195      624.389      388.016      230.876        0.174        0.062       23.535       14.044        0.356      332.659        1.466      868.936
03/11/2014  08:26:00       64.428       46.919        9.740       28.547       31.195       25.557      814.956      973.115      653.170        0.444        0.122       79.701       17.559        0.049      332.659        1.465      868.961
03/11/2014  08:27:00       30.370       62.514       57.193       35.519       25.364       32.324     1261.587      643.317     1044.833        0.552        0.147       69.501       30.578        0.194      332.682        1.503      868.980
03/11/2014  08:28:00       33.040       47.728       51.904       40.383       37.945       32.316     1630.774     1439.854     1044.297        0.509        0.206       58.049       30.495        0.276      332.608        1.382      869.011
03/11/2014  08:29:00        9.783       40.390       46.185       33.860       25.650       24.538     1146.466      657.900      602.131        0.313        0.120       41.558       17.916        0.186      332.697        1.529      869.030
03/11/2014  08:30:00       38.084       65.684       65.620       30.914       23.163       19.707      955.656      536.515      388.377        0.598        0.094       75.926       16.253        0.046      332.651        1.452      869.061
03/11/2014  08:31:00       48.301       66.526       44.916       40.409       42.704       50.368     1632.850     1823.644     2536.980        0.738        0.300       82.212       39.577        0.232      332.638        1.429      869.094
03/11/2014  08:32:00       88.550      100.487       85.914       44.927       46.707       43.291     2018.433     2181.506     1874.086        1.570        0.304      133.936       33.345        0.062      332.513        1.224      869.113
03/11/2014  08:33:00       71.855       60.231       68.530       63.612       48.722       54.857     4046.434     2373.871     3009.253        1.146        0.471       93.760       44.988        0.230      332.638        1.429      869.114
03/11/2014  08:34:00       49.467      110.919      100.656       51.223       48.065       43.309     2623.790     2310.247     1875.671        1.584        0.340      121.449       42.875        0.125      332.647        1.445      869.135
03/11/2014  08:35:00       88.070       95.974       99.629       55.124       58.390       42.613     3038.617     3409.399     1815.898        1.758        0.413      130.259       41.874        0.103      332.571        1.318      869.166
03/11/2014  08:36:00      130.333       82.272       54.347       43.195       43.229       38.236     1865.786     1868.727     1462.007        1.595        0.260      154.128       23.931        0.024      332.598        1.364      869.200
03/11/2014  08:37:00      147.774       99.291       50.193       53.545       49.766       44.595     2867.098     2476.627     1988.685        2.077        0.367      178.034       30.725        0.030      332.560        1.300      869.201
03/11/2014  08:38:00      125.985       95.376       16.364       49.608       38.612       31.907     2460.924     1490.853     1018.046        1.510        0.248      158.015       22.142        0.020      332.539        1.267      869.173
03/11/2014  08:39:00       66.927       34.339       45.372       41.690       47.351       32.419     1738.081     2242.086     1050.980        0.637        0.252       75.222       31.937        0.180      332.669        1.482      869.166
03/11/2014  08:40:00       40.067       28.251       50.903       50.513       37.278       33.777     2551.544     1389.632     1140.862        0.504        0.254       49.026       35.011        0.510      332.809        1.714      869.173
03/11/2014  08:41:00       74.833       47.251       54.397       67.152       43.219       49.027     4509.354     1867.895     2403.686        0.978        0.439       88.502       39.847        0.203      332.729        1.581      869.188
03/11/2014  08:42:00       51.520      -23.790       25.556       71.468       44.602       29.936     5107.622     1989.294      896.146        0.593        0.400       56.747       33.141        0.341      332.891        1.849      869.182
03/11/2014  08:43:00       30.789       -1.346       46.939       49.316       72.937       37.316     2432.069     5319.805     1392.488        0.615        0.457       30.818       43.395        1.983      332.968        1.977      869.183
03/11/2014  08:44:00       43.753      -51.797       22.277       45.917       67.085       37.625     2108.348     4500.396     1415.671        0.656        0.401       67.803       29.117        0.184      332.983        2.000      869.199
03/11/2014  08:45:00       20.435       19.280       56.297       32.114       55.005       27.790     1031.301     3025.587      772.261        0.439        0.241       28.095       32.519        1.340      333.039        2.093      869.216
03/11/2014  08:46:00       20.936        2.191       53.546       28.204       38.897       28.563      795.471     1512.940      815.860        0.322        0.156       21.051       26.178        1.546      333.165        2.301      869.231
03/11/2014  08:47:00       54.489       58.749       71.598       53.786       50.735       35.796     2892.937     2574.005     1281.345        0.915        0.337       80.128       29.652        0.137      332.950        1.946      869.246
03/11/2014  08:48:00       69.610       84.514       68.862       43.397       35.513       37.488     1883.296     1261.185     1405.383        1.064        0.227      109.490       22.711        0.043      332.827        1.744      869.275
03/11/2014  08:49:00       91.038       41.436       51.986       58.752       46.116       38.888     3451.820     2126.683     1512.306        0.990        0.355      100.024       39.148        0.153      332.861        1.800      869.308
03/11/2014  08:50:00       40.733       49.965       46.874       54.406       56.245       46.680     2959.967     3163.510     2179.016        0.733        0.415       64.465       51.647        0.642      332.921        1.899      869.339
03/11/2014  08:51:00        4.411       49.147       36.773       30.162       36.907       34.038      909.738     1362.114     1158.595        0.361        0.172       49.344       26.619        0.291      333.016        2.054      869.357
03/11/2014  08:52:00       39.571       61.492       -1.545       28.372       33.452       19.559      804.962     1119.065      382.559        0.383        0.115       73.124       18.879        0.067      332.969        1.978      869.367
03/11/2014  08:53:00       33.276       10.553       14.126       24.304       41.214       25.498      590.665     1698.591      650.139        0.218        0.147       34.910       24.446        0.490      333.181        2.328      869.378
03/11/2014  08:54:00       65.736       47.580       21.574       53.228       43.201       29.670     2833.234     1866.359      880.299        0.631        0.279       81.149       24.655        0.092      333.230        2.407      869.397
03/11/2014  08:55:00       96.181       52.132       12.087       45.108       43.582       30.385     2034.697     1899.421      923.270        0.849        0.243      109.401        6.776        0.004      333.161        2.296      869.422
03/11/2014  08:56:00       84.550       88.579        0.403       68.583       64.807       53.101     4703.591     4199.897     2819.741        1.336        0.586      122.453       41.789        0.116      333.053        2.117      869.427
03/11/2014  08:57:00      125.651       88.090        5.647       61.433       37.523       36.177     3774.000     1407.962     1308.759        1.503        0.325      153.454       25.481        0.028      332.981        1.996      869.430
03/11/2014  08:58:00       88.679       57.690       17.346       45.808       35.775       33.191     2098.392     1279.820     1101.667        0.799        0.224      105.793       20.917        0.039      333.068        2.142      869.424
03/11/2014  08:59:00      117.305      100.325        4.043       50.308       33.306       42.082     2530.851     1109.295     1770.872        1.463        0.271      154.355       23.371        0.023      332.998        2.025      869.428
03/11/2014  09:00:00      106.864       69.594       -2.369       48.602       39.941       31.226     2362.111     1595.252      975.058        1.060        0.247      127.527       22.393        0.031      332.987        2.009      869.451
03/11/2014  09:01:00       55.213       59.018       -6.263       51.181       41.616       28.318     2619.464     1731.862      801.912        0.586        0.258       80.818       22.278        0.076      333.051        2.112      869.476
03/11/2014  09:02:00       27.521       88.361       -1.282       28.190       54.025       31.852      794.674     2918.706     1014.562        0.665        0.236       92.548       29.024        0.098      333.069        2.142      869.477
03/11/2014  09:03:00       37.388       49.308       26.769       34.330       52.751       56.833     1178.526     2782.672     3229.938        0.587        0.360       61.881       45.341        0.537      333.243        2.432      869.456
03/11/2014  09:04:00      103.100       67.584       36.201       45.063       30.400       25.577     2030.655      924.143      654.173        1.006        0.180      123.277       14.939        0.015      333.115        2.218      869.454
03/11/2014  09:05:00       61.847       46.857        3.147       51.807       42.346       27.816     2683.991     1793.146      773.713        0.564        0.263       77.593       11.332        0.021      333.171        2.312      869.466
03/11/2014  09:06:00       28.763       43.868        4.315       38.001       36.118       32.146     1444.052     1304.536     1033.344        0.328        0.189       52.457       23.308        0.197      333.130        2.244      869.496
03/11/2014  09:07:00       38.029       49.633       -0.120       23.456       32.208       23.455      550.194     1037.369      550.145        0.302        0.107       62.527       19.848        0.101      333.144        2.265      869.505
03/11/2014  09:08:00       10.640       89.046       -5.400       30.528       38.099       25.069      931.939     1451.539      628.458        0.554        0.151       89.679       19.121        0.045      333.210        2.375      869.514
03/11/2014  09:09:00       64.841       59.093        7.079       40.076       36.958       32.311     1606.068     1365.878     1043.991        0.588        0.201       87.729       26.827        0.094      333.278        2.488      869.543
03/11/2014  09:10:00       49.784      102.430       -4.838       44.053       60.406       34.796     1940.679     3648.884     1210.790        0.990        0.340      113.887       24.582        0.047      333.153        2.282      869.585
03/11/2014  09:11:00       81.304      176.392      -26.440       56.416       62.195       47.919     3182.800     3868.215     2296.250        2.388        0.467      194.227       35.536        0.033      333.063        2.133      869.629
03/11/2014  09:12:00       92.437       61.578       -3.407       43.769       41.589       33.075     1915.690     1729.632     1093.939        0.854        0.237      111.070       19.802        0.032      333.198        2.355      869.666
03/11/2014  09:13:00       46.115       88.450       -0.504       39.585       47.670       33.235     1566.944     2272.455     1104.598        0.745        0.247       99.750       27.930        0.078      333.261        2.461      869.668
03/11/2014  09:14:00       20.286       89.462       88.600       39.297       48.150       53.897     1544.286     2318.375     2904.848        1.151        0.338       91.733       38.639        0.177      333.277        2.486      869.675
03/11/2014  09:15:00       71.417      105.895       96.730       54.817       51.704       40.917     3004.951     2673.306     1674.219        1.651        0.368      127.727       36.863        0.083      333.119        2.226      869.698
03/11/2014  09:16:00      105.273       87.372      102.272       74.482       64.677       53.037     5547.594     4183.144     2812.873        2.086        0.627      136.808       52.949        0.150      333.205        2.366      869.734
03/11/2014  09:17:00       48.672       81.335      103.833       78.345       74.770       63.658     6137.937     5590.575     4052.308        1.777        0.789       94.786       59.789        0.398      333.237        2.420      869.747
03/11/2014  09:18:00      105.706       68.394       58.563       69.166       54.589       59.089     4783.872     2979.909     3491.512        1.527        0.563      125.903       53.458        0.180      333.157        2.287      869.720
03/11/2014  09:19:00      118.070       83.461       56.368       59.442       55.885       54.991     3533.342     3123.099     3023.985        1.688        0.484      144.590       42.317        0.086      333.182        2.328      869.695
03/11/2014  09:20:00       77.198       73.076       49.854       43.934       36.333       33.027     1930.157     1320.079     1090.810        0.906        0.217      106.299       18.870        0.032      333.070        2.144      869.735
03/11/2014  09:21:00       77.422       68.706       17.325       29.034       20.963       34.326      842.956      439.465     1178.257        0.674        0.123      103.512       12.484        0.015      333.117        2.222      869.789
03/11/2014  09:22:00       80.083       50.459       11.005       35.373       32.037       29.188     1251.237     1026.397      851.912        0.610        0.156       94.654       22.728        0.058      333.207        2.370      869.809
03/11/2014  09:23:00      114.181       78.444       28.577       44.677       49.642       43.691     1996.025     2464.285     1908.899        1.319        0.318      138.531       21.640        0.024      333.432        2.743      869.800
03/11/2014  09:24:00       42.489       66.147       70.431       56.224       52.010       35.467     3161.114     2705.087     1257.899        0.913        0.356       78.618       21.200        0.073      333.333        2.580      869.787
03/11/2014  09:25:00       79.293       48.318       76.665       82.339       46.428       49.665     6779.781     2155.586     2466.599        1.295        0.570       92.855       44.526        0.230      333.327        2.568      869.765
03/11/2014  09:26:00      103.515       46.963       44.249       64.384       60.074       42.322     4145.256     3608.859     1791.166        1.221        0.477      113.670       35.631        0.098      333.212        2.379      869.768
03/11/2014  09:27:00      142.313       83.296       25.166       61.840       58.248       42.216     3824.144     3392.825     1782.169        1.841        0.450      164.898       20.835        0.016      333.256        2.451      869.782
03/11/2014  09:28:00       64.052       55.576       26.082       50.371       36.897       45.861     2537.264     1361.388     2103.191        0.694        0.300       84.802       30.743        0.131      333.388        2.670      869.807
03/11/2014  09:29:00       43.791       36.507       38.982       45.052       39.998       30.385     2029.712     1599.816      923.239        0.466        0.228       57.012       22.423        0.155      333.559        2.954      869.809
03/11/2014  09:30:00       96.150       97.808       76.077       81.774       58.001       42.425     6686.935     3364.164     1799.856        1.822        0.593      137.154       37.601        0.075      333.589        3.000      869.811
03/11/2014  09:31:00      166.552       91.805       36.861       90.208       68.359       60.581     8137.458     4672.906     3670.054        2.700        0.824      190.178       52.347        0.076      333.342        2.590      869.849
03/11/2014  09:32:00      163.097      124.942       29.425       69.324       47.355       49.248     4805.803     2242.494     2425.319        2.627        0.474      205.453       43.491        0.045      333.144        2.264      869.880
03/11/2014  09:33:00      151.132       92.429       43.812       47.551       41.181       43.416     2261.144     1695.897     1884.913        1.957        0.292      177.155       34.465        0.038      333.121        2.227      869.878
03/11/2014  09:34:00      125.256       74.328       26.038       47.319       38.334       48.080     2239.063     1469.508     2311.669        1.395        0.301      145.649       27.655        0.036      333.178        2.322      869.865
03/11/2014  09:35:00       66.596       18.496       21.302       41.050       51.679       27.636     1685.133     2670.746      763.745        0.517        0.256       69.117       23.606        0.117      333.204        2.366      869.852
03/11/2014  09:36:00       72.923       51.516       44.722       32.260       61.197       40.478     1040.724     3745.038     1638.508        0.820        0.321       89.284        8.156        0.008      333.280        2.489      869.845
03/11/2014  09:37:00       91.863       68.912       23.874       39.746       24.454       23.034     1579.732      598.015      530.564        0.823        0.135      114.838       15.053        0.017      333.257        2.453      869.837
03/11/2014  09:38:00       48.621       46.713       30.682       70.411       48.728       35.529     4957.752     2374.388     1262.317        0.704        0.430       67.425       21.590        0.103      333.470        2.806      869.818
03/11/2014  09:39:00        3.518        3.386       26.182       34.931       21.299       23.785     1220.157      453.636      565.706        0.147        0.112        4.883        8.016        2.695      333.801        3.353      869.811
03/11/2014  09:40:00       47.153       41.648       20.431       43.735       40.508       32.017     1912.793     1640.937     1025.104        0.448        0.229       62.913       19.438        0.095      333.597        3.015      869.823
03/11/2014  09:41:00      150.174      107.702       57.780       61.155       35.467       50.520     3739.916     1257.941     2552.313        2.252        0.378      184.803       24.995        0.018      333.372        2.640      869.845
03/11/2014  09:42:00      102.515       61.399       57.831       62.553       52.533       49.486     3912.890     2759.687     2448.872        1.337        0.456      119.495       41.897        0.123      333.366        2.633      869.828
03/11/2014  09:43:00       29.481       37.525       68.246       55.556       45.903       41.161     3086.519     2107.128     1694.264        0.691        0.344       47.720       44.999        0.889      333.491        2.840      869.807
03/11/2014  09:44:00      116.724       71.990        3.474       65.484       49.080       38.585     4288.181     2408.877     1488.778        1.350        0.409      137.139       30.416        0.049      333.345        2.598      869.818
03/11/2014  09:45:00       40.216       86.153       77.917       60.276       57.047       58.076     3633.151     3254.353     3372.826        1.268        0.513       95.077       35.257        0.138      333.524        2.895      869.841
03/11/2014  09:46:00       18.625       32.797       39.927       45.965       45.525       31.501     2112.814     2072.482      992.324        0.410        0.259       37.716       14.121        0.140      333.636        3.081      869.856
03/11/2014  09:47:00       55.652       58.901       15.836       30.639       28.692       25.213      938.772      823.231      635.689        0.461        0.120       81.034       13.946        0.030      333.444        2.762      869.858
03/11/2014  09:48:00       76.694       57.233       -2.127       40.130       28.464       25.065     1610.449      810.179      628.262        0.610        0.152       95.695       16.502        0.030      333.347        2.603      869.838
03/11/2014  09:49:00       36.015       68.626       20.917       46.195       30.265       47.258     2133.977      915.995     2233.354        0.586        0.264       77.502       31.007        0.160      333.459        2.788      869.826
03/11/2014  09:50:00       91.076       69.562       66.043       50.275       49.405       44.342     2527.613     2440.853     1966.248        1.221        0.347      114.603       42.268        0.136      333.427        2.736      869.839
03/11/2014  09:51:00       48.277       73.521       80.071       48.748       58.158       50.238     2376.330     3382.331     2523.902        1.121        0.414       87.955       46.907        0.284      333.485        2.830      869.836
03/11/2014  09:52:00       44.453       96.241      113.204       80.642       84.556       54.155     6503.151     7149.733     2932.726        2.032        0.829      106.011       65.884        0.386      333.592        3.006      869.813
03/11/2014  09:53:00       68.065      100.264       97.461       73.191       58.176       41.515     5356.968     3384.447     1723.516        1.732        0.523      121.185       41.083        0.115      333.622        3.056      869.820
03/11/2014  09:54:00       45.863        1.164       42.449       41.052       49.625       33.767     1685.298     2462.661     1140.188        0.460        0.264       45.878       31.732        0.478      333.617        3.048      869.810
03/11/2014  09:55:00      118.944       69.184       42.827       91.407       68.261       47.549     8355.308     4659.536     2260.888        1.802        0.764      137.601       47.215        0.118      333.691        3.170      869.816
03/11/2014  09:56:00       75.470       23.588       55.574       63.235       39.117       36.222     3998.629     1530.135     1312.035        0.809        0.342       79.070       31.081        0.155      333.781        3.320      869.832
03/11/2014  09:57:00       68.576       78.676       50.842       58.170       37.072       50.894     3383.788     1374.329     2590.220        1.041        0.367      104.368       28.736        0.076      333.712        3.206      869.845
03/11/2014  09:58:00       46.253       51.258       62.062       51.170       40.728       40.527     2618.371     1658.746     1642.449        0.727        0.296       69.042       31.539        0.209      333.860        3.452      869.823
03/11/2014  09:59:00       77.815       34.442       55.072       63.940       42.238       44.335     4088.343     1784.075     1965.571        0.905        0.392       85.096       39.193        0.212      333.889        3.500      869.795
03/11/2014  10:00:00       50.087      -68.839       24.233       42.308       72.940       39.134     1789.996     5320.239     1531.442        0.824        0.432       85.133       39.319        0.213      333.893        3.506      869.779
03/11/2014  10:01:00       42.591      -45.465       27.910       59.643       43.918       29.664     3557.253     1928.756      879.957        0.551        0.318       62.298       16.595        0.071      333.942        3.588      869.785
03/11/2014  10:02:00       -4.153       29.397       67.885       25.987       77.330       42.291      675.333     5979.899     1788.514        0.697        0.422       29.689       50.919        2.942      334.144        3.923      869.787
03/11/2014  10:03:00       59.095       82.026       19.096       53.740       42.940       40.032     2887.965     1843.879     1602.527        0.846        0.317      101.097       40.810        0.163      334.012        3.704      869.803
03/11/2014  10:04:00       30.653       64.535        2.980       33.671       45.931       27.224     1133.710     2109.671      741.123        0.455        0.199       71.444       27.018        0.143      334.040        3.749      869.835
03/11/2014  10:05:00       53.326       19.660       54.231       52.474       62.391       35.532     2753.535     3892.646     1262.535        0.704        0.395       56.835       31.514        0.307      334.196        4.008      869.868
03/11/2014  10:06:00      101.769       91.240       76.388       62.447       40.579       44.957     3899.627     1646.645     2021.089        1.604        0.378      136.680       35.625        0.068      333.901        3.520      869.898
03/11/2014  10:07:00      134.256       97.126       61.934       56.081       51.750       52.799     3145.067     2678.102     2787.696        1.995        0.431      165.705       23.523        0.020      333.774        3.307      869.911
03/11/2014  10:08:00       32.767       44.671       23.004       43.384       42.948       44.785     1882.160     1844.544     2005.680        0.466        0.287       55.400       21.407        0.149      334.045        3.758      869.905
03/11/2014  10:09:00       44.608       67.928       19.542       45.019       42.444       49.267     2026.746     1801.475     2427.277        0.662        0.313       81.265       19.936        0.060      333.984        3.657      869.907
03/11/2014  10:10:00       85.404       57.411        3.782       54.323       39.687       32.797     2950.942     1575.042     1075.653        0.810        0.280      102.907       16.043        0.024      333.808        3.366      869.905
03/11/2014  10:11:00       94.172       89.312       49.439       56.412       34.116       52.666     3182.353     1163.931     2773.691        1.320        0.356      129.788       24.856        0.037      333.980        3.650      869.893
03/11/2014  10:12:00      159.608       90.730       18.627       67.162       60.744       47.457     4510.758     3689.880     2252.188        2.225        0.523      183.594       32.240        0.031      333.871        3.467      869.884
03/11/2014  10:13:00      156.499      100.818       25.274       48.152       35.131       35.191     2318.570     1234.205     1238.395        2.004        0.240      186.162       28.993        0.024      333.645        3.094      869.901
03/11/2014  10:14:00      125.700       57.176       36.420       77.021       56.235       50.297     5932.194     3162.334     2529.808        1.601        0.581      138.092       33.751        0.060      333.933        3.571      869.911
03/11/2014  10:15:00       80.907       56.912       45.592       64.640       56.060       53.212     4178.388     3142.763     2831.493        1.101        0.508       98.919       35.534        0.129      334.312        4.200      869.922
03/11/2014  10:16:00      158.769      107.194        9.971       47.421       47.385       36.369     2248.721     2245.362     1322.690        2.131        0.291      191.568       25.140        0.017      334.014        3.705      869.938
03/11/2014  10:17:00      154.595      102.282       26.993       64.892       52.458       52.707     4210.931     2751.802     2778.074        2.241        0.487      185.368       27.761        0.022      334.086        3.824      869.929
03/11/2014  10:18:00      124.897       91.301       18.057      105.719       59.615       53.974    11176.571     3553.980     2913.196        2.095        0.882      154.710       31.021        0.040      334.259        4.112      869.924
03/11/2014  10:19:00       79.262       88.430       26.007       71.284       54.382       62.725     5081.438     2957.440     3934.379        1.337        0.599      118.753       29.103        0.060      334.279        4.145      869.931
03/11/2014  10:20:00      195.496      132.039       19.595       62.810       49.307       53.947     3945.155     2431.179     2910.313        3.266        0.464      235.909       18.491        0.006      333.987        3.658      869.918
03/11/2014  10:21:00      269.103      165.603       51.710       60.030       57.370       46.491     3603.610     3291.339     2161.377        5.578        0.453      315.976       18.272        0.003      333.859        3.446      869.907
03/11/2014  10:22:00      156.081       62.154       23.897       91.236       70.302       63.425     8323.932     4942.326     4022.767        2.304        0.864      168.001       38.956        0.054      334.138        3.910      869.882
03/11/2014  10:23:00       68.163       33.707       71.419       71.853       75.050       51.904     5162.810     5632.506     2694.068        1.218        0.674       76.042       56.254        0.547      334.360        4.281      869.867
03/11/2014  10:24:00       52.060       88.749       67.202       82.218       53.800       57.136     6759.804     2894.423     3264.466        1.401        0.646      102.891       46.938        0.208      334.473        4.469      869.849
03/11/2014  10:25:00       87.040       78.424       69.181       62.527       53.440       45.570     3909.637     2855.878     2076.637        1.368        0.442      117.159       33.071        0.080      334.533        4.569      869.873
03/11/2014  10:26:00       98.500      -15.438       11.538       35.610       60.158       29.093     1268.041     3618.976      846.402        0.790        0.287       99.703       23.275        0.054      333.997        3.678      869.915
03/11/2014  10:27:00      147.457      108.966       62.348       83.535       61.779       63.474     6978.038     3816.610     4028.933        2.616        0.741      183.350       51.826        0.080      334.294        4.171      869.929
03/11/2014  10:28:00      209.876       94.986       50.783       78.184       66.654       61.895     6112.785     4442.730     3831.053        3.501        0.719      230.370       46.601        0.041      334.322        4.214      869.919
03/11/2014  10:29:00       76.614       55.391        7.925       61.027       37.674       30.818     3724.235     1419.329      949.770        0.755        0.305       94.541       19.569        0.043      334.288        4.163      869.893
03/11/2014  10:30:00       70.554       44.539        9.124       40.017       41.131       36.475     1601.374     1691.784     1330.410        0.583        0.231       83.437       15.508        0.035      334.613        4.702      869.867
03/11/2014  10:31:00       57.170       -7.520       27.493       77.491       74.596       55.360     6004.812     5564.560     3064.680        0.935        0.732       57.663       26.593        0.213      335.292        5.829      869.834
03/11/2014  10:32:00       40.124      103.510      100.187       78.037       80.436       72.807     6089.813     6469.946     5300.872        2.011        0.893      111.014       68.406        0.380      335.191        5.661      869.808
03/11/2014  10:33:00      197.810       97.904       63.820      113.004       85.736       77.579    12769.801     7350.706     6018.497        3.946        1.307      220.713       60.482        0.075      334.526        4.553      869.817
03/11/2014  10:34:00      149.208       70.504       39.765      101.370       72.073       64.635    10275.845     5194.471     4177.708        2.423        0.982      165.027       29.709        0.032      334.559        4.610      869.825
03/11/2014  10:35:00      241.944       86.233       50.339      119.509       74.496       66.976    14282.512     5549.608     4485.801        4.641        1.216      256.852       49.954        0.038      334.409        4.359      869.838
03/11/2014  10:36:00      172.395      116.688       45.405       72.268       52.257       60.497     5222.728     2730.758     3659.844        2.850        0.581      208.174       41.323        0.039      334.585        4.651      869.872
03/11/2014  10:37:00      198.081      145.171        1.463       85.353       87.599       60.944     7285.177     7673.552     3714.157        3.949        0.934      245.582       48.856        0.040      334.658        4.771      869.877
03/11/2014  10:38:00      223.661      121.230       27.559       90.818       50.201       46.099     8247.828     2520.106     2125.099        3.918        0.645      254.404       29.770        0.014      334.493        4.498      869.874
03/11/2014  10:39:00      129.751       79.392       12.944       83.252       55.036       42.496     6930.945     3028.974     1805.916        1.753        0.588      152.113       27.294        0.032      334.795        5.001      869.841
03/11/2014  10:40:00      168.811      111.525       86.252      131.558       87.493       84.237    17307.419     7655.100     7095.895        4.021        1.603      202.323       79.084        0.153      334.843        5.081      869.822
03/11/2014  10:41:00      189.922      154.562      129.630       94.909      128.798       84.268     9007.700    16589.010     7101.129        5.472        1.635      244.867       82.383        0.113      334.704        4.849      869.805
03/11/2014  10:42:00      101.000      103.166       79.001       89.253       68.590       47.589     7966.068     4704.594     2264.673        2.101        0.747      144.376       40.318        0.078      334.796        5.004      869.819
03/11/2014  10:43:00       49.235      -90.866       30.332       64.013      102.193       49.053     4097.716    10443.399     2406.237        1.427        0.847      103.347       48.651        0.222      335.151        5.594      869.813
03/11/2014  10:44:00       69.952      -82.600       19.504       72.584       91.761       60.678     5268.376     8420.109     3681.834        1.473        0.869      108.241       59.587        0.303      335.199        5.673      869.811
03/11/2014  10:45:00      169.150      127.592       81.095       98.313       57.674       68.052     9665.508     3326.331     4631.069        3.454        0.881      211.876       58.692        0.077      335.077        5.469      869.828
03/11/2014  10:46:00      166.256       79.875       51.695       68.253       51.700       58.060     4658.531     2672.937     3370.942        2.370        0.535      184.448       28.996        0.025      334.738        4.906      869.803
03/11/2014  10:47:00      156.258       79.315       54.461       98.107       80.712       72.290     9625.073     6514.369     5225.803        2.752        1.068      175.235       47.685        0.074      334.799        5.009      869.775
03/11/2014  10:48:00      115.374       84.579      109.730       92.000       95.680       84.947     8463.993     9154.568     7216.006        2.867        1.242      143.055       79.152        0.306      335.021        5.376      869.800
03/11/2014  10:49:00      139.410      150.564      129.841      140.026      124.241       98.249    19607.313    15435.842     9652.792        5.182        2.235      205.194       83.831        0.167      334.986        5.318      869.819
03/11/2014  10:50:00      186.276      127.234       72.637      108.421      105.210      100.631    11755.064    11069.154    10126.508        4.455        1.648      225.582       79.242        0.123      334.821        5.044      869.848
03/11/2014  10:51:00      147.193       84.284       33.352      104.508       97.017       67.489    10921.846     9412.375     4554.721        2.738        1.244      169.616       23.635        0.019      335.003        5.346      869.837
03/11/2014  10:52:00      297.625      142.572       90.600      170.102      122.693      106.830    28934.691    15053.606    11412.724        8.625        2.770      330.011       90.938        0.076      334.982        5.310      869.848
03/11/2014  10:53:00      180.232      137.428      143.797      107.081      108.776       79.486    11466.296    11832.273     6317.947        5.083        1.481      226.650       73.695        0.106      334.926        5.217      869.840
03/11/2014  10:54:00       71.795       83.920       70.191       92.955       86.641       59.640     8640.572     7506.604     3556.954        1.841        0.985      110.441       51.087        0.214      335.094        5.497      869.825
03/11/2014  10:55:00       -5.141       59.242       75.354       56.380       76.440       61.394     3178.722     5843.082     3769.275        1.100        0.640       59.465       41.141        0.479      335.539        6.240      869.816
03/11/2014  10:56:00      110.804       93.925       92.950       80.104       83.499       69.785     6416.661     6972.009     4870.002        2.400        0.913      145.256       52.159        0.129      334.959        5.275      869.831
03/11/2014  10:57:00      106.723       28.206       76.438       90.991      107.187       62.340     8279.419    11489.153     3886.314        2.084        1.183      110.387       61.542        0.311      334.921        5.210      869.809
03/11/2014  10:58:00       17.798       -0.464       77.371       53.409      129.368       62.575     2852.541    16735.954     3915.638        1.490        1.175       17.804       82.225       21.330      335.292        5.828      869.767
03/11/2014  10:59:00      133.486       -8.193       92.012      100.240      142.284       80.879    10048.034    20244.733     6541.371        3.159        1.842      133.737       98.691        0.545      335.220        5.708      869.774
03/11/2014  11:00:00       74.126       34.309       62.432       68.846      119.461       43.568     4739.735    14270.986     1898.182        1.574        1.045       81.681       45.316        0.308      335.347        5.922      869.791
03/11/2014  11:01:00      133.785       82.369       66.821       93.510       47.815       54.697     8744.031     2286.243     2991.728        2.158        0.701      157.108       52.572        0.112      335.226        5.718      869.812
03/11/2014  11:02:00       97.985      108.063      114.907      133.686      124.328      113.270    17872.007    15457.364    12830.192        4.031        2.308      145.872       92.736        0.404      335.559        6.273      869.816
03/11/2014  11:03:00      226.209      140.195       73.488      180.658      128.206      104.105    32637.152    16436.724    10837.935        6.806        2.996      266.129       94.039        0.125      335.352        5.927      869.832
03/11/2014  11:04:00      223.616      130.108       31.719      121.014      118.983       71.496    14644.281    14156.895     5111.741        5.092        1.696      258.713       47.497        0.034      335.099        5.506      869.846
03/11/2014  11:05:00      214.809       99.730       60.268      116.879       85.122       72.901    13660.811     7245.715     5314.559        4.297        1.311      236.831       61.082        0.067      335.241        5.742      869.824
03/11/2014  11:06:00      209.299      182.409      131.583      161.543      116.530      112.652    26096.262    13579.148    12690.522        7.337        2.618      277.631       82.682        0.089      335.106        5.518      869.806
03/11/2014  11:07:00      147.507      122.477      131.937      107.006      127.313       81.406    11450.262    16208.676     6626.961        4.422        1.714      191.727       75.596        0.155      335.245        5.748      869.807
03/11/2014  11:08:00      262.138      139.099      129.038      148.347      141.459      136.758    22006.696    20010.666    18702.663        8.271        3.036      296.757      109.306        0.136      335.374        5.963      869.804
03/11/2014  11:09:00      281.009      228.805      199.861      198.548      153.942      160.712    39421.235    23698.252    25828.457       13.009        4.447      362.378      126.238        0.121      335.310        5.855      869.794
03/11/2014  11:10:00      222.207      138.668       84.147      137.469      123.415      120.743    18897.730    15231.206    14578.817        6.219        2.435      261.925       88.134        0.113      335.550        6.254      869.837
03/11/2014  11:11:00      181.849      121.762      135.600      194.847      117.859      103.215    37965.194    13890.815    10653.238        6.438        3.125      218.849       95.648        0.191      335.427        6.051      869.780
03/11/2014  11:12:00      120.393      114.265      147.527      133.052      114.467       89.515    17702.750    13102.808     8012.868        4.406        1.941      165.985       74.750        0.203      335.835        6.730      869.778
03/11/2014  11:13:00      172.030      163.333      130.567      181.771      140.598       96.905    33040.746    19767.691     9390.628        6.775        3.110      237.217       87.583        0.136      335.801        6.674      869.808
03/11/2014  11:14:00      243.320      145.219      137.710      131.259      149.323       88.811    17228.822    22297.361     7887.316        7.333        2.371      283.361       83.923        0.088      335.546        6.248      869.875
03/11/2014  11:15:00      322.197      150.992       60.010      156.732       84.886       85.095    24565.016     7205.578     7241.102        8.460        1.951      355.823       80.942        0.052      335.244        5.747      869.898
03/11/2014  11:16:00      178.891      105.109       90.524      131.415       90.267       79.823    17269.988     8148.183     6371.644        4.151        1.589      207.484       68.161        0.108      335.258        5.770      869.884
03/11/2014  11:17:00      192.912      103.122       81.062      142.261      117.809       85.265    20238.319    13878.857     7270.099        4.790        2.069      218.745       65.565        0.090      335.602        6.343      869.843
03/11/2014  11:18:00      238.429      138.798       35.988      118.172      107.151       98.602    13964.627    11481.374     9722.426        5.628        1.758      275.886       42.435        0.024      335.731        6.556      869.846
03/11/2014  11:19:00      343.178      243.575       63.822      136.271      113.648       86.605    18569.719    12915.828     7500.493       11.007        1.949      420.832       56.761        0.018      335.320        5.874      869.825
03/11/2014  11:20:00      248.258      176.170       48.627       90.404       78.604       85.545     8172.837     6178.623     7317.918        5.835        1.083      304.414       20.408        0.004      335.436        6.065      869.801
03/11/2014  11:21:00      236.978      246.173      200.662      166.996      130.578      110.263    27887.703    17050.534    12157.833       10.705        2.855      341.702       83.700        0.060      335.571        6.291      869.759
03/11/2014  11:22:00      186.528      125.548      138.372      167.084      166.638      104.847    27917.027    27768.198    10992.923        6.818        3.334      224.844       99.813        0.197      335.778        6.636      869.775
03/11/2014  11:23:00      297.412      174.831      106.830      141.028      114.680       77.100    19888.886    13151.491     5944.398        8.470        1.949      344.992       58.440        0.029      335.450        6.090      869.832
03/11/2014  11:24:00       94.533       68.267      123.051      125.097      124.075       87.525    15649.174    15394.584     7660.621        3.371        1.935      116.606       80.217        0.473      335.724        6.546      869.819
03/11/2014  11:25:00      190.356      144.950       93.208       95.752       83.617       77.721     9168.540     6991.764     6040.615        4.406        1.110      239.261       53.744        0.050      335.362        5.942      869.817
03/11/2014  11:26:00      153.621      120.388       72.277      111.882       86.106       64.539    12517.578     7414.256     4165.238        3.370        1.205      195.173       26.194        0.018      335.731        6.558      869.811
03/11/2014  11:27:00      194.605      195.970      141.975      123.238       87.533       91.746    15187.608     7661.998     8417.279        6.384        1.563      276.180       57.470        0.043      335.920        6.871      869.820
03/11/2014  11:28:00      237.925      134.299       88.488      175.486      138.119       98.405    30795.201    19076.821     9683.614        7.100        2.978      273.212       87.422        0.102      336.073        7.128      869.817
03/11/2014  11:29:00      209.712      181.591      150.015      161.101      151.236      114.754    25953.548    22872.443    13168.516        8.071        3.100      277.406      101.204        0.133      335.997        7.000      869.842
03/11/2014  11:30:00      182.758      141.451      147.633      170.108      132.031      125.970    28936.642    17432.313    15868.439        6.871        3.112      231.104       99.730        0.186      335.833        6.727      869.834
03/11/2014  11:31:00      194.405      139.851      117.692      116.636       98.654       97.755    13604.070     9732.611     9556.001        5.204        1.645      239.482       86.822        0.131      335.617        6.367      869.839
03/11/2014  11:32:00      138.846       69.350       49.432      119.733       93.804       61.300    14335.994     8799.233     3757.701        2.671        1.345      155.202       45.521        0.086      335.833        6.729      869.824
03/11/2014  11:33:00       77.459      -26.429       95.961      136.643      187.126       93.980    18671.411    35016.031     8832.266        3.920        3.126       81.844      121.805        2.215      336.019        7.038      869.815
03/11/2014  11:34:00      237.371     -236.322        1.235      151.001      160.751      101.307    22801.432    25840.740    10263.104        8.554        2.945      334.953      105.058        0.098      335.853        6.760      869.749
03/11/2014  11:35:00      182.664       28.679      136.928      189.193      255.117      125.207    35793.938    65084.927    15676.904        8.472        5.828      184.902      167.025        0.816      335.939        6.904      869.770
03/11/2014  11:36:00      208.624       32.837      100.422      153.055      179.730      115.523    23425.915    32302.936    13345.535        6.187        3.454      211.193      101.675        0.232      335.895        6.830      869.792
03/11/2014  11:37:00       99.487       66.246      123.290      121.275       98.250       95.815    14707.613     9652.994     9180.568        3.151        1.677      119.525       76.011        0.404      335.962        6.943      869.795
03/11/2014  11:38:00      172.799      -18.058       79.004      150.530      203.383      125.754    22659.173    41364.460    15814.183        5.812        3.992      173.740      123.296        0.504      335.922        6.874      869.759
03/11/2014  11:39:00      167.761      119.418      123.624      150.140      164.426       89.662    22541.892    27035.876     8039.191        5.764        2.881      205.923       98.466        0.229      335.998        7.003      869.783
03/11/2014  11:40:00      177.066      -96.529       15.203       99.473      170.523       63.772     9894.878    29078.001     4066.870        4.196        2.152      201.668       75.982        0.142      335.934        6.896      869.737
03/11/2014  11:41:00       72.272       93.914      146.420      114.835      129.561       80.240    13187.129    16785.954     6438.408        3.594        1.821      118.503       75.314        0.404      336.253        7.427      869.721
03/11/2014  11:42:00      112.248      118.477      154.606      129.615      103.063       80.512    16799.976    10621.950     6482.199        4.222        1.695      163.207       69.878        0.183      336.494        7.830      869.708
03/11/2014  11:43:00       71.464      103.937       91.034      114.353       95.639       80.967    13076.674     9146.786     6555.722        2.648        1.439      126.135       47.973        0.145      336.533        7.896      869.718
03/11/2014  11:44:00       83.922       92.693      137.041      107.526      129.535      102.851    11561.772    16779.375    10578.331        3.666        1.946      125.039       98.823        0.625      336.434        7.732      869.706
03/11/2014  11:45:00      324.030      222.140      163.919      206.232      160.755      143.649    42531.752    25842.109    20635.104       13.509        4.450      392.863      127.230        0.105      335.633        6.394      869.703
03/11/2014  11:46:00      216.826      152.045      128.671      180.454      164.312      118.124    32563.714    26998.329    13953.170        8.009        3.676      264.823      103.445        0.153      335.935        6.898      869.716
03/11/2014  11:47:00       92.902       30.486       31.787       95.882       84.993       67.150     9193.448     7223.858     4509.151        1.574        1.046       97.776       42.808        0.192      335.892        6.829      869.704
03/11/2014  11:48:00      149.357      125.258       54.239       75.123       60.506       67.299     5643.424     3660.920     4529.099        2.738        0.692      194.929       51.162        0.069      335.862        6.776      869.696
03/11/2014  11:49:00      235.246      155.560      148.707      160.673      136.311      145.905    25815.742    18580.732    21288.171        8.366        3.284      282.028      133.972        0.226      335.711        6.523      869.674
03/11/2014  11:50:00      222.443      170.033      108.106      201.855      140.857      107.284    40745.362    19840.709    11509.798        8.107        3.605      279.986       80.342        0.082      335.825        6.713      869.668
03/11/2014  11:51:00      224.411       99.725       81.626      157.723      131.285      113.999    24876.664    17235.780    12995.698        6.103        2.755      245.572       75.021        0.093      335.792        6.658      869.678
03/11/2014  11:52:00      222.726      145.079       49.341      126.388       96.093       86.936    15973.925     9233.929     7557.839        5.292        1.638      265.810       65.670        0.061      336.030        7.056      869.717
03/11/2014  11:53:00      342.765      160.146       94.597      213.931      134.749      105.780    45766.584    18157.237    11189.313       11.358        3.756      378.331       80.421        0.045      335.826        6.715      869.684
03/11/2014  11:54:00      286.476      202.550       64.666      131.411      117.150       92.665    17268.959    13724.145     8586.847        8.342        1.979      350.849       64.830        0.034      335.580        6.305      869.698
03/11/2014  11:55:00      301.637      200.204       77.875      130.218      132.131      112.543    16956.605    17458.487    12665.984        9.210        2.354      362.032       73.319        0.041      335.564        6.280      869.665
03/11/2014  11:56:00      327.981      202.954       64.991      179.507      158.278       96.619    32222.837    25051.899     9335.247       10.978        3.330      385.696       59.895        0.024      335.733        6.562      869.659
03/11/2014  11:57:00      239.226      143.634      116.058      151.428      136.043       96.208    22930.553    18507.728     9255.942        7.100        2.535      279.034       95.650        0.118      335.770        6.621      869.680
03/11/2014  11:58:00      136.640      128.612      135.202      131.534      112.891       99.293    17301.248    12744.348     9859.134        4.669        1.995      187.647       99.059        0.279      335.938        6.902      869.668
03/11/2014  11:59:00      165.964     -153.732       34.365      125.475      198.837       86.579    15743.894    39536.111     7495.859        5.755        3.139      226.225       85.590        0.143      336.104        7.179      869.636
03/11/2014  12:00:00      196.076     -209.464       40.415      175.281      312.880      112.732    30723.511    97893.726    12708.464       11.261        7.066      286.916      171.335        0.357      336.038        7.070      869.610
03/11/2014  12:01:00      108.655      -66.706       91.419      135.535      254.285      158.788    18369.663    64660.859    25213.687        6.641        5.412      127.497      178.742        1.965      336.116        7.199      869.576
03/11/2014  12:02:00      155.874      -85.937       36.419      145.197      237.817      118.286    21082.137    56557.127    13991.534        6.230        4.582      177.994      122.624        0.475      336.317        7.535      869.636
03/11/2014  12:03:00      168.603      -44.445       67.187      127.142      163.348      101.201    16165.204    26682.581    10241.646        4.399        2.654      174.363      105.116        0.363      336.017        7.033      869.672
03/11/2014  12:04:00      102.070      -24.292       73.757      105.804      131.615       85.429    11194.528    17322.441     7298.186        2.612        1.791      104.921       89.639        0.730      336.042        7.076      869.635
03/11/2014  12:05:00       78.653      -93.371       46.764      105.660      174.476      101.595    11164.091    30441.892    10321.552        3.450        2.596      122.084      123.398        1.022      336.019        7.038      869.622
03/11/2014  12:06:00      173.512     -139.227        4.421      125.632      217.010       97.879    15783.333    47093.460     9580.306        6.097        3.623      222.464      126.444        0.323      335.716        6.533      869.620
03/11/2014  12:07:00      194.860       50.991       87.069      161.277      237.766      142.824    26010.266    56532.660    20398.610        7.553        5.147      201.421      163.238        0.657      335.749        6.586      869.622
03/11/2014  12:08:00      194.618       64.918       77.380      144.560      162.733      107.723    20897.531    26481.955    11604.238        5.352        2.949      205.160       87.951        0.184      336.147        7.251      869.619
03/11/2014  12:09:00      161.386       48.989      154.546      209.794      203.402      140.585    44013.449    41372.371    19764.177        7.872        5.257      168.658      145.534        0.745      336.156        7.266      869.614
03/11/2014  12:10:00       91.959       -5.348       91.866      120.253      115.660       73.862    14460.695    13377.242     5455.541        2.510        1.665       92.115       69.849        0.575      336.400        7.674      869.602
03/11/2014  12:11:00      124.969       79.082      156.051      144.291      174.783      106.077    20819.912    30549.086    11252.429        5.441        3.131      147.889      120.267        0.661      336.072        7.127      869.594
03/11/2014  12:12:00      163.618      137.405      131.476      148.451      146.792      108.298    22037.836    21548.007    11728.533        5.911        2.766      213.661       89.812        0.177      336.182        7.309      869.559
03/11/2014  12:13:00      302.471      173.479      145.023      205.770      159.429      134.722    42341.262    25417.609    18150.051       11.424        4.295      348.689      116.375        0.111      336.080        7.140      869.491
03/11/2014  12:14:00      274.773      269.054      233.548      233.562      176.058      154.615    54551.200    30996.455    23905.846       15.592        5.473      384.565      132.261        0.118      335.954        6.928      869.478
03/11/2014  12:15:00      173.770      164.438      174.835      195.980      162.126      117.720    38408.273    26284.743    13858.052        8.316        3.928      239.241      113.472        0.225      336.035        7.064      869.485
03/11/2014  12:16:00       93.807      119.724       96.823       96.979       83.005       68.419     9404.978     6889.866     4681.180        2.674        1.049      152.098       42.437        0.078      336.508        7.853      869.541
03/11/2014  12:17:00      190.114      187.949      119.358      156.373      113.860      122.131    24452.629    12964.123    14916.017        6.901        2.617      267.335       91.960        0.118      336.109        7.188      869.532
03/11/2014  12:18:00      204.157      166.055      116.819      121.944       95.523       96.654    14870.281     9124.692     9342.027        5.811        1.667      263.162       81.801        0.097      335.707        6.517      869.524
03/11/2014  12:19:00       86.200      106.852       90.574      105.594       86.869       66.309    11150.064     7546.149     4396.823        2.507        1.155      137.287       46.498        0.115      336.278        7.470      869.519
03/11/2014  12:20:00      154.448       92.838       61.641       95.670       56.227       70.769     9152.744     3161.498     5008.266        2.679        0.866      180.203       57.482        0.102      335.626        6.384      869.504
03/11/2014  12:21:00      209.616      152.754       99.467      141.351      109.631      109.527    19980.084    12019.008    11996.248        6.057        2.200      259.369      101.272        0.152      335.992        6.993      869.474
03/11/2014  12:22:00      266.326      166.741       51.153      176.095      128.224      112.319    31009.625    16441.435    12615.569        8.070        3.003      314.217       70.664        0.051      336.015        7.031      869.447
03/11/2014  12:23:00      180.324      166.191      125.859      151.447      125.456      110.642    22936.209    15739.104    12241.654        6.344        2.546      245.226       87.941        0.129      336.448        7.753      869.453
03/11/2014  12:24:00      313.358      227.923      136.440      178.342      138.562      128.903    31805.763    19199.499    16616.016       11.818        3.381      387.482       94.010        0.059      336.274        7.463      869.457
03/11/2014  12:25:00      195.163       97.592      163.841      175.048      219.977      144.007    30641.840    48389.759    20738.053        8.709        4.988      218.204      153.300        0.494      336.156        7.267      869.470
03/11/2014  12:26:00      181.039       84.549      152.222      138.907      157.190      108.621    19295.281    24708.823    11798.576        5.944        2.790      199.809       99.707        0.249      336.090        7.155      869.448
03/11/2014  12:27:00      181.038      168.607      180.591      153.784      152.566      120.176    23649.618    23276.269    14442.379        7.758        3.068      247.392      102.486        0.172      335.803        6.677      869.457
03/11/2014  12:28:00      170.842      103.557      112.062      133.215      101.711       89.482    17746.332    10345.113     8007.063        4.428        1.805      199.778       61.232        0.094      335.989        6.987      869.448
03/11/2014  12:29:00      206.168      139.648      138.869      137.468      155.886       92.550    18897.446    24300.558     8565.491        6.652        2.588      249.012       92.309        0.137      336.038        7.069      869.431
03/11/2014  12:30:00      339.340      185.871       87.882      169.651      130.505      108.563    28781.628    17031.581    11786.033       10.750        2.880      386.910       78.418        0.041      336.072        7.124      869.407
03/11/2014  12:31:00      248.680      198.191      183.058      194.033      142.573      124.461    37648.671    20326.977    15490.423       10.403        3.673      317.996      119.871        0.142      335.833        6.727      869.406
03/11/2014  12:32:00       70.108       73.237      108.308       92.430      100.030       70.522     8543.298    10005.912     4973.330        2.276        1.176      101.384       53.593        0.279      336.627        8.055      869.402
03/11/2014  12:33:00      221.165      122.011       62.332      132.762      102.217       81.230    17625.685    10448.407     6598.307        5.117        1.734      252.588       49.046        0.038      336.102        7.176      869.385
03/11/2014  12:34:00      170.879      124.881       95.878      118.384      111.029       93.387    14014.883    12327.448     8721.122        4.452        1.753      211.648       59.361        0.079      336.072        7.127      869.358
03/11/2014  12:35:00      206.047      168.841      137.868      161.786      119.058      110.505    26174.551    14174.892    12211.314        7.126        2.628      266.388       99.333        0.139      336.199        7.336      869.326
03/11/2014  12:36:00      299.463      170.249       49.417      145.590      131.003       91.073    21196.433    17161.893     8294.308        8.387        2.333      344.474       65.822        0.037      336.028        7.052      869.337
03/11/2014  12:37:00      154.855       82.220       70.050      136.731      125.317       99.332    18695.364    15704.236     9866.870        3.995        2.213      175.328       70.433        0.161      336.174        7.296      869.281
03/11/2014  12:38:00      328.387      200.152      100.567      185.669      129.259      112.543    34472.935    16707.824    12665.927       11.092        3.192      384.576       80.069        0.043      335.938        6.902      869.232
03/11/2014  12:39:00      264.123      135.711      158.769      209.332      168.049      147.155    43819.882    28240.598    21654.512       10.353        4.686      296.948      141.115        0.226      336.223        7.377      869.261
03/11/2014  12:40:00       95.497       -3.540       58.627      151.514      200.682       80.594    22956.469    40273.283     6495.379        4.113        3.486       95.562       84.336        0.779      336.602        8.012      869.299
03/11/2014  12:41:00      206.420      140.556      106.686      127.012      108.801       86.675    16132.017    11837.717     7512.500        5.461        1.774      249.730       68.820        0.076      336.428        7.721      869.300
03/11/2014  12:42:00       74.825       71.381      154.293      116.647      157.252       85.671    13606.542    24728.193     7339.590        4.008        2.284      103.412       91.778        0.788      336.912        8.529      869.273
03/11/2014  12:43:00      317.521      321.507      250.212      233.830      189.602      153.542    54676.338    35948.953    23575.029       19.047        5.710      451.870      135.700        0.090      336.027        7.050      869.269
03/11/2014  12:44:00      208.079       80.905      143.578      218.547      183.162      132.486    47762.826    33548.176    17552.437        8.464        4.943      223.254      122.467        0.301      336.317        7.535      869.300
03/11/2014  12:45:00      167.344       76.217      129.847      148.060      162.495      102.717    21921.759    26404.557    10550.777        5.476        2.944      183.883      109.882        0.357      336.048        7.086      869.326
03/11/2014  12:46:00      131.991       -8.552       51.692      106.931      118.607       65.000    11434.142    14067.517     4224.951        2.494        1.486      132.267       49.187        0.138      336.115        7.198      869.288
03/11/2014  12:47:00       16.818      -38.655       37.302       71.912       95.492       50.144     5171.350     9118.699     2514.403        0.998        0.840       42.155       41.563        0.972      336.594        7.999      869.255
03/11/2014  12:48:00       62.301       92.238      119.988      101.980      110.392       73.964    10399.902    12186.311     5470.739        2.742        1.403      111.307       61.014        0.300      336.716        8.201      869.250
03/11/2014  12:49:00      208.456      144.857       72.990      117.472       89.778       95.177    13799.558     8060.088     9058.671        5.034        1.546      253.845       44.423        0.031      336.475        7.796      869.240
03/11/2014  12:50:00      296.811      172.605      103.470      159.239      125.455      105.079    25357.086    15738.971    11041.578        9.036        2.607      343.350       94.378        0.076      336.450        7.756      869.230
03/11/2014  12:51:00      154.145       86.570      165.081      196.535      177.720      126.228    38625.955    31584.551    15933.537        7.231        4.307      176.792      120.983        0.468      336.563        7.945      869.211
03/11/2014  12:52:00      106.465       40.346      136.261      162.254      181.536      105.304    26326.366    32955.341    11088.887        5.094        3.519      113.854      106.645        0.877      336.344        7.581      869.209
03/11/2014  12:53:00      171.498      177.352      195.125      178.060      162.048      122.022    31705.308    26259.522    14889.341        8.588        3.643      246.708      113.644        0.212      336.261        7.441      869.209
03/11/2014  12:54:00      329.738      172.994      135.998      175.056      141.223      115.111    30644.658    19944.041    13250.603       11.048        3.192      372.363       87.897        0.056      336.060        7.105      869.194
03/11/2014  12:55:00      139.178       84.438       96.208      154.858      184.975       98.476    23981.034    34215.749     9697.458        5.181        3.395      162.789      100.855        0.384      336.386        7.652      869.202
03/11/2014  12:56:00      317.027     -159.525       59.370      171.345      261.504      141.068    29359.133    68384.160    19900.256       12.354        5.882      354.900      178.109        0.252      336.244        7.412      869.153
03/11/2014  12:57:00      177.224       26.390       78.080      183.265      126.782       97.835    33586.083    16073.634     9571.747        4.870        2.962      179.178       56.019        0.098      336.130        7.224      869.181
03/11/2014  12:58:00      134.403      114.360      163.070      155.021      179.172      122.338    24031.397    32102.487    14966.639        6.440        3.555      176.472      129.174        0.536      336.508        7.855      869.159
03/11/2014  12:59:00      305.116      287.164      213.403      193.679      146.115      145.895    37511.479    21349.613    21285.367       15.061        4.007      418.998      130.499        0.097      335.991        6.991      869.117
03/11/2014  13:00:00      229.831      176.165      141.915      144.489      111.783      116.172    20877.020    12495.437    13495.887        7.542        2.343      289.580       74.283        0.066      335.882        6.810      869.159
03/11/2014  13:01:00      279.521      126.001       74.168      138.695      100.411       92.119    19236.298    10082.381     8485.909        6.865        1.890      306.607       76.589        0.062      335.922        6.875      869.118
03/11/2014  13:02:00      189.685      135.496      104.741      140.195       92.935       81.095    19654.755     8636.957     6576.374        5.008        1.743      233.109       61.187        0.069      336.389        7.655      869.069
03/11/2014  13:03:00      103.705      -83.093       45.249       88.595      156.894       80.597     7849.113    24615.601     6495.845        2.933        1.948      132.888       78.930        0.353      336.848        8.423      869.031
03/11/2014  13:04:00      194.627     -305.618        3.194      210.006      227.291      129.432    44102.358    51661.125    16752.650       12.188        5.626      362.328      151.281        0.174      336.288        7.488      868.983
03/11/2014  13:05:00      106.948      -72.777      102.850      122.812      194.926      100.074    15082.672    37996.274    10014.742        4.519        3.155      129.362      132.138        1.043      336.369        7.622      869.025
03/11/2014  13:06:00      115.455       50.937      117.146      135.731      180.948      110.712    18422.891    32742.254    12257.191        4.652        3.171      126.193      116.497        0.852      336.511        7.860      869.009
03/11/2014  13:07:00       68.479       44.808      128.325      128.786      184.328      120.152    16585.924    33976.661    14436.392        4.407        3.250       81.836      128.102        2.450      336.482        7.811      869.003
03/11/2014  13:08:00      157.994       77.571      182.064      186.479      219.742      149.258    34774.268    48286.730    22278.023        8.471        5.267      176.010      172.224        0.957      336.392        7.660      868.967
03/11/2014  13:09:00      142.278     -163.678        9.562      181.819      214.862      107.571    33058.020    46165.888    11571.593        6.894        4.540      216.872      147.552        0.463      336.316        7.536      868.907
03/11/2014  13:10:00      202.865     -248.816       -8.204      208.240      305.687      159.462    43363.780    93444.614    25428.226       13.265        8.112      321.035      206.662        0.414      336.190        7.324      868.840
03/11/2014  13:11:00      228.037     -283.932      -21.288      156.070      184.411       98.017    24357.715    34007.256     9607.388       10.051        3.399      364.168      115.636        0.101      335.954        6.929      868.894
03/11/2014  13:12:00      139.507       21.318      118.825      185.770      141.323      102.161    34510.535    19972.190    10436.778        4.946        3.246      141.127      113.025        0.641      336.334        7.564      868.909
03/11/2014  13:13:00       55.854       79.504      144.409      101.060      142.318      101.916    10213.111    20254.534    10386.782        3.557        2.043       97.162      102.099        1.104      336.775        8.301      868.945
03/11/2014  13:14:00       69.427      135.480      171.501      100.114      104.166       85.270    10022.868    10850.560     7270.998        4.036        1.407      152.234       86.669        0.324      336.810        8.359      868.971
03/11/2014  13:15:00      223.729      124.984       60.071      197.018      122.707      111.401    38815.984    15057.028    12410.190        6.777        3.314      256.273       95.206        0.138      336.610        8.026      868.919
03/11/2014  13:16:00      234.103      144.040      108.560      185.911      129.519       94.417    34563.065    16775.170     8914.560        7.378        3.013      274.867       92.146        0.112      336.574        7.964      868.910
03/11/2014  13:17:00      156.579      109.140       59.517       91.736       81.060       57.722     8415.509     6570.654     3331.823        2.914        0.916      190.863       43.903        0.053      336.793        8.332      868.929
03/11/2014  13:18:00      170.716      180.993      141.800      163.004      139.981      114.689    26570.262    19594.564    13153.593        7.065        2.966      248.802      105.317        0.179      336.889        8.491      868.894
03/11/2014  13:19:00      203.286      189.286      137.559      174.332      113.131      108.148    30391.506    12798.514    11696.037        7.547        2.744      277.767       96.798        0.121      336.757        8.272      868.890
03/11/2014  13:20:00      299.310      218.687       89.699      141.021      118.715      139.666    19887.036    14093.281    19506.713        9.946        2.674      370.690       75.420        0.041      336.820        8.374      868.916
03/11/2014  13:21:00      270.046      128.778      100.688      162.072      153.841       95.733    26267.273    23667.060     9164.787        7.936        2.955      299.180       63.839        0.046      336.454        7.764      868.924
03/11/2014  13:22:00      279.341      188.271      100.142      154.102      111.357      110.548    23747.386    12400.273    12220.857        8.593        2.418      336.864       60.839        0.033      336.341        7.573      868.899
03/11/2014  13:23:00      309.215      171.439       74.014      135.558      114.569       82.518    18376.047    13126.086     6809.245        8.439        1.916      353.561       56.348        0.025      336.465        7.781      868.883
03/11/2014  13:24:00      262.433      223.567      140.991      142.429      110.754      122.033    20285.888    12266.460    14891.964        9.308        2.372      344.751       87.751        0.065      336.536        7.900      868.874
03/11/2014  13:25:00      291.520      206.204       89.179      145.464      116.952      110.977    21159.695    13677.764    12315.988        9.130        2.358      357.077       95.672        0.072      336.747        8.253      868.880
03/11/2014  13:26:00      309.111      120.391       97.193      221.655      142.198      123.508    49131.084    20220.152    15254.193       10.203        4.230      331.728       95.824        0.083      336.178        7.302      868.868
03/11/2014  13:27:00      412.649      260.235       46.401      156.224      140.994      107.339    24405.852    19879.201    11521.587       14.797        2.790      487.854       57.430        0.014      335.905        6.846      868.881
03/11/2014  13:28:00      364.729      253.663       29.840      177.820      128.025      101.862    31619.851    16390.339    10375.797       12.831        2.919      444.266       50.281        0.013      335.964        6.944      868.845
03/11/2014  13:29:00      155.851      180.198      132.386      150.125      114.886      138.497    22537.440    13198.804    19181.466        6.459        2.746      238.245      123.599        0.269      336.319        7.539      868.850
03/11/2014  13:30:00      144.537      185.844      178.578      126.093      105.416       97.054    15899.556    11112.502     9419.532        6.187        1.822      235.433       85.909        0.133      335.991        6.990      868.832
03/11/2014  13:31:00      178.556      128.615       85.554      110.245       95.478       77.894    12154.022     9115.965     6067.549        4.154        1.367      220.055       44.259        0.040      336.137        7.233      868.804
03/11/2014  13:32:00      271.485      180.678       62.338      172.285      115.994      105.056    29682.171    13454.503    11036.699        8.219        2.709      326.112       80.497        0.061      336.354        7.595      868.798
03/11/2014  13:33:00      170.000      141.224       54.135      182.267      113.976       81.531    33221.262    12990.591     6647.305        5.231        2.643      221.007       52.190        0.056      336.869        8.458      868.778
03/11/2014  13:34:00      254.907      135.316       85.889      213.497      139.643      112.759    45580.962    19500.056    12714.492        8.421        3.890      288.596      111.506        0.149      336.985        8.651      868.783
03/11/2014  13:35:00      204.804       76.917      135.680      169.747      187.323      128.413    28814.137    35089.952    16489.990        7.332        4.020      218.772      120.993        0.306      336.730        8.225      868.762
03/11/2014  13:36:00      194.798      141.428      198.982      187.887      208.533      147.244    35301.616    43486.145    21680.881        9.899        5.023      240.724      138.895        0.333      336.489        7.822      868.753
03/11/2014  13:37:00      194.506      141.205      197.506      129.014      139.827       93.782    16644.608    19551.485     8795.112        7.088        2.250      240.357       92.988        0.150      336.374        7.630      868.771
03/11/2014  13:38:00      196.014      171.068      117.242      160.421      107.877       95.643    25734.932    11637.389     9147.529        6.397        2.326      260.165       77.560        0.089      336.362        7.610      868.738
03/11/2014  13:39:00       68.297       67.178      137.603      130.554      174.543      124.529    17044.365    30465.276    15507.436        4.555        3.151       95.798      123.797        1.670      337.084        8.818      868.708
03/11/2014  13:40:00      291.794      235.320      136.822      138.197      137.048      123.124    19098.408    18782.086    15159.534       10.613        2.652      374.859       97.034        0.067      336.045        7.081      868.686
03/11/2014  13:41:00      285.604      235.816      113.426      171.950      124.133      121.212    29566.743    15409.046    14692.328       10.484        2.983      370.377       98.794        0.071      336.563        7.945      868.649
03/11/2014  13:42:00      217.064      259.852      166.820      138.155      179.930      129.350    19086.846    32374.661    16731.487       10.532        3.410      338.585      127.992        0.143      335.987        6.983      868.626
03/11/2014  13:43:00      235.914      144.228      104.122      136.974      160.118      111.532    18761.825    25637.925    12439.348        7.206        2.842      276.509       88.743        0.103      336.444        7.748      868.605
03/11/2014  13:44:00      317.868      191.330      137.963      190.931      176.891      138.019    36454.819    31290.365    19049.356       12.172        4.340      371.008      104.355        0.079      336.542        7.911      868.582
03/11/2014  13:45:00      222.445      186.228      158.151      165.642      169.523      126.865    27437.173    28737.978    16094.810        9.071        3.613      290.108      120.150        0.172      336.414        7.696      868.625
03/11/2014  13:46:00      157.060       60.857      106.743      134.261      134.014       79.889    18026.139    17959.721     6382.274        4.106        2.118      168.438       81.814        0.236      336.487        7.821      868.602
03/11/2014  13:47:00      186.300      115.354      109.746      163.963      131.491      130.306    26883.803    17289.831    16979.777        6.059        3.058      219.122       94.753        0.187      336.709        8.190      868.562
03/11/2014  13:48:00      222.821      109.932       81.319      178.339      124.049      105.214    31804.919    15388.262    11069.966        6.329        2.913      248.463      107.224        0.186      336.859        8.442      868.559
03/11/2014  13:49:00      191.701       99.270       48.590      166.296      106.178       89.042    27654.340    11273.755     7928.556        4.790        2.343      215.880       78.499        0.132      336.723        8.215      868.564
03/11/2014  13:50:00      115.535       49.624       81.621      141.799      137.554      106.883    20107.094    18921.219    11423.911        3.645        2.523      125.741       90.524        0.518      336.667        8.119      868.608
03/11/2014  13:51:00      155.320       92.197      183.961      194.500      197.005      110.531    37830.097    38810.799    12217.097        7.764        4.443      180.623      122.520        0.460      336.684        8.148      868.599
03/11/2014  13:52:00      246.382      200.473      169.338      164.842      130.898      115.557    27172.825    17134.406    13353.343        9.360        2.883      317.637      101.026        0.101      336.455        7.764      868.642
03/11/2014  13:53:00      207.595      128.440      131.706      163.955      133.035      108.807    26881.394    17698.204    11838.988        6.667        2.821      244.115       85.754        0.123      336.523        7.880      868.661
03/11/2014  13:54:00      264.041      119.575      128.424      181.311      135.086       96.430    32873.704    18248.175     9298.722        8.045        3.021      289.855       64.580        0.050      336.449        7.755      868.647
03/11/2014  13:55:00      108.339       70.160       77.283      129.353      102.592       81.227    16732.093    10525.049     6597.788        2.824        1.693      129.073       64.335        0.248      336.832        8.396      868.616
03/11/2014  13:56:00      288.505      170.886       78.418      171.319      118.509       90.183    29350.214    14044.336     8132.972        8.505        2.576      335.317       70.043        0.044      336.618        8.037      868.608
03/11/2014  13:57:00      393.373      227.930       69.381      172.142      151.255      109.459    29632.770    22878.124    11981.278       13.799        3.225      454.636       80.412        0.031      336.360        7.605      868.597
03/11/2014  13:58:00      241.357      118.040       61.729      134.867      127.086       80.781    18189.180    16150.805     6525.522        5.842        2.043      268.676       53.587        0.040      336.782        8.311      868.580
03/11/2014  13:59:00      381.973      221.329      151.459      206.589      174.015      156.822    42679.072    30281.149    24593.151       15.767        4.878      441.464      117.226        0.071      336.579        7.972      868.532
03/11/2014  14:00:00      166.104      156.508      140.483      170.028      186.797      155.386    28909.556    34892.996    24144.788        7.987        4.397      228.222      126.329        0.306      336.810        8.357      868.527
03/11/2014  14:01:00      214.193      189.112      180.688      199.540      134.475      110.534    39816.104    18083.568    12217.788        9.219        3.506      285.731       89.603        0.098      336.567        7.951      868.512
03/11/2014  14:02:00      170.010      195.255      169.278      146.689      103.494       81.940    21517.599    10711.038     6714.116        6.730        1.947      258.897       62.852        0.059      336.514        7.863      868.477
03/11/2014  14:03:00      146.097      158.264      150.189      133.463      118.699      106.246    17812.248    14089.379    11288.171        5.606        2.159      215.388       84.745        0.155      336.926        8.553      868.497
03/11/2014  14:04:00      293.919      187.709      152.922      217.764      150.882      142.310    47421.009    22765.463    20252.150       11.771        4.522      348.745      121.596        0.122      336.722        8.209      868.492
03/11/2014  14:05:00      298.211      229.788      163.397      224.977      162.896      145.299    50614.775    26534.990    21111.707       13.333        4.913      376.473      137.447        0.133      336.711        8.193      868.489
03/11/2014  14:06:00      275.733      174.537       64.051      251.181      129.943      122.878    63091.706    16885.203    15099.053       10.282        4.754      326.331      101.500        0.097      336.769        8.289      868.481
03/11/2014  14:07:00      391.377      234.009       87.030      185.182      115.134      108.205    34292.386    13255.817    11708.334       13.737        2.963      456.000       98.173        0.046      336.684        8.147      868.486
03/11/2014  14:08:00      361.443      264.324       44.799      162.416      128.473      102.647    26378.886    16505.390    10536.372       12.796        2.671      447.782       80.396        0.032      336.382        7.642      868.462
03/11/2014  14:09:00      409.775      232.670       90.853      161.187      127.333      112.128    25981.255    16213.814    12572.728       14.253        2.738      471.223       65.821        0.020      336.383        7.644      868.444
03/11/2014  14:10:00      181.780      111.356       44.396      198.147       99.274       77.117    39262.388     9855.396     5947.076        5.123        2.753      213.177       42.175        0.039      336.296        7.501      868.398
03/11/2014  14:11:00      207.559      144.537       28.316       89.202       76.996       70.195     7956.926     5928.381     4927.318        4.179        0.941      252.926       32.252        0.016      336.703        8.181      868.409
03/11/2014  14:12:00      258.807      171.540      164.375      187.828      152.399      121.092    35279.210    23225.593    14663.312        9.828        3.658      310.495       95.613        0.095      336.896        8.503      868.396
03/11/2014  14:13:00      319.676      218.089      199.942      194.411      179.361      157.949    37795.582    32170.413    24947.941       14.230        4.746      386.982      146.166        0.143      336.369        7.621      868.402
03/11/2014  14:14:00      180.724      181.534      149.442      119.465      133.204      109.061    14271.897    17743.399    11894.236        6.592        2.195      256.156       96.514        0.142      336.510        7.857      868.393
03/11/2014  14:15:00      242.971      153.796      156.283      161.582      177.182      151.435    26108.782    31393.507    22932.475        9.376        4.022      287.556      127.124        0.195      336.489        7.823      868.378
03/11/2014  14:16:00      132.873       91.614      132.761      128.217      194.874      122.145    16439.703    37975.717    14919.506        5.649        3.467      161.395      126.986        0.619      336.622        8.045      868.312
03/11/2014  14:17:00      130.375       34.652      137.325      140.611      157.140      101.001    19771.364    24693.059    10201.294        4.585        2.733      134.902       94.107        0.487      336.877        8.469      868.249
03/11/2014  14:18:00      237.958      117.315      203.517      193.280      229.258      148.753    37357.003    52559.232    22127.424       11.190        5.602      265.305      150.608        0.322      337.034        8.733      868.233
03/11/2014  14:19:00      265.046      116.377      162.358      221.211      291.675      174.015    48934.407    85074.016    30281.073       13.719        8.214      289.471      186.796        0.416      337.016        8.703      868.216
03/11/2014  14:20:00      135.160     -102.480       35.167      153.549      182.976       96.073    23577.353    33480.111     9230.025        4.813        3.314      169.618      104.591        0.380      337.394        9.337      868.265
03/11/2014  14:21:00      208.870     -143.133       91.305      197.695      292.212      158.523    39083.182    85387.590    25129.399       11.100        7.480      253.207      186.815        0.544      337.206        9.020      868.183
03/11/2014  14:22:00      171.372       34.752      163.705      234.160      202.351      161.048    54830.740    40946.098    25936.577        8.952        6.086      174.860      148.315        0.719      337.075        8.802      868.188
03/11/2014  14:23:00      162.554       94.119      194.728      203.048      229.080      151.596    41228.369    52477.489    22981.272        9.492        5.834      187.835      173.651        0.855      336.964        8.616      868.284
03/11/2014  14:24:00      121.512      -14.347      124.644      164.440      181.314      135.549    27040.508    32874.864    18373.642        5.438        3.914      122.356      139.461        1.299      337.057        8.772      868.275
03/11/2014  14:25:00      218.627       -5.330      108.879      145.801      170.160      104.170    21257.956    28954.530    10851.396        6.036        3.053      218.692      119.970        0.301      336.776        8.301      868.283
03/11/2014  14:26:00      123.723      117.504      117.827      117.363      121.737      102.169    13774.096    14820.013    10438.476        4.101        1.952      170.630       86.945        0.260      336.763        8.281      868.263
03/11/2014  14:27:00      105.403       42.266      106.218      156.840      206.072      107.479    24598.656    42465.478    11551.689        5.138        3.931      113.561       91.910        0.655      337.207        9.023      868.238
03/11/2014  14:28:00      135.200       70.335      151.042      193.840      206.555      139.848    37574.071    42665.133    19557.462        7.290        4.990      152.401      129.875        0.726      337.216        9.038      868.238
03/11/2014  14:29:00      317.931      -31.162      159.788      270.114      250.798      173.157    72961.676    62899.626    29983.488       14.668        8.292      319.455      204.835        0.411      336.910        8.525      868.218
03/11/2014  14:30:00      239.096        9.419      177.735      184.048      249.548      151.003    33873.504    62274.120    22801.856       10.387        5.947      239.282      149.330        0.389      336.925        8.551      868.197
03/11/2014  14:31:00      126.897       85.111      134.127      148.401      149.213      105.131    22022.983    22264.570    11052.629        4.833        2.767      152.796       97.547        0.408      337.068        8.790      868.291
03/11/2014  14:32:00      118.040       12.101      105.348      127.270      185.172      110.310    16197.736    34288.756    12168.270        4.390        3.133      118.659      112.591        0.900      337.460        9.446      868.320
03/11/2014  14:33:00      225.333      133.357       93.887      184.187      148.796      103.770    33924.717    22140.229    10768.139        7.209        3.342      261.838       93.114        0.126      337.041        8.744      868.326
03/11/2014  14:34:00       59.551      100.153      129.932      141.229      108.059       75.778    19945.680    11676.750     5742.357        3.390        1.868      116.520       71.988        0.382      337.464        9.455      868.296
03/11/2014  14:35:00      248.203      166.359      158.281      194.429      157.171      114.273    37802.638    24702.860    13058.318        9.493        3.778      298.798       96.647        0.105      337.331        9.231      868.319
03/11/2014  14:36:00      465.602      199.024      114.279      226.639      168.950      137.004    51365.148    28544.123    18770.157       18.405        4.934      506.355       98.736        0.038      336.838        8.404      868.335
03/11/2014  14:37:00      357.685      135.648      111.642      183.997      159.547      133.161    33855.061    25455.194    17731.842       11.791        3.852      382.543      113.937        0.089      336.791        8.327      868.333
03/11/2014  14:38:00      243.411      -10.875       99.358      137.258      149.455       88.292    18839.632    22336.920     7795.514        5.910        2.449      243.653       87.529        0.129      336.966        8.621      868.303
03/11/2014  14:39:00      298.687      134.574       96.589      221.891      155.241      126.642    49235.489    24099.696    16038.150       10.300        4.469      327.603       85.870        0.069      337.012        8.697      868.313
03/11/2014  14:40:00      256.984      186.362       75.274      147.158      128.238       95.477    21655.617    16445.075     9115.937        7.682        2.361      317.446       54.379        0.029      336.942        8.579      868.293
03/11/2014  14:41:00      298.530      207.125       31.337      176.208      121.205      110.076    31049.352    14690.652    12116.673        9.542        2.893      363.346       26.005        0.005      336.950        8.592      868.315
03/11/2014  14:42:00      420.353      249.626       90.037      207.103      126.994      121.348    42891.684    16127.499    14725.236       16.042        3.687      488.886       75.531        0.024      336.786        8.318      868.315
03/11/2014  14:43:00      376.618      250.837       50.491      169.328      144.192       99.684    28672.015    20791.313     9936.879       13.334        2.970      452.504       56.238        0.015      336.740        8.240      868.381
03/11/2014  14:44:00      274.106      191.133       55.197      155.436      107.714       92.732    24160.292    11602.239     8599.288        7.953        2.218      334.165       54.691        0.027      336.626        8.051      868.370
03/11/2014  14:45:00      265.543      236.695      165.981      180.283      144.041      165.378    32501.892    20747.944    27349.812       11.733        4.030      355.721      128.870        0.131      336.735        8.233      868.321
03/11/2014  14:46:00      266.208      174.239       31.371      191.325      129.426      104.644    36605.115    16751.073    10950.309        8.325        3.215      318.160       58.554        0.034      336.833        8.396      868.340
03/11/2014  14:47:00      305.960      243.826       50.289      185.521      139.664       94.520    34417.952    19506.051     8934.027       10.921        3.143      391.232       73.345        0.035      336.650        8.091      868.338
03/11/2014  14:48:00      364.710      223.851       49.009      194.282      130.281      107.142    37745.422    16973.127    11479.430       12.585        3.310      427.928       75.630        0.031      336.683        8.146      868.297
03/11/2014  14:49:00      243.332      209.082       20.582      184.015      132.601      113.827    33861.406    17583.152    12956.476        8.386        3.220      320.821       65.347        0.041      336.778        8.305      868.297
03/11/2014  14:50:00      294.117      150.437       10.267      176.570      128.705       98.356    31177.016    16565.050     9673.879        8.332        2.871      330.358       33.793        0.010      336.970        8.624      868.300
03/11/2014  14:51:00      341.160      226.185      164.270      202.596      190.767      150.253    41045.218    36392.035    22576.060       14.725        5.001      409.328      138.441        0.114      337.222        9.047      868.292
03/11/2014  14:52:00      389.641      179.082       96.434      179.640      177.788      141.241    32270.451    31608.592    19949.048       13.849        4.191      428.825      108.276        0.064      336.721        8.209      868.342
03/11/2014  14:53:00      100.970      105.618      106.858      102.914       75.419       78.285    10591.269     5688.062     6128.538        2.758        1.120      146.117       55.681        0.145      337.006        8.686      868.374
03/11/2014  14:54:00       49.871      -20.795       50.687       99.222      126.163       70.335     9845.077    15917.036     4946.962        1.809        1.535       54.032       55.694        1.062      337.376        9.308      868.342
03/11/2014  14:55:00       83.777       38.701      103.405      144.360      140.455       96.400    20839.687    19727.585     9292.973        3.452        2.493       92.284       95.175        1.064      337.190        8.994      868.317
03/11/2014  14:56:00      142.945       87.838       56.414      141.105       67.845       71.332    19910.719     4602.894     5088.190        3.046        1.480      167.776       55.459        0.109      337.095        8.836      868.271
03/11/2014  14:57:00      141.202      134.406      113.045      126.823      103.770       88.394    16084.100    10768.120     7813.439        4.272        1.733      194.943       79.118        0.165      337.249        9.092      868.229
03/11/2014  14:58:00      147.053       42.959       82.785      110.136      135.266       91.323    12129.950    18296.977     8339.981        3.454        1.938      153.200       78.325        0.261      337.405        9.353      868.215
03/11/2014  14:59:00      464.483      236.165       90.233      264.668      183.744      120.751    70049.012    33762.040    14580.851       19.900        5.920      521.074       99.855        0.037      337.293        9.167      868.217
03/11/2014  15:00:00      452.009      268.362       66.157      262.092      163.551      132.467    68692.101    26748.787    17547.571       19.683        5.649      525.671      137.426        0.068      337.047        8.754      868.241
03/11/2014  15:01:00      367.841      232.108       62.592      229.295      153.448      126.082    52576.017    23546.222    15896.733       14.254        4.601      434.950      103.728        0.057      336.914        8.532      868.219
03/11/2014  15:02:00      464.433      222.639      107.576      268.162      242.123      167.209    71910.799    58623.372    27958.808       21.763        7.925      515.040      128.940        0.063      336.977        8.637      868.165
03/11/2014  15:03:00      464.968      248.158      106.028      274.079      171.120      151.873    75119.348    29281.937    23065.292       20.822        6.373      527.046      130.779        0.062      336.557        7.936      868.196
03/11/2014  15:04:00      425.944      211.325       57.803      210.101      140.330      129.177    44142.353    19692.574    16686.805       15.496        4.026      475.486       91.350        0.037      336.666        8.120      868.197
03/11/2014  15:05:00      213.540       33.416       92.309      185.193       94.897      102.827    34296.340     9005.510    10573.416        5.455        2.694      216.138       49.552        0.053      336.887        8.487      868.170
03/11/2014  15:06:00       80.486       87.081      103.507      117.647      108.862       71.928    13840.701    11851.008     5173.689        2.781        1.543      118.579       51.429        0.188      337.544        9.588      868.118
03/11/2014  15:07:00      334.827      180.872      152.695      174.963      158.514      126.954    30612.041    25126.575    16117.232       11.998        3.593      380.557       90.923        0.057      337.320        9.211      868.150
03/11/2014  15:08:00      376.358      256.888      291.558      228.405      225.820      184.971    52168.971    50994.818    34214.387       21.498        6.869      455.671      159.117        0.122      336.812        8.362      868.108
03/11/2014  15:09:00      270.068      160.934      202.459      186.535      180.848      130.827    34795.444    32706.087    17115.673       11.220        4.231      314.383      113.280        0.130      336.996        8.669      868.126
03/11/2014  15:10:00      268.783      200.621      173.835      240.072      187.275      179.262    57634.801    35072.027    32134.790       13.375        6.242      335.400      150.288        0.201      337.151        8.928      868.118
03/11/2014  15:11:00      447.531      209.410       54.615      180.368      149.120      118.597    32532.773    22236.853    14065.164       15.796        3.442      494.102       59.456        0.014      337.043        8.746      868.153
03/11/2014  15:12:00      235.835      198.345      174.121      187.198      182.549      154.499    35043.203    33324.222    23870.075       10.874        4.612      308.154      125.616        0.166      337.145        8.919      868.145
03/11/2014  15:13:00      260.764      252.194      247.286      193.187      146.854      131.682    37321.042    21566.114    17340.258       13.447        3.811      362.767      113.526        0.098      337.021        8.710      868.170
03/11/2014  15:14:00      304.425      123.689       92.502      199.669      129.976      133.127    39867.750    16893.733    17722.675        9.549        3.724      328.593       96.336        0.086      336.870        8.458      868.176
03/11/2014  15:15:00      213.633      121.831       53.073      141.458      114.357       76.104    20010.308    13077.552     5791.890        5.108        1.944      245.931       55.007        0.050      337.107        8.855      868.166
03/11/2014  15:16:00      169.156      118.691       62.942      143.459      113.322      101.959    20580.620    12841.846    10395.687        4.523        2.191      206.643       63.965        0.096      337.238        9.074      868.144
03/11/2014  15:17:00      248.235      213.322      185.091      210.007      187.360      148.152    44102.979    35103.814    21949.058       12.125        5.058      327.302      139.654        0.182      337.250        9.094      868.158
03/11/2014  15:18:00      413.892      204.909      119.672      230.867      165.288      131.118    53299.780    27320.149    17191.905       16.269        4.891      461.837      124.993        0.073      337.062        8.779      868.156
03/11/2014  15:19:00      270.537      194.383      131.755      244.531      178.117      138.284    59795.515    31725.526    19122.337       11.947        5.532      333.129      129.831        0.152      336.960        8.610      868.172
03/11/2014  15:20:00      251.376      186.419      168.532      167.792      141.882      108.463    28153.996    20130.499    11764.151        9.318        3.002      312.957       80.912        0.067      337.103        8.849      868.168
03/11/2014  15:21:00      248.176      199.024      232.217      209.885      163.285      117.993    44051.901    26661.964    13922.442       11.986        4.232      318.122      121.608        0.146      336.849        8.424      868.147
03/11/2014  15:22:00      191.511      191.658      177.538      145.328      121.364      104.452    21120.310    14729.321    10910.262        7.584        2.338      270.942       81.444        0.090      336.951        8.594      868.110
03/11/2014  15:23:00      246.024      191.329      152.611      168.476      135.574      112.158    28384.191    18380.288    12579.485        8.987        2.967      311.665       82.270        0.070      337.023        8.714      868.095
03/11/2014  15:24:00      326.963      319.103      285.408      213.902      179.882      178.311    45753.918    32357.392    31794.909       20.003        5.495      456.871      137.926        0.091      336.862        8.446      868.049
03/11/2014  15:25:00      176.092      188.480      260.214      172.092      199.848      144.634    29615.676    39939.363    20919.036       11.234        4.524      257.940      142.613        0.306      337.129        8.892      868.084
03/11/2014  15:26:00      280.347       41.215      168.421      265.304      238.188      136.097    70386.400    56733.412    18522.495       12.712        7.282      283.360      155.704        0.302      337.231        9.063      868.072
03/11/2014  15:27:00       94.240       12.902      115.099      205.230      195.501      107.357    42119.527    38220.643    11525.507        5.706        4.593       95.119      118.705        1.557      337.413        9.369      868.069
03/11/2014  15:28:00       70.284      105.578       97.355      115.678      110.031       94.376    13381.332    12106.729     8906.911        2.997        1.720      126.833       75.398        0.353      337.575        9.639      868.109
03/11/2014  15:29:00      246.041      147.116      119.024      200.077      189.438      150.070    40030.815    35886.722    22521.147        9.737        4.922      286.670      157.069        0.300      337.465        9.455      868.158
03/11/2014  15:30:00      210.736      146.334      168.390      166.711      156.343      101.760    27792.509    24443.258    10355.091        7.837        3.130      256.560       89.073        0.121      337.456        9.441      868.144
03/11/2014  15:31:00      249.733      154.307       78.203      130.816      115.833       94.131    17112.744    13417.391     8860.669        6.583        1.970      293.560       77.917        0.070      337.289        9.158      868.142
03/11/2014  15:32:00      403.377      231.693       94.116      161.752      128.308       96.012    26163.754    16462.942     9218.312       13.854        2.592      465.182       82.654        0.032      337.065        8.784      868.180
03/11/2014  15:33:00      254.745      154.488       94.735      167.607      100.443       91.385    28091.962    10088.807     8351.184        7.212        2.327      297.929       31.954        0.012      337.328        9.226      868.151
03/11/2014  15:34:00      415.687      295.185       50.029      230.637      140.391      117.359    53193.521    19709.595    13773.021       17.454        4.334      509.833       80.363        0.025      337.068        8.790      868.123
03/11/2014  15:35:00      287.981      213.075       61.964      191.321      112.854       94.564    36603.612    12735.939     8942.437        9.522        2.914      358.237       81.816        0.052      337.287        9.156      868.108
03/11/2014  15:36:00      367.526      224.190       40.496      157.897      116.651      105.846    24931.306    13607.405    11203.351       11.835        2.487      430.508       56.567        0.017      337.103        8.847      868.102
03/11/2014  15:37:00      243.889      163.303       30.745      165.578      124.507       99.047    27415.976    15501.925     9810.363        6.990        2.636      293.512       49.721        0.029      337.056        8.770      868.065
03/11/2014  15:38:00      258.417      142.980       34.684      143.565       95.768       74.240    20610.987     9171.506     5511.642        6.185        1.765      295.335       64.478        0.048      337.429        9.393      868.079
03/11/2014  15:39:00      480.324      314.303       48.915      200.039      132.729      117.979    40015.449    17617.010    13919.093       20.171        3.578      574.019       60.880        0.011      337.253        9.099      868.061
03/11/2014  15:40:00      338.020      155.239       33.329      192.157      123.959      108.494    36924.276    15365.955    11770.882       10.175        3.203      371.963       96.024        0.067      337.122        8.881      868.035
03/11/2014  15:41:00      389.645      239.883        6.438      210.282      157.253      120.326    44218.569    24728.393    14478.316       14.640        4.171      457.567       49.040        0.011      337.144        8.918      868.036
03/11/2014  15:42:00      407.957      262.476       39.262      179.418      151.491      121.345    32190.657    22949.658    14724.702       15.335        3.493      485.100       85.564        0.031      337.068        8.789      868.024
03/11/2014  15:43:00      295.887      165.246       47.370      174.228      149.584      103.393    30355.316    22375.458    10690.139        9.025        3.171      338.903       40.996        0.015      337.376        9.305      868.038
03/11/2014  15:44:00      386.946      247.088       67.751      203.700      137.604      113.026    41493.772    18934.818    12774.882       14.427        3.660      459.107       81.672        0.032      337.050        8.758      867.967
03/11/2014  15:45:00      545.660      308.685       99.413      279.673      202.662      158.923    78216.801    41071.787    25256.543       27.370        7.227      626.922       48.703        0.006      337.079        8.807      867.947
03/11/2014  15:46:00      619.584      300.864      105.851      323.426      235.506      164.462   104604.688    55462.975    27047.655       33.632        9.356      688.769      113.002        0.027      336.859        8.439      867.963
03/11/2014  15:47:00      412.145      167.274      114.093      238.065      197.896      130.151    56675.057    39162.776    16939.195       16.180        5.639      444.796      101.314        0.052      337.044        8.749      868.050
03/11/2014  15:48:00      368.538      172.350      133.404      246.807      165.501      152.707    60913.539    27390.421    23319.474       14.745        5.581      406.848      148.002        0.132      336.999        8.675      868.111
03/11/2014  15:49:00      454.122      232.961      131.722      222.946      162.002      137.939    49704.711    26244.748    19027.263       18.639        4.749      510.390       99.909        0.038      336.820        8.375      868.135
03/11/2014  15:50:00      217.654      140.688      140.751      265.595      149.201      125.799    70540.504    22260.823    15825.368        9.778        5.431      259.165       77.129        0.089      336.891        8.495      868.124
03/11/2014  15:51:00      292.277      250.551      193.570      188.508      143.785      119.782    35535.298    20674.042    14347.645       12.810        3.528      384.970      107.659        0.078      336.922        8.543      868.135
03/11/2014  15:52:00      211.316      140.311      164.214      159.477      152.198       91.279    25433.019    23164.096     8331.879        7.411        2.846      253.657       70.528        0.077      336.864        8.449      868.109
03/11/2014  15:53:00      249.810      161.790      148.113      215.099      151.799      146.830    46267.632    23042.872    21559.026       10.068        4.543      297.625      130.398        0.192      337.005        8.685      868.067
03/11/2014  15:54:00      254.699      112.215      144.492      226.219      154.641      108.883    51175.030    23913.899    11855.426        9.263        4.347      278.323      107.662        0.150      337.280        9.144      868.106
03/11/2014  15:55:00      244.745       29.902      177.651      231.753      216.154      157.535    53709.327    46722.726    24817.178       10.878        6.262      246.565      158.114        0.411      337.131        8.897      868.080
03/11/2014  15:56:00      194.270       43.609      129.616      227.843      244.088      141.901    51912.551    59579.051    20135.964        9.401        6.581      199.105      154.615        0.603      337.033        8.731      868.029
03/11/2014  15:57:00      230.993      128.315      118.237      165.579      125.032       99.747    27416.389    15632.943     9949.533        6.839        2.650      264.240       55.668        0.044      337.102        8.846      868.100
03/11/2014  15:58:00      344.947      179.467      150.452      230.578      196.152      168.918    53166.043    38475.438    28533.199       14.698        6.009      388.840      137.052        0.124      337.029        8.722      868.077
03/11/2014  15:59:00      171.675      173.202      202.384      201.088      117.320       99.194    40436.534    13763.910     9839.438        8.222        3.202      243.867      113.371        0.216      337.138        8.906      868.063
03/11/2014  16:00:00      165.874      135.889       99.435      123.113      121.181      113.719    15156.712    14684.916    12931.930        4.931        2.139      214.429       69.326        0.105      337.224        9.051      868.089
03/11/2014  16:01:00      288.552      206.520      148.472      213.162      244.670      159.735    45437.887    59863.244    25515.165       13.936        6.541      354.842      109.208        0.095      337.274        9.135      868.071
03/11/2014  16:02:00      257.433      208.992      183.346      190.652      177.084      152.135    36348.232    31358.772    23145.206       11.719        4.543      331.586      130.085        0.154      337.247        9.090      868.081
03/11/2014  16:03:00      529.399      284.573      112.601      331.368      196.143      148.285   109804.919    38472.212    21988.588       27.206        8.513      601.037      129.865        0.047      336.991        8.659      868.046
03/11/2014  16:04:00      296.344       91.790      192.599      268.448      252.069      199.415    72064.384    63538.945    39766.520       15.432        8.768      310.234      192.629        0.386      337.054        8.765      868.015
03/11/2014  16:05:00      207.012       83.205      203.694      205.997      206.541      125.464    42434.813    42659.281    15741.277        9.603        5.042      223.108      127.485        0.327      337.024        8.718      868.055
03/11/2014  16:06:00      131.010      110.850      140.253      126.203      133.114       96.472    15927.211    17719.464     9306.850        4.603        2.148      171.614       76.890        0.201      337.056        8.771      868.059
03/11/2014  16:07:00      226.254      170.295      132.972      181.637      132.990      149.179    32991.866    17686.349    22254.455        8.539        3.647      283.181      131.642        0.216      337.004        8.683      868.044
03/11/2014  16:08:00      356.813      218.598      148.772      192.250      171.633      143.452    36960.127    29457.813    20578.459       14.210        4.350      418.450       96.188        0.053      337.078        8.806      868.037
03/11/2014  16:09:00      368.373      153.430      113.968      236.297      168.943      132.609    55836.280    28541.664    17585.050       13.708        5.098      399.048      110.422        0.077      337.032        8.729      868.005
03/11/2014  16:10:00      327.989      201.072      152.971      184.616      175.871      139.993    34082.897    30930.490    19597.961       12.799        4.231      384.716       88.697        0.053      336.951        8.593      868.001
03/11/2014  16:11:00      291.899      208.287      179.036      224.676      167.705      145.493    50479.128    28124.934    21168.070       13.019        4.989      358.593      134.357        0.140      336.987        8.654      867.993
03/11/2014  16:12:00      399.148      218.571       39.900      222.610      150.101      106.635    49555.150    22530.220    11371.034       14.605        4.173      455.074       68.728        0.023      337.313        9.200      868.020
03/11/2014  16:13:00      558.554      394.210      110.939      180.926      113.710      128.853    32734.242    12930.040    16603.129       27.097        3.113      683.655      104.051        0.023      336.706        8.184      868.091
03/11/2014  16:14:00      436.366      225.430       77.878      190.820      156.294      122.779    36412.357    24427.806    15074.736       16.159        3.796      491.156       89.150        0.033      336.858        8.436      868.103
03/11/2014  16:15:00      250.672       96.625       44.805      207.538      131.894       90.947    43072.123    17395.938     8271.355        7.145        3.437      268.650       79.424        0.087      336.816        8.369      868.088
03/11/2014  16:16:00      196.807      179.858      149.373      196.119      135.543      120.288    38462.678    18371.875    14469.219        8.233        3.565      266.612       96.354        0.131      337.124        8.885      868.064
03/11/2014  16:17:00      292.299      187.982      150.221      200.001      147.620      126.268    40000.205    21791.648    15943.548       11.052        3.887      347.528      103.340        0.088      336.994        8.665      868.089
03/11/2014  16:18:00      371.452      216.365      128.153      194.267      142.772      128.511    37739.679    20383.751    16514.970       13.791        3.732      429.873       90.016        0.044      336.940        8.575      868.108
03/11/2014  16:19:00      504.866      299.845       71.046      189.303      162.643      121.084    35835.461    26452.623    14661.221       21.338        3.847      587.194       87.654        0.022      336.723        8.214      868.048
03/11/2014  16:20:00      323.317      201.963       91.492      184.221      127.445      113.864    33937.524    16242.206    12965.004       10.841        3.157      381.213       99.530        0.068      336.846        8.417      868.029
03/11/2014  16:21:00      104.514       65.332       56.590      108.846       93.606       84.434    11847.451     8761.997     7129.055        2.306        1.387      123.253       58.534        0.226      337.048        8.757      868.095
03/11/2014  16:22:00      189.669      131.727       76.994      157.040      133.244       86.523    24661.556    17753.963     7486.218        5.457        2.495      230.926       64.571        0.078      337.115        8.871      868.105
03/11/2014  16:23:00      299.325      168.753      112.423      174.953      132.839      118.760    30608.634    17646.287    14103.835        9.652        3.118      343.618       95.993        0.078      337.143        8.915      868.117
03/11/2014  16:24:00      396.415      267.531      163.720      258.825      204.732      173.300    66990.503    41915.109    30032.976       19.720        6.947      478.245      136.976        0.082      337.025        8.718      868.077
03/11/2014  16:25:00      324.302      158.170       91.478      190.771      160.818      130.207    36393.471    25862.586    16953.964       10.887        3.961      360.818       92.560        0.066      337.047        8.755      868.089
03/11/2014  16:26:00      233.485      111.505      102.019      193.556      150.072      103.542    37463.876    22521.704    10721.028        7.402        3.535      258.744       72.665        0.079      337.041        8.745      868.072
03/11/2014  16:27:00      430.936      246.627       77.244      226.205      161.215      117.748    51168.574    25990.236    13864.531       17.174        4.551      496.519       77.793        0.025      337.038        8.740      868.078
03/11/2014  16:28:00      413.356      229.102      114.217      212.970      182.428      143.326    45356.094    33279.895    20542.456       16.777        4.959      472.600      104.744        0.049      336.948        8.588      868.082
03/11/2014  16:29:00      254.985      229.495      169.162      213.400      187.158      165.154    45539.521    35028.055    27275.807       12.705        5.392      343.052      139.349        0.165      336.997        8.671      868.036
03/11/2014  16:30:00      494.920      275.153       70.324      249.757      193.640      143.897    62378.401    37496.562    20706.437       22.307        6.029      566.264      114.154        0.041      336.825        8.382      868.038
03/11/2014  16:31:00      558.213      282.581      128.215      194.574      158.727      146.498    37859.024    25194.414    21461.718       24.619        4.226      625.663      106.062        0.029      336.834        8.397      868.065
03/11/2014  16:32:00      403.613      223.874       83.509      177.830      151.466      107.334    31623.645    22941.878    11520.670       14.303        3.304      461.544       76.773        0.028      337.043        8.748      868.094
03/11/2014  16:33:00      248.759      120.944       84.108      186.360      153.539      108.415    34730.090    23574.129    11753.870        7.681        3.503      276.601       99.885        0.130      337.228        9.058      868.104
03/11/2014  16:34:00      253.976      133.329       85.347      188.106      131.530      118.959    35383.813    17300.017    14151.148        7.819        3.342      286.846       94.638        0.109      337.227        9.055      868.093
03/11/2014  16:35:00      279.139      230.983      233.071      287.633      167.667      125.457    82732.731    28112.216    15739.375       15.606        6.329      362.315      147.134        0.165      337.008        8.688      868.063
03/11/2014  16:36:00      159.296      166.778      185.653      202.310      157.155      115.102    40929.454    24697.727    13248.482        8.325        3.944      230.630       80.929        0.123      337.267        9.123      868.091
03/11/2014  16:37:00      279.080      199.664      154.232      224.012      194.639      131.324    50181.354    37884.334    17246.093       12.340        5.266      343.149       97.309        0.080      337.213        9.033      868.109
03/11/2014  16:38:00      228.663      237.505      226.470      173.998      222.004      153.488    30275.406    49285.626    23558.488       13.153        5.156      329.690      144.149        0.191      336.813        8.364      868.175
03/11/2014  16:39:00      349.310      188.345      119.931      215.262      145.338      132.251    46337.798    21123.243    17490.245       12.840        4.248      396.851      113.146        0.081      336.813        8.365      868.115
03/11/2014  16:40:00      201.359      124.629       74.496      161.096      165.456      120.012    25951.776    27375.686    14402.848        6.467        3.387      236.808       96.277        0.165      336.880        8.475      868.160
03/11/2014  16:41:00      258.747      186.416      129.196      168.607      138.772      124.446    28428.185    19257.604    15486.911        9.077        3.159      318.906      103.716        0.106      336.919        8.539      868.126
03/11/2014  16:42:00      244.494      143.534      125.586      191.836      125.689      131.022    36801.027    15797.619    17166.883        8.294        3.488      283.512       93.130        0.108      336.950        8.593      868.119
03/11/2014  16:43:00      284.262      118.868       93.255      153.416      147.875      109.762    23536.509    21867.064    12047.708        8.053        2.873      308.115       84.880        0.076      336.941        8.577      868.127
03/11/2014  16:44:00      335.942      228.213      144.909      194.030      159.805      108.677    37647.491    25537.775    11810.618       13.045        3.750      406.126       93.640        0.053      336.821        8.376      868.090
03/11/2014  16:45:00      225.273      125.992       69.053      174.444      134.413      119.444    30430.675    18066.928    14266.948        6.706        3.138      258.112       91.317        0.125      336.983        8.647      868.060
03/11/2014  16:46:00      277.009      188.830       49.431      136.784      101.672       84.841    18709.879    10337.180     7198.019        7.553        1.812      335.247       60.124        0.032      337.137        8.905      868.057
03/11/2014  16:47:00      126.661       86.106       93.073      120.192       96.320       77.875    14446.035     9277.515     6064.560        3.095        1.489      153.157       66.524        0.189      337.392        9.334      868.053
03/11/2014  16:48:00      211.987      126.961       80.589      173.357      103.701       68.199    30052.520    10753.867     4651.171        5.650        2.273      247.098       58.060        0.055      337.391        9.331      868.052
03/11/2014  16:49:00      154.462      129.367      100.242      173.847      110.341       88.939    30222.870    12175.048     7910.069        5.047        2.515      201.480       93.898        0.217      337.334        9.236      867.997
03/11/2014  16:50:00      354.492      161.652       65.970      255.806      156.200      112.103    65436.574    24398.455    12567.137       12.925        5.120      389.610       80.011        0.042      337.211        9.028      867.977
03/11/2014  16:51:00      257.541      120.208       87.444      240.891      157.579      125.183    58028.339    24830.995    15670.847        9.346        4.927      284.214      120.833        0.181      337.269        9.128      867.966
03/11/2014  16:52:00      287.208       66.579      149.284      212.420      219.890      144.882    45122.456    48351.441    20990.808       11.181        5.723      294.824      138.085        0.219      337.225        9.052      867.978
03/11/2014  16:53:00      261.553      203.932      139.848      246.019      181.161      138.240    60525.547    32819.477    19110.433       12.098        5.623      331.660      110.459        0.111      337.099        8.842      867.963
03/11/2014  16:54:00      267.492      182.082      209.416      236.619      181.440      163.380    55988.773    32920.366    26692.929       13.206        5.780      323.583      126.194        0.152      337.039        8.742      867.941
03/11/2014  16:55:00      154.312      259.933      257.175      187.810      207.770      131.606    35272.414    43168.321    17320.083       12.662        4.788      302.287      124.658        0.170      337.086        8.821      867.889
03/11/2014  16:56:00      222.712      298.497      281.332      207.644      178.796      136.475    43115.982    31968.007    18625.492       15.576        4.685      372.426      110.413        0.088      337.041        8.744      867.854
03/11/2014  16:57:00      122.449      159.905      201.601      151.541      163.551      119.604    22964.750    26748.883    14305.208        7.260        3.201      201.404      111.051        0.304      337.265        9.121      867.881
03/11/2014  16:58:00      281.247      220.263      242.599      202.488      210.665      154.190    41001.189    44379.703    23774.421       14.779        5.458      357.233      156.451        0.192      336.988        8.655      867.898
03/11/2014  16:59:00      149.674       82.658      112.185      128.259      136.547      118.408    16450.262    18645.021    14020.566        4.546        2.456      170.982       74.791        0.191      337.123        8.883      867.919
03/11/2014  17:00:00      394.519      247.694      168.380      200.003      159.067      146.686    40001.206    25302.191    21516.731       16.607        4.341      465.830       92.531        0.039      336.968        8.623      867.891
03/11/2014  17:01:00      268.591      148.174      153.606      201.162      157.545      142.449    40465.985    24820.278    20291.640       10.162        4.279      306.752      126.266        0.169      336.764        8.282      867.821
03/11/2014  17:02:00      166.758      220.429      219.655      150.565      165.880      137.278    22669.691    27516.184    18845.383        9.682        3.452      276.401      131.893        0.228      336.999        8.674      867.837
03/11/2014  17:03:00      188.649       74.374      179.636      164.927      172.226      102.916    27200.877    29661.954    10591.793        7.041        3.373      202.780       93.327        0.212      337.062        8.781      867.828
03/11/2014  17:04:00      231.737      116.509      170.054      231.668      233.310      153.086    53670.099    54433.598    23435.403       11.384        6.577      259.377      173.238        0.446      336.906        8.519      867.810
03/11/2014  17:05:00      193.696       78.865      183.436      188.122      180.404      108.341    35389.770    32545.601    11737.727        7.851        3.984      209.136      125.451        0.360      337.002        8.679      867.803
03/11/2014  17:06:00      182.419      198.843      176.472      194.759      153.626      121.308    37930.952    23601.056    14715.646        9.009        3.812      269.843      101.146        0.140      337.076        8.803      867.801
03/11/2014  17:07:00      110.292      183.374      195.165      134.332      138.679      115.049    18045.071    19231.779    13236.351        6.719        2.526      213.987       87.374        0.167      337.210        9.028      867.820
03/11/2014  17:08:00      224.455      186.776      151.244      168.397      123.721      121.016    28357.403    15306.955    14644.780        8.321        2.915      292.002       88.273        0.091      337.095        8.835      867.838
03/11/2014  17:09:00      192.987      146.543      102.967      156.829      108.975       95.640    24595.336    11875.454     9146.922        5.746        2.281      242.319       87.633        0.131      337.187        8.989      867.846
03/11/2014  17:10:00      280.764      164.384       42.870      166.450      121.367       88.154    27705.615    14729.936     7771.049        7.894        2.510      325.347       56.262        0.030      337.036        8.736      867.869
03/11/2014  17:11:00      444.366      252.891       77.138      186.569      114.348      129.233    34807.885    13075.400    16701.267       16.596        3.229      511.288       95.510        0.035      336.808        8.355      867.867
03/11/2014  17:12:00      327.298      214.953       47.977      121.834      106.793       93.143    14843.543    11404.708     8675.663        9.527        1.746      391.572       55.673        0.020      336.847        8.421      867.853
03/11/2014  17:13:00      168.808      153.450      155.092      183.069      158.401      146.909    33514.288    25090.833    21582.247        7.813        4.009      228.129      157.906        0.479      337.088        8.824      867.837
03/11/2014  17:14:00      173.757      214.961      185.677      166.019      139.060      121.751    27562.285    19337.552    14823.365        8.629        3.086      276.405      108.298        0.154      337.121        8.878      867.836
03/11/2014  17:15:00      199.992      145.109      131.888      167.065      115.134       91.774    27910.769    13255.909     8422.379        6.401        2.479      247.090       73.994        0.090      337.037        8.737      867.835
03/11/2014  17:16:00      305.470       47.663      119.840      220.416      253.959      145.926    48583.213    64495.149    21294.426       12.213        6.719      309.166      146.994        0.226      337.026        8.719      867.823
03/11/2014  17:17:00      289.126      149.972      153.734      233.007      198.436      158.062    54292.322    39376.798    24983.618       12.416        5.933      325.707      158.173        0.236      336.869        8.457      867.807
03/11/2014  17:18:00      239.377       98.477       89.587      186.713      165.016      127.501    34861.642    27230.288    16256.602        7.667        3.917      258.842       94.519        0.133      336.888        8.489      867.824
03/11/2014  17:19:00      179.193      109.922       98.965      131.108      110.504       91.798    17189.220    12211.123     8426.924        4.590        1.891      210.221       62.646        0.089      336.991        8.662      867.843
03/11/2014  17:20:00       79.689       67.432       81.002      116.118       96.812       77.191    13483.471     9372.474     5958.440        2.313        1.441      104.390       63.124        0.366      337.155        8.938      867.823
03/11/2014  17:21:00      171.507       91.885      177.258      177.792      159.005      107.883    31610.066    25282.716    11638.705        6.889        3.427      194.570      118.150        0.369      337.054        8.766      867.798
03/11/2014  17:22:00      192.408      123.411      122.319      126.355      116.456       84.628    15965.532    13562.061     7161.829        5.194        1.834      228.585       64.741        0.080      336.924        8.547      867.795
03/11/2014  17:23:00      119.383      120.087      165.859      100.407      165.279      118.233    10081.491    27317.234    13979.071        5.377        2.569      169.332      126.716        0.560      337.060        8.777      867.800
03/11/2014  17:24:00      233.900      162.356      148.068      218.221      165.252      132.747    47620.569    27308.088    17621.835        9.775        4.628      284.725      119.553        0.176      337.026        8.720      867.758
03/11/2014  17:25:00      162.561      120.790      128.860      159.959      125.633      106.274    25586.952    15783.684    11294.202        5.513        2.633      202.525      112.343        0.308      337.150        8.926      867.758
03/11/2014  17:26:00      382.683      194.452      102.076      202.205      168.924      148.934    40886.702    28535.398    22181.335       14.312        4.580      429.252      114.605        0.071      336.980        8.641      867.743
03/11/2014  17:27:00      308.933      181.500      166.356      217.715      170.367      126.298    47399.826    29024.814    15951.062       12.420        4.619      358.304      111.964        0.098      336.901        8.509      867.701
03/11/2014  17:28:00      228.954      173.968      184.535      203.524      151.203      127.464    41421.833    22862.379    16247.021        9.862        4.027      287.549      114.967        0.160      337.072        8.795      867.713
03/11/2014  17:29:00      299.869      126.513       76.522      199.415      154.207      135.641    39766.363    23779.889    18398.371        9.685        4.097      325.464      104.080        0.102      336.995        8.668      867.759
03/11/2014  17:30:00      229.788      101.768       75.204      193.704      124.290      106.456    37521.113    15448.111    11332.822        6.655        3.215      251.316      100.468        0.160      337.012        8.697      867.782
03/11/2014  17:31:00      167.702       99.326      106.404      165.303      129.801       97.033    27325.183    16848.176     9415.405        5.144        2.679      194.909       86.606        0.197      337.002        8.679      867.786
03/11/2014  17:32:00      171.399      129.795      103.171      141.950       87.346       91.585    20149.899     7629.397     8387.789        4.651        1.808      214.998       81.635        0.144      337.020        8.709      867.796
03/11/2014  17:33:00       73.822      101.049       97.962       99.171       85.020       71.876     9834.793     7228.439     5166.188        2.374        1.111      125.142       57.483        0.211      337.168        8.958      867.804
03/11/2014  17:34:00      223.238      165.265      196.264      170.350      169.094      122.658    29019.280    28592.870    15045.057        9.415        3.633      277.754      101.070        0.132      337.043        8.748      867.783
03/11/2014  17:35:00      278.517      -29.164      104.566      154.197      167.937      114.789    23776.794    28202.713    13176.473        7.724        3.258      280.039       96.317        0.118      337.006        8.686      867.761
03/11/2014  17:36:00      240.997      156.100      178.426      214.673      177.757      118.253    46084.596    31597.450    13983.889       10.296        4.583      287.135      126.843        0.195      336.911        8.527      867.770
03/11/2014  17:37:00      176.575      238.420      226.987      143.442      132.356       99.481    20575.550    17517.991     9896.568        9.376        2.400      296.686       97.983        0.109      337.036        8.736      867.753
03/11/2014  17:38:00      175.101      123.955      190.553      164.064      154.565      120.818    26916.881    23890.303    14596.997        7.386        3.270      214.535      106.428        0.246      336.994        8.666      867.762
03/11/2014  17:39:00      196.653       -1.069      113.028      170.566      147.304       95.559    29092.885    21698.615     9131.448        5.567        2.996      196.656       96.786        0.242      337.031        8.728      867.744
03/11/2014  17:40:00      190.361      135.326      182.993      178.677      149.312      123.596    31925.357    22294.077    15275.895        7.875        3.475      233.561      108.271        0.215      337.035        8.733      867.719
03/11/2014  17:41:00      139.976      189.947      208.415      178.930      132.719      114.410    32016.093    17614.312    13089.654        8.090        3.136      235.952       74.759        0.100      337.092        8.830      867.680
03/11/2014  17:42:00      108.257      158.585      217.453      141.375      169.054      118.088    19986.893    28579.417    13944.685        7.332        3.126      192.012      108.693        0.320      337.070        8.794      867.640
03/11/2014  17:43:00      214.971      186.765      164.336      181.894      169.673      146.322    33085.401    28788.990    21410.061        9.568        4.164      284.770      105.411        0.137      336.957        8.602      867.711
03/11/2014  17:44:00      228.500      156.014       87.237      189.245      140.554      108.031    35813.560    19755.425    11670.670        7.569        3.362      276.682       43.616        0.025      336.929        8.557      867.749
03/11/2014  17:45:00      219.852      104.458       35.420      151.399      101.110       86.546    22921.694    10223.204     7490.251        5.056        2.032      243.406       51.436        0.045      336.983        8.646      867.766
03/11/2014  17:46:00      253.245       97.155       43.379      144.763      126.167       72.541    20956.299    15918.125     5262.206        5.879        2.107      271.241       23.958        0.008      337.003        8.680      867.755
03/11/2014  17:47:00      276.189      211.267      110.439      202.099      155.947      144.775    40844.125    24319.315    20959.764       10.960        4.306      347.727      138.593        0.159      336.919        8.540      867.710
03/11/2014  17:48:00      447.092      277.024       75.586      239.303      184.924       98.581    57265.997    34196.981     9718.243       19.174        5.059      525.960       35.701        0.005      336.916        8.536      867.709
03/11/2014  17:49:00      355.666      210.801      179.951      224.334      203.287      167.842    50325.680    41325.698    28170.944       16.155        5.991      413.443      149.775        0.131      336.823        8.380      867.682
03/11/2014  17:50:00      252.862      247.574      246.938      188.711      169.621      165.406    35611.986    28771.368    27359.250       13.896        4.587      353.881      136.481        0.149      336.846        8.418      867.690
03/11/2014  17:51:00      252.714      150.813      154.688      212.579      184.840      110.954    45189.974    34165.760    12310.793       10.108        4.583      294.294      103.167        0.123      336.910        8.525      867.695
03/11/2014  17:52:00      193.047      169.456      166.933      133.942      128.459       95.482    17940.326    16501.745     9116.763        6.870        2.178      256.870       92.783        0.130      337.021        8.710      867.703
03/11/2014  17:53:00      270.194      -92.710       79.454      197.911      211.648      112.590    39168.608    44794.781    12676.487        9.226        4.832      285.657      118.864        0.173      337.034        8.733      867.653
03/11/2014  17:54:00      299.349       80.312      138.897      211.802      213.221      135.910    44859.922    45463.027    18471.517       11.205        5.440      309.935      131.112        0.179      336.980        8.642      867.622
03/11/2014  17:55:00      280.232       95.807      126.685      205.096      135.742      113.398    42064.396    18425.770    12859.179        8.854        3.667      296.157      109.602        0.137      336.968        8.620      867.664
03/11/2014  17:56:00      252.176      203.859      197.802      200.636      192.575      150.696    40254.822    37085.250    22709.346       12.214        5.002      324.271      127.925        0.156      336.958        8.606      867.633
03/11/2014  17:57:00      255.769      111.736      170.120      167.007      200.532      134.846    27891.175    40213.204    18183.448        9.655        4.314      279.111      127.899        0.210      337.006        8.686      867.664
03/11/2014  17:58:00      189.628       92.399      182.981      182.598      218.168      145.434    33341.937    47597.248    21150.910        9.001        5.105      210.942      148.882        0.498      337.011        8.694      867.652
03/11/2014  17:59:00       96.874      207.936      236.088      132.772      161.259      101.100    17628.448    26004.361    10221.197        8.110        2.693      229.395      101.216        0.195      337.046        8.752      867.659
03/11/2014  18:00:00      263.081      142.137      149.447      202.550      192.343      118.948    41026.542    36995.845    14148.564       10.194        4.609      299.023      107.628        0.130      337.024        8.716      867.625
03/11/2014  18:01:00      264.931      232.298      219.769      237.045      187.294      185.588    56190.446    35079.158    34442.832       14.906        6.286      352.351      166.958        0.225      336.983        8.648      867.590
03/11/2014  18:02:00      378.648      256.776       40.092      174.161      125.419      108.400    30332.060    15729.859    11750.637       13.435        2.891      457.502       66.365        0.021      336.914        8.532      867.642
03/11/2014  18:03:00      248.745      159.725       96.445      172.540      136.004      113.247    29770.010    18497.125    12824.969        7.888        3.055      295.611       83.118        0.079      336.961        8.610      867.662
03/11/2014  18:04:00      329.864      187.552       81.240      174.743      163.521      124.819    30535.103    26739.074    15579.662       11.171        3.643      379.455       88.508        0.054      336.871        8.460      867.666
03/11/2014  18:05:00      348.289      142.456       53.087      164.737      132.657      100.820    27138.118    17597.944    10164.629        9.965        2.745      376.296       70.514        0.035      336.874        8.465      867.650
03/11/2014  18:06:00      272.450      112.836       63.919      176.728      118.699       96.613    31232.779    14089.402     9334.015        7.284        2.733      294.891       83.880        0.081      336.927        8.553      867.616
03/11/2014  18:07:00      318.336      167.272       59.182      159.364      157.619      101.790    25396.907    24843.592    10361.179        9.670        3.030      359.608       74.362        0.043      336.882        8.478      867.629
03/11/2014  18:08:00      275.622      146.362       51.314      165.793      125.623       83.157    27487.323    15781.049     6915.163        7.509        2.509      312.072       41.125        0.017      336.908        8.522      867.599
03/11/2014  18:09:00      434.267      329.225       53.415      255.276      160.664      123.815    65165.855    25813.056    15330.061       20.305        5.315      544.956       75.122        0.019      336.827        8.386      867.556
03/11/2014  18:10:00      442.088      252.520       68.215      151.196      124.029      129.973    22860.183    15383.307    16892.982       15.949        2.757      509.125       70.730        0.019      336.899        8.506      867.612
03/11/2014  18:11:00      389.953      156.194       80.047      198.875      161.810      119.469    39551.233    26182.434    14272.895       13.142        4.000      420.071       81.445        0.038      336.867        8.454      867.593
03/11/2014  18:12:00      241.079      149.460      156.045      183.202      150.744      119.121    33562.852    22723.650    14189.740        8.763        3.524      283.651      105.216        0.138      336.887        8.485      867.620
03/11/2014  18:13:00      189.750      182.596      125.348      192.441      135.947      126.822    37033.441    18481.488    16083.870        7.831        3.580      263.337      119.838        0.207      336.858        8.438      867.620
03/11/2014  18:14:00      212.640      144.842       72.234      133.563      110.594       88.034    17839.163    12231.116     7749.927        5.461        1.891      257.284       74.356        0.084      336.885        8.483      867.636
03/11/2014  18:15:00      353.090      185.283       66.092      223.843      131.856      108.413    50105.686    17386.024    11753.438       12.129        3.962      398.751       99.925        0.063      336.846        8.418      867.611
03/11/2014  18:16:00      186.258       61.833       66.211      163.433      129.322      101.914    26710.441    16724.306    10386.524        4.835        2.691      196.254       89.540        0.208      336.878        8.473      867.588
03/11/2014  18:17:00       74.859       94.395       71.775       98.738       80.737       73.983     9749.136     6518.484     5473.521        2.070        1.087      120.475       58.878        0.239      336.974        8.635      867.601
03/11/2014  18:18:00      211.868      104.530       88.153      132.832      116.360       98.800    17644.229    13539.721     9761.458        5.226        2.047      236.251       80.411        0.116      336.901        8.510      867.620
03/11/2014  18:19:00      221.738      129.208      111.380      138.355      118.639      102.989    19142.175    14075.167    10606.788        6.104        2.191      256.637       92.404        0.130      336.854        8.432      867.630
03/11/2014  18:20:00      272.365       64.779       85.921      207.751      131.345      120.737    43160.397    17251.386    14577.423        8.036        3.749      279.963       78.396        0.078      336.815        8.368      867.612
03/11/2014  18:21:00      284.388      170.175      178.644      197.517      144.306      147.402    39012.811    20824.175    21727.332       11.164        4.078      331.416      117.578        0.126      336.724        8.216      867.585
03/11/2014  18:22:00      291.249      135.668      110.803      197.817      123.464      110.347    39131.565    15243.483    12176.555        9.102        3.328      321.297       85.838        0.071      336.747        8.254      867.601
03/11/2014  18:23:00      275.878      170.194      117.512      140.901      129.845      107.994    19853.229    16859.770    11662.635        8.362        2.419      324.152       87.937        0.074      336.708        8.187      867.581
03/11/2014  18:24:00      322.963      127.197      127.657      225.502      141.663      112.521    50851.005    20068.521    12660.890       11.016        4.179      347.108      112.750        0.106      336.699        8.174      867.578
03/11/2014  18:25:00      237.918      168.688      172.700      151.592      138.042      107.783    22980.205    19055.634    11617.134        8.426        2.683      291.651       85.518        0.086      336.707        8.187      867.573
03/11/2014  18:26:00      322.858      196.304      116.673      175.663      134.926      113.800    30857.599    18205.156    12950.549       10.919        3.101      377.852       70.035        0.034      336.705        8.184      867.588
03/11/2014  18:27:00      192.655      127.968      120.446      160.287      126.426       98.549    25691.778    15983.630     9711.907        5.968        2.569      231.283      107.800        0.217      336.754        8.265      867.599
03/11/2014  18:28:00      247.409      163.404      154.461      174.013      167.876      146.501    30280.373    28182.500    21462.469        9.583        3.996      296.500      136.054        0.211      336.739        8.239      867.596
03/11/2014  18:29:00      224.676      118.039      118.845      131.343      143.508       94.234    17250.945    20594.574     8880.108        6.262        2.336      253.796       70.547        0.077      336.763        8.281      867.576
03/11/2014  18:30:00      197.101      164.998      115.506      151.130      117.351      112.541    22840.391    13771.309    12665.589        6.434        2.464      257.046       87.018        0.115      336.747        8.255      867.584
03/11/2014  18:31:00      244.571      116.428       82.654      140.607      132.786      119.270    19770.227    17632.215    14225.443        6.590        2.581      270.870       74.524        0.076      336.730        8.226      867.597
03/11/2014  18:32:00      100.429       66.169       55.310      129.619       76.113       76.904    16800.979     5793.176     5914.280        2.301        1.425      120.267       57.743        0.231      336.774        8.299      867.569
03/11/2014  18:33:00      272.980      201.404      193.933      206.084      159.790      144.251    42470.436    25532.976    20808.439       12.073        4.441      339.237      124.624        0.135      336.713        8.198      867.533
03/11/2014  18:34:00      206.041      141.166      114.141      146.180      123.466       93.000    21368.514    15243.787     8648.980        6.033        2.263      249.761       70.552        0.080      336.724        8.215      867.548
03/11/2014  18:35:00      180.533      172.100      190.860      205.294      155.762      124.097    42145.569    24261.829    15399.957        9.021        4.090      249.420      109.909        0.194      336.736        8.235      867.513
03/11/2014  18:36:00      295.073      167.673      184.291      214.159      167.125      139.369    45864.187    27930.868    19423.622       12.116        4.661      339.385      138.765        0.167      336.712        8.194      867.503
03/11/2014  18:37:00      286.681      105.256      105.293      204.155      143.426      108.279    41679.100    20570.883    11724.364        8.915        3.699      305.393      102.150        0.112      336.698        8.173      867.534
03/11/2014  18:38:00      181.887      199.603      191.630      153.062      132.291      105.143    23427.866    17500.789    11055.015        8.080        2.599      270.045       85.060        0.099      336.711        8.195      867.504
03/11/2014  18:39:00      232.754      134.479      172.897      171.840      183.231      120.542    29529.053    33573.596    14530.257        8.988        3.882      268.810      104.418        0.151      336.677        8.137      867.491
03/11/2014  18:40:00      227.268       84.102      137.638      182.027      166.677      121.315    33133.862    27781.136    14717.342        7.664        3.782      242.330      101.954        0.177      336.680        8.141      867.464
03/11/2014  18:41:00      292.487      181.620      122.839      195.991      138.034      114.677    38412.276    19053.385    13150.892       10.211        3.531      344.288       84.142        0.060      336.667        8.119      867.480
03/11/2014  18:42:00      243.983      176.060      104.963      150.134      133.043       95.634    22540.318    17700.536     9145.790        7.545        2.469      300.873       65.994        0.048      336.638        8.072      867.506
03/11/2014  18:43:00      213.115      106.083       87.206      139.413      113.250      106.459    19435.852    12825.655    11333.499        5.393        2.180      238.058       69.543        0.085      336.654        8.101      867.523
03/11/2014  18:44:00      245.720      171.784      159.021      190.717      116.415      118.799    36373.009    13552.533    14113.199        8.959        3.202      299.814      108.297        0.130      336.649        8.089      867.531
03/11/2014  18:45:00      311.952      227.174       95.560      162.996      132.008      126.071    26567.718    17426.159    15893.883       10.896        2.994      385.904       80.698        0.044      336.606        8.017      867.568
03/11/2014  18:46:00      245.681      151.221       97.322      133.203      120.047      110.434    17743.136    14411.382    12195.627        6.852        2.218      288.491       85.742        0.088      336.626        8.052      867.575
03/11/2014  18:47:00      332.810      203.874       93.905      209.692      158.591      123.226    43970.736    25151.048    15184.738       12.271        4.215      390.291      102.823        0.069      336.587        7.988      867.567
03/11/2014  18:48:00      290.683      173.605      108.541      189.804      149.558      118.159    36025.628    22367.716    13961.575        9.937        3.618      338.578      104.905        0.096      336.590        7.992      867.569
03/11/2014  18:49:00      226.876      173.475      123.661      230.420      135.206       95.276    53093.268    18280.538     9077.427        8.864        4.023      285.598       88.780        0.097      336.587        7.986      867.611
03/11/2014  18:50:00      360.048      166.500       84.423      200.641      157.791      126.115    40256.948    24897.943    15905.073       12.276        4.053      396.682       85.467        0.046      336.567        7.955      867.638
03/11/2014  18:51:00      363.769      234.189       67.700      181.667      157.605      118.813    33003.045    24839.464    14116.553       13.184        3.598      432.634       85.327        0.039      336.560        7.941      867.661
03/11/2014  18:52:00      337.952      173.026      115.934      210.340      146.693      131.475    44243.120    21518.861    17285.559       12.030        4.152      379.671      104.285        0.075      336.544        7.915      867.631
03/11/2014  18:53:00      258.440      136.377       79.687      156.606      128.536      101.318    24525.298    16521.519    10265.316        7.152        2.566      292.216       75.893        0.067      336.521        7.877      867.662
03/11/2014  18:54:00      300.026      153.169       73.174      173.776      118.806      113.327    30198.226    14114.859    12842.968        8.798        2.858      336.863       96.877        0.083      336.519        7.871      867.675
03/11/2014  18:55:00      302.586      182.439      106.616      159.437      120.197       99.359    25420.228    14447.386     9872.176        9.296        2.487      353.330       62.000        0.031      336.487        7.819      867.697
03/11/2014  18:56:00      341.814      145.537       58.901      141.087      130.209      101.832    19905.680    16954.374    10369.817        9.435        2.361      371.508       74.053        0.040      336.493        7.828      867.703
03/11/2014  18:57:00      206.851       74.562       75.544      182.832      121.279       91.535    33427.628    14708.640     8378.673        5.527        2.826      219.880       71.692        0.106      336.490        7.823      867.719
03/11/2014  18:58:00      399.312      189.217       79.210      228.562      152.230      128.775    52240.373    23173.976    16583.005       14.674        4.600      441.875       89.483        0.041      336.515        7.866      867.704
03/11/2014  18:59:00      207.760      108.719       46.694      174.926      124.175       81.520    30598.981    15419.426     6645.589        5.490        2.633      234.487       75.981        0.105      336.510        7.859      867.736
03/11/2014  19:00:00      262.526      144.026       57.291      194.878      124.284       92.104    37977.294    15446.479     8483.144        7.741        3.095      299.439       65.605        0.048      336.463        7.777      867.758
03/11/2014  19:01:00      185.642      154.361      137.548      199.495      124.349       97.964    39798.256    15462.591     9596.969        7.102        3.243      241.434       96.074        0.158      336.495        7.833      867.742
03/11/2014  19:02:00      219.258      133.448      123.746      117.199      121.470       96.304    13735.510    14755.014     9274.460        5.947        1.888      256.676       80.283        0.098      336.511        7.858      867.737
03/11/2014  19:03:00      184.446      116.124      147.706      154.993      100.516       81.911    24022.717    10103.565     6709.376        5.507        2.042      217.957       84.161        0.149      336.485        7.815      867.741
03/11/2014  19:04:00      184.756      108.310       69.634      117.351       79.062       83.979    13771.153     6250.801     7052.462        3.889        1.354      214.163       71.386        0.111      336.464        7.778      867.779
03/11/2014  19:05:00      256.892      129.413       72.040      186.871      119.141       87.804    34920.586    14194.679     7709.595        7.237        2.841      287.647       86.986        0.091      336.447        7.751      867.774
03/11/2014  19:06:00      240.636      135.268      111.018      154.883      109.580       98.052    23988.631    12007.815     9614.228        6.706        2.281      276.050       76.296        0.076      336.447        7.750      867.760
03/11/2014  19:07:00      286.666      233.244      157.454      153.775      135.155      104.150    23646.882    18266.758    10847.152       10.706        2.638      369.568       81.803        0.049      336.461        7.774      867.765
03/11/2014  19:08:00      253.642      133.728      122.173      183.770      144.633      134.166    33771.536    20918.803    18000.646        8.490        3.635      286.736       88.939        0.096      336.471        7.790      867.745
03/11/2014  19:09:00      299.090      127.891       83.249      163.585      142.824      116.486    26760.081    20398.794    13569.002        8.672        3.036      325.286       97.566        0.090      336.471        7.790      867.758
03/11/2014  19:10:00      242.165      194.652      154.557      157.082      110.369      102.100    24674.734    12181.302    10424.469        8.384        2.364      310.698       68.046        0.048      336.438        7.735      867.761
03/11/2014  19:11:00      275.027      166.061      136.321      161.198      124.985      110.978    25984.894    15621.182    12316.076        8.785        2.696      321.273       82.742        0.066      336.445        7.746      867.765
03/11/2014  19:12:00      257.259      167.991      140.583      171.782      113.417      104.510    29508.994    12863.461    10922.357        8.372        2.665      307.251       85.296        0.077      336.448        7.752      867.750
03/11/2014  19:13:00      232.468       95.952       83.154      192.507      125.101       92.948    37059.126    15650.302     8639.266        6.574        3.067      251.492       79.247        0.099      336.407        7.685      867.754
03/11/2014  19:14:00      231.681      135.809       70.116      127.503       76.645       75.558    16256.949     5874.385     5709.020        5.243        1.392      268.552       51.751        0.037      336.336        7.565      867.783
03/11/2014  19:15:00      265.440      154.062       60.792      108.459       90.681       84.119    11763.262     8222.960     7076.000        6.247        1.353      306.910       41.189        0.018      336.362        7.609      867.785
03/11/2014  19:16:00      194.530      138.630      127.728      162.490      106.344      110.357    26402.946    11309.059    12178.568        6.162        2.495      238.872       98.577        0.170      336.383        7.643      867.769
03/11/2014  19:17:00      206.029      123.658      111.747      164.622      111.659       77.709    27100.455    12467.842     6038.758        5.791        2.280      240.290       64.717        0.073      336.395        7.662      867.753
03/11/2014  19:18:00      285.595      124.755       74.892      162.396      107.391       77.338    26372.573    11532.750     5981.157        7.330        2.194      311.654       53.441        0.029      336.365        7.615      867.763
03/11/2014  19:19:00      208.809      140.006      135.348      135.460      102.359      101.942    18349.380    10477.272    10392.258        6.036        1.961      251.402       74.320        0.087      336.383        7.643      867.761
03/11/2014  19:20:00      227.221      157.454      117.753      113.633      112.864       98.791    12912.412    12738.186     9759.575        6.284        1.771      276.444       75.885        0.075      336.353        7.592      867.751
03/11/2014  19:21:00      243.416      138.259      123.741      160.975      144.677      116.054    25912.805    20931.389    13468.646        7.698        3.016      279.941      109.869        0.154      336.380        7.637      867.728
03/11/2014  19:22:00      191.971      182.013      128.393      131.058      103.529       89.812    17176.253    10718.210     8066.190        6.121        1.798      264.540       64.808        0.060      336.385        7.645      867.738
03/11/2014  19:23:00      199.187      141.497       94.548      166.474      129.054      119.010    27713.600    16654.926    14163.382        6.357        2.927      244.329       85.227        0.122      336.379        7.637      867.759
03/11/2014  19:24:00      220.743      134.248      114.629      156.117      124.499       99.011    24372.362    15500.015     9803.139        6.477        2.484      258.360       94.047        0.133      336.370        7.621      867.791
03/11/2014  19:25:00      219.240      110.414       76.156      142.411      116.949       98.032    20280.809    13677.182     9610.239        5.480        2.178      245.474       69.904        0.081      336.349        7.587      867.815
03/11/2014  19:26:00      211.325       87.745       81.665      161.872      116.666       99.783    26202.694    13610.958     9956.658        5.439        2.489      228.818       85.937        0.141      336.357        7.600      867.849
03/11/2014  19:27:00      168.528      120.799       95.045      108.955       98.011       83.702    11871.094     9606.190     7006.085        4.025        1.424      207.350       55.853        0.073      336.324        7.545      867.863
03/11/2014  19:28:00      204.901      104.159       66.282      130.729       86.470       81.520    17090.120     7477.104     6645.543        4.421        1.561      229.855       59.880        0.068      336.316        7.533      867.877
03/11/2014  19:29:00      189.427      114.128       99.222      129.406       90.429       87.625    16746.012     8177.368     7678.101        4.567        1.630      221.151       73.401        0.110      336.310        7.522      867.902
03/11/2014  19:30:00      154.838       97.457       91.903      120.952       84.732       90.549    14629.283     7179.475     8199.076        3.596        1.500      182.956       54.206        0.088      336.293        7.494      867.921
03/11/2014  19:31:00      259.680      146.295       82.369      133.369       92.803       78.583    17787.264     8612.438     6175.224        6.409        1.629      298.054       68.553        0.053      336.293        7.493      867.925
03/11/2014  19:32:00      196.725      109.753       83.462      119.623       78.610       74.960    14309.721     6179.529     5618.999        4.190        1.305      225.269       59.535        0.070      336.320        7.539      867.931
03/11/2014  19:33:00      201.229      126.176       52.408      102.961       80.091       54.808    10600.959     6414.489     3003.951        3.959        1.001      237.515       54.239        0.052      336.270        7.455      867.943
03/11/2014  19:34:00      279.579      153.408       60.052      108.312      100.741       87.828    11731.523    10148.795     7713.670        6.744        1.480      318.902       41.776        0.017      336.274        7.460      867.929
03/11/2014  19:35:00      336.011      160.139       46.521      121.837      119.926       95.330    14844.224    14382.207     9087.737        8.951        1.916      372.220       60.319        0.026      336.262        7.442      867.933
03/11/2014  19:36:00      167.359       80.189       68.898      134.266       82.083       68.899    18027.454     6737.612     4747.137        3.434        1.476      185.578       66.749        0.129      336.237        7.402      867.924
03/11/2014  19:37:00      190.785       78.619       69.195      113.664       76.775       71.849    12919.572     5894.429     5162.349        3.567        1.199      206.349       55.820        0.073      336.250        7.422      867.938
03/11/2014  19:38:00      213.311      104.739       80.278      128.719       94.152       81.264    16568.524     8864.664     6603.840        4.747        1.602      237.638       64.368        0.073      336.238        7.404      867.971
03/11/2014  19:39:00      119.938      137.364      122.454      113.369      100.764       85.717    12852.468    10153.294     7347.374        3.929        1.518      182.356       81.841        0.201      336.247        7.418      867.990
03/11/2014  19:40:00      338.095      219.747       79.401      209.293      150.731      121.890    43803.669    22719.784    14857.231       12.512        4.069      403.233       92.180        0.052      336.290        7.487      867.978
03/11/2014  19:41:00      228.704      166.290      143.261      212.773      119.560      127.915    45272.254    14294.555    16362.279        8.819        3.796      282.768      122.634        0.188      336.310        7.521      867.946
03/11/2014  19:42:00      167.046      158.314      155.313      130.465      115.719       94.348    17021.053    13390.907     8901.479        5.819        1.966      230.147       89.879        0.153      336.268        7.451      867.974
03/11/2014  19:43:00      288.823      160.302       77.691      168.968       94.552       89.488    28550.231     8940.152     8008.168        8.032        2.275      330.326       62.276        0.036      336.266        7.449      868.003
03/11/2014  19:44:00      159.849      142.106      110.670      128.270       90.084       72.575    16453.321     8115.217     5267.184        4.391        1.492      213.883       57.458        0.072      336.277        7.468      868.008
03/11/2014  19:45:00      143.079       72.669       59.184      112.993       68.959       61.049    12767.524     4755.277     3726.933        2.525        1.062      160.476       69.544        0.188      336.219        7.373      868.025
03/11/2014  19:46:00      255.594      169.604      107.789      141.047      121.585      101.184    19894.304    14783.016    10238.146        7.530        2.246      306.747       73.596        0.058      336.232        7.391      868.037
03/11/2014  19:47:00      179.026      149.101      111.256      120.562       96.362       76.554    14535.150     9285.654     5860.535        4.816        1.484      232.984       68.961        0.088      336.225        7.380      868.045
03/11/2014  19:48:00      172.055       80.961       65.768      103.189       70.171       63.571    10647.969     4923.989     4041.263        3.004        0.981      190.152       59.881        0.099      336.174        7.296      868.073
03/11/2014  19:49:00      178.745       90.976       56.458       95.824       80.444       56.221     9182.217     6471.216     3160.842        3.111        0.941      200.566       39.811        0.039      336.140        7.239      868.080
03/11/2014  19:50:00      226.956      120.835       51.832      102.959       92.543       71.038    10600.624     8564.241     5046.436        4.650        1.211      257.119       55.333        0.046      336.162        7.275      868.089
03/11/2014  19:51:00      229.742       89.607       59.346      138.390      101.693       76.264    19151.836    10341.558     5816.224        4.981        1.765      246.599       66.610        0.073      336.179        7.303      868.085
03/11/2014  19:52:00      197.088       80.628       27.520      138.532       75.222       68.945    19191.003     5658.321     4753.427        3.785        1.480      212.943       58.284        0.075      336.194        7.331      868.087
03/11/2014  19:53:00      132.095       62.599       43.018       95.605       61.054       53.263     9140.410     3727.618     2836.915        1.946        0.785      146.177       42.955        0.086      336.120        7.208      868.058
03/11/2014  19:54:00      204.764       96.312       36.053       89.433       55.246       53.826     7998.182     3052.139     2897.237        3.322        0.697      226.284       47.987        0.045      336.114        7.194      868.062
03/11/2014  19:55:00      229.605       97.178       44.746       84.032       90.370       69.646     7061.430     8166.672     4850.524        4.212        1.004      249.323       46.532        0.035      336.127        7.216      868.078
03/11/2014  19:56:00      199.074      104.751       36.972      115.075       76.657       70.407    13242.359     5876.331     4957.195        3.802        1.204      224.952       50.601        0.051      336.125        7.215      868.092
03/11/2014  19:57:00      186.832      106.420       51.811      115.765       77.283       51.530    13401.553     5972.592     2655.375        3.547        1.101      215.015       45.097        0.044      336.085        7.148      868.108
03/11/2014  19:58:00      202.298      112.895       44.484       95.642       80.432       58.258     9147.371     6469.364     3394.044        3.733        0.951      231.667       39.747        0.029      336.119        7.203      868.124
03/11/2014  19:59:00      202.178       86.202       56.856      114.787       79.905       74.955    13175.988     6384.848     5618.240        3.835        1.259      219.788       56.146        0.065      336.107        7.184      868.143
03/11/2014  20:00:00      194.005       76.760       41.511      123.219      104.476       79.074    15182.872    10915.314     6252.722        3.880        1.618      208.638       65.143        0.097      336.125        7.215      868.145
03/11/2014  20:01:00      111.257       61.736       24.716       63.368       46.188       44.001     4015.506     2133.315     1936.050        1.244        0.404      127.238       32.319        0.065      336.047        7.087      868.169
03/11/2014  20:02:00      179.916      132.764       71.282       81.819       52.812       61.304     6694.338     2789.091     3758.183        3.416        0.662      223.598       34.614        0.024      336.072        7.125      868.174
03/11/2014  20:03:00      172.324      126.452       57.607       66.998       53.113       50.460     4488.746     2821.012     2546.193        2.943        0.493      213.742       28.569        0.018      335.991        6.990      868.192
03/11/2014  20:04:00      249.600      139.296       61.448       78.428       65.320       54.967     6150.944     4266.682     3021.337        4.946        0.672      285.839       34.271        0.014      336.028        7.052      868.187
03/11/2014  20:05:00      240.264      114.703       50.527      107.772      109.381       62.446    11614.782    11964.235     3899.532        5.045        1.374      266.240       44.507        0.028      336.053        7.094      868.189
03/11/2014  20:06:00      182.659       75.387       46.152       83.502       74.970       55.080     6972.501     5620.538     3033.842        2.840        0.781      197.605       47.974        0.059      335.965        6.947      868.187
03/11/2014  20:07:00      193.735       91.642       69.735      141.268       91.035       86.785    19956.756     8287.313     7531.712        4.328        1.789      214.316       68.883        0.103      336.046        7.082      868.175
03/11/2014  20:08:00      173.250       95.997       87.808      142.361       97.849       85.093    20266.708     9574.402     7240.895        4.200        1.854      198.068       77.891        0.155      336.114        7.196      868.180
03/11/2014  20:09:00       48.375      102.286      107.507       75.481       57.686       47.393     5697.396     3327.645     2246.128        1.781        0.564      113.149       43.898        0.151      336.060        7.107      868.220
03/11/2014  20:10:00      196.991       90.090       27.834       95.862       62.588       63.261     9189.608     3917.304     4001.982        3.240        0.855      216.614       50.092        0.053      336.045        7.080      868.240
03/11/2014  20:11:00      200.409       66.830       49.173      120.740       95.710       71.347    14578.047     9160.387     5090.433        3.793        1.441      211.258       42.583        0.041      336.031        7.056      868.245
03/11/2014  20:12:00      205.250      107.622       71.958      130.434       90.250       79.416    17013.126     8145.097     6306.850        4.517        1.573      231.754       68.868        0.088      336.038        7.069      868.266
03/11/2014  20:13:00      180.212       88.778       95.550      134.938       92.026       70.605    18208.326     8468.762     4985.118        4.057        1.583      200.892       78.111        0.151      336.053        7.094      868.274
03/11/2014  20:14:00      137.843       94.655       60.797       90.840       67.717       69.196     8251.900     4585.616     4788.072        2.464        0.881      167.213       62.163        0.138      335.988        6.986      868.297
03/11/2014  20:15:00      156.272       99.019       61.031       69.761       64.777       51.263     4866.630     4196.008     2627.885        2.482        0.585      185.002       33.757        0.033      335.946        6.916      868.309
03/11/2014  20:16:00      163.766       61.609       15.434       96.695       65.938       57.336     9349.971     4347.831     3287.388        2.392        0.849      174.972       33.309        0.036      335.976        6.965      868.312
03/11/2014  20:17:00       82.477       73.548       53.172       75.412       56.719       63.275     5686.959     3217.040     4003.746        1.397        0.645      110.507       51.130        0.214      335.912        6.861      868.319
03/11/2014  20:18:00      174.653      106.043       63.810       96.362       85.331       84.842     9285.613     7281.366     7198.230        3.479        1.188      204.325       63.823        0.098      335.967        6.950      868.336
03/11/2014  20:19:00      219.862      105.619       64.260      126.590       90.734       68.373    16025.042     8232.708     4674.815        4.627        1.447      243.915       52.217        0.046      335.999        7.004      868.342
03/11/2014  20:20:00      182.554      110.667       65.610      101.595       66.060       52.418    10321.566     4363.904     2747.636        3.365        0.872      213.478       37.197        0.030      335.987        6.984      868.348
03/11/2014  20:21:00      151.086       87.000       43.786      103.170       68.350       50.257    10644.099     4671.773     2525.777        2.507        0.892      174.345       54.838        0.099      335.924        6.878      868.366
03/11/2014  20:22:00      143.364       66.967       45.789       82.707       61.987       52.606     6840.378     3842.375     2767.435        2.029        0.673      158.234       44.940        0.081      335.903        6.844      868.369
03/11/2014  20:23:00      150.217       69.422       38.843       77.473       50.437       50.193     6002.134     2543.934     2519.362        1.998        0.553      165.483       38.053        0.053      335.896        6.833      868.362
03/11/2014  20:24:00      143.090       81.639       35.356       61.961       35.783       41.912     3839.170     1280.452     1756.636        1.763        0.344      164.741       36.319        0.049      335.828        6.721      868.369
03/11/2014  20:25:00      157.225       91.826       47.982       62.499       46.725       41.563     3906.098     2183.265     1727.506        2.163        0.391      182.076       34.619        0.036      335.828        6.719      868.376
03/11/2014  20:26:00      128.104       49.352       23.685       60.151       53.012       39.105     3618.084     2810.237     1529.189        1.368        0.398      137.282       22.288        0.026      335.776        6.635      868.384
03/11/2014  20:27:00      132.235       69.154       13.104       60.127       42.563       33.443     3615.228     1811.567     1118.407        1.449        0.327      149.226       26.535        0.032      335.754        6.599      868.398
03/11/2014  20:28:00      157.512      101.521       34.196       53.809       44.138       45.213     2895.450     1948.178     2044.230        2.159        0.344      187.394       20.867        0.012      335.799        6.672      868.408
03/11/2014  20:29:00      111.804       60.049       14.812       62.775       36.835       31.248     3940.694     1356.833      976.435        1.130        0.314      126.910       15.541        0.015      335.717        6.536      868.428
03/11/2014  20:30:00      150.006       92.298       22.895       60.784       51.032       45.823     3694.722     2604.264     2099.702        1.997        0.420      176.127       26.979        0.023      335.757        6.602      868.437
03/11/2014  20:31:00      133.311       72.126        9.552       60.159       55.283       38.195     3619.054     3056.200     1458.890        1.560        0.407      151.572       32.026        0.045      335.717        6.537      868.439
03/11/2014  20:32:00      108.208       65.662       12.766       44.991       36.276       28.430     2024.206     1315.948      808.247        1.017        0.207      126.573       21.094        0.028      335.631        6.395      868.444
03/11/2014  20:33:00      118.878       55.760       10.147       51.519       42.425       35.459     2654.160     1799.873     1257.325        1.153        0.286      131.306       22.290        0.029      335.658        6.439      868.453
03/11/2014  20:34:00      124.956       83.906       19.102       40.455       29.425       28.320     1636.647      865.833      801.997        1.316        0.165      150.514       14.729        0.010      335.632        6.395      868.449
03/11/2014  20:35:00      140.556       92.979       23.922       33.631       29.696       27.081     1131.037      881.882      733.396        1.586        0.137      168.526       12.326        0.005      335.650        6.425      868.442
03/11/2014  20:36:00      128.391       66.682       14.635       47.496       38.328       28.880     2255.848     1469.061      834.056        1.285        0.228      144.675       16.785        0.013      335.621        6.377      868.434
03/11/2014  20:37:00       95.917       55.476       22.990       47.723       34.907       34.225     2277.518     1218.495     1171.351        0.874        0.233      110.805       13.533        0.015      335.599        6.340      868.428
03/11/2014  20:38:00      124.249       85.049       15.447       41.270       35.632       24.348     1703.188     1269.620      592.806        1.324        0.178      150.570       15.550        0.011      335.594        6.333      868.430
03/11/2014  20:39:00      114.189       77.240        9.642       49.217       33.499       23.913     2422.336     1122.175      571.814        1.161        0.206      137.859       10.549        0.006      335.546        6.253      868.440
03/11/2014  20:40:00      137.488       99.067       38.084       42.670       38.508       39.639     1820.713     1482.899     1571.236        1.752        0.244      169.461       22.035        0.017      335.632        6.396      868.450
03/11/2014  20:41:00      120.043       72.920       39.293       34.194       26.902       27.978     1169.253      723.700      782.780        1.197        0.134      140.455       18.426        0.017      335.567        6.288      868.450
03/11/2014  20:42:00      129.288       69.043       26.754       25.799       22.202       22.783      665.591      492.933      519.076        1.194        0.084      146.568       13.681        0.009      335.582        6.312      868.453
03/11/2014  20:43:00       92.495       49.198       18.718       54.626       28.592       24.713     2983.978      817.507      610.740        0.787        0.221      104.766       14.745        0.020      335.503        6.180      868.466
03/11/2014  20:44:00      156.983       80.441       24.738       55.673       48.374       41.906     3099.429     2340.006     1756.098        1.946        0.360      176.393       36.341        0.042      335.719        6.539      868.481
03/11/2014  20:45:00      119.337       61.388       15.344       48.454       37.493       31.404     2347.757     1405.705      986.222        1.149        0.237      134.200       21.577        0.026      335.580        6.308      868.501
03/11/2014  20:46:00      103.175       55.666       11.048       38.121       37.507       23.707     1453.232     1406.762      562.029        0.864        0.171      117.234       19.701        0.028      335.515        6.201      868.504
03/11/2014  20:47:00      116.802       85.454       29.967       38.748       31.977       25.980     1501.421     1022.541      674.934        1.252        0.160      144.724       20.982        0.021      335.582        6.312      868.495
03/11/2014  20:48:00       86.501       46.755       15.899       35.617       33.465       22.388     1268.544     1119.926      501.204        0.640        0.144       98.329       19.411        0.039      335.532        6.229      868.490
03/11/2014  20:49:00      119.401       56.297       11.598       36.899       27.698       24.346     1361.505      767.169      592.748        1.014        0.136      132.008       17.659        0.018      335.525        6.217      868.487
03/11/2014  20:50:00      100.108       49.292        8.301       29.304       22.426       19.383      858.732      502.938      375.709        0.713        0.087      111.585       12.394        0.012      335.447        6.087      868.484
03/11/2014  20:51:00      103.350       58.586       19.002       42.333       37.848       27.300     1792.045     1432.448      745.296        0.922        0.198      118.801       18.396        0.024      335.421        6.042      868.483
03/11/2014  20:52:00      104.167       51.373       38.044       44.071       38.924       36.421     1942.239     1515.067     1326.504        0.986        0.239      116.146       30.309        0.068      335.517        6.204      868.472
03/11/2014  20:53:00       95.326       65.057       29.506       43.022       27.591       25.695     1850.881      761.242      660.216        0.873        0.164      115.410       22.083        0.037      335.428        6.054      868.468
03/11/2014  20:54:00      112.831       57.512        9.299       48.379       26.581       26.118     2340.533      706.560      682.172        0.993        0.186      126.643       26.100        0.042      335.458        6.104      868.466
03/11/2014  20:55:00      127.923       75.466       -1.462       33.235       28.749       16.961     1104.553      826.521      287.687        1.214        0.111      148.524       13.914        0.009      335.492        6.161      868.475
03/11/2014  20:56:00      116.737       43.552       -0.555       38.193       34.243       24.213     1458.690     1172.575      586.286        0.937        0.161      124.596       16.055        0.017      335.461        6.111      868.480
03/11/2014  20:57:00       80.669       34.168        5.228       32.924       27.311       25.147     1083.973      745.905      632.353        0.508        0.123       87.607       15.443        0.031      335.348        5.921      868.495
03/11/2014  20:58:00       97.772       44.754       29.523       41.771       32.274       32.217     1744.805     1041.583     1037.915        0.813        0.191      107.528       24.633        0.052      335.422        6.044      868.498
03/11/2014  20:59:00      104.185       51.761       21.495       31.950       25.445       22.434     1020.824      647.427      503.281        0.808        0.109      116.335        7.823        0.005      335.386        5.984      868.499
03/11/2014  21:00:00       99.743       41.056       38.036       45.643       37.597       30.759     2083.278     1413.566      946.130        0.876        0.222      107.862       25.799        0.057      335.452        6.095      868.507
03/11/2014  21:01:00       93.675       45.139       13.363       38.231       33.201       28.053     1461.600     1102.298      786.997        0.717        0.168      103.984       19.692        0.036      335.398        6.005      868.506
03/11/2014  21:02:00      106.975       62.253       43.516       38.478       32.984       32.830     1480.529     1087.920     1077.803        1.043        0.182      123.771       18.993        0.024      335.481        6.143      868.511
03/11/2014  21:03:00       87.115       45.441       46.487       61.665       41.422       35.872     3802.561     1715.758     1286.830        0.931        0.340       98.254       34.210        0.121      335.489        6.156      868.517
03/11/2014  21:04:00       79.474       47.427       37.517       35.232       35.364       26.646     1241.299     1250.617      709.993        0.659        0.160       92.549       14.349        0.024      335.411        6.027      868.521
03/11/2014  21:05:00      115.904       61.197       17.617       28.322       34.341       22.155      802.149     1179.278      490.822        0.998        0.124      131.068       16.444        0.016      335.385        5.982      868.506
03/11/2014  21:06:00      118.125       60.295       20.200       33.865       31.064       27.017     1146.835      964.972      729.916        1.042        0.142      132.624       16.923        0.016      335.496        6.170      868.497
03/11/2014  21:07:00      136.851       63.042       19.857       37.352       30.629       23.089     1395.135      938.161      533.123        1.298        0.143      150.673       15.320        0.010      335.517        6.203      868.486
03/11/2014  21:08:00      107.336       62.326       51.196       58.482       46.740       52.336     3420.095     2184.672     2739.056        1.318        0.417      124.119       43.243        0.121      335.524        6.216      868.491
03/11/2014  21:09:00      145.034       49.414       31.765       58.307       47.319       39.523     3399.740     2239.125     1562.050        1.584        0.360      153.221       35.362        0.053      335.485        6.150      868.498
03/11/2014  21:10:00      146.537       88.575       63.890       89.182       73.636       62.487     7953.488     5422.331     3904.563        2.534        0.864      171.226       49.327        0.083      335.550        6.258      868.504
03/11/2014  21:11:00       46.141       43.772       44.558       44.756       39.843       38.886     2003.136     1587.488     1512.097        0.557        0.255       63.600       29.240        0.211      335.452        6.095      868.523
03/11/2014  21:12:00       87.407       64.530       46.154       56.259       36.118       37.237     3165.118     1304.483     1386.571        0.989        0.293      108.646       31.907        0.086      335.487        6.154      868.522
03/11/2014  21:13:00      111.261       67.114       18.194       41.540       31.629       29.941     1725.577     1000.375      896.481        1.042        0.181      129.936       23.381        0.032      335.454        6.098      868.533
03/11/2014  21:14:00      130.250       67.920        5.974       40.952       33.867       23.674     1677.053     1146.975      560.438        1.250        0.169      146.895       19.062        0.017      335.393        5.997      868.538
03/11/2014  21:15:00      100.736       48.403        7.897       26.137       32.625       23.882      683.164     1064.361      570.354        0.743        0.116      111.761       15.443        0.019      335.339        5.906      868.538
03/11/2014  21:16:00      101.329       65.285       16.598       42.787       31.874       25.395     1830.767     1015.948      644.899        0.915        0.175      120.539       17.350        0.021      335.344        5.915      868.534
03/11/2014  21:17:00      148.064       73.157       46.451       56.117       43.826       42.976     3149.076     1920.725     1846.971        1.817        0.346      165.151       27.342        0.027      335.400        6.007      868.533
03/11/2014  21:18:00      145.721       61.042       21.405       71.549       41.762       36.396     5119.245     1744.106     1324.641        1.680        0.409      157.989       25.391        0.026      335.538        6.238      868.527
03/11/2014  21:19:00       98.260       66.163       32.173       54.037       31.598       32.661     2920.051      998.443     1066.721        1.003        0.249      118.459       31.304        0.070      335.412        6.027      868.521
03/11/2014  21:20:00      125.501       58.544        5.832       48.006       36.764       35.107     2304.582     1351.617     1232.535        1.205        0.244      138.484       16.061        0.013      335.376        5.967      868.514
03/11/2014  21:21:00      162.469       68.806       17.860       51.788       49.331       32.956     2682.031     2433.523     1086.074        1.882        0.310      176.438       21.375        0.015      335.503        6.178      868.499
03/11/2014  21:22:00       82.300       34.031       17.885       55.443       41.449       35.336     3073.950     1718.058     1248.626        0.714        0.302       89.059       32.920        0.137      335.355        5.934      868.488
03/11/2014  21:23:00       63.126       53.756       40.820       29.989       20.757       22.969      899.326      430.872      527.566        0.520        0.093       82.913       16.343        0.039      335.286        5.818      868.482
03/11/2014  21:24:00      109.878       69.944       13.920       28.069       19.449       19.191      787.895      378.260      368.292        0.935        0.077      130.251       14.768        0.013      335.317        5.870      868.479
03/11/2014  21:25:00      113.894       49.049        4.258       30.648       34.473       17.889      939.274     1188.371      320.013        0.892        0.122      124.007       14.942        0.015      335.336        5.902      868.481
03/11/2014  21:26:00       83.143       58.211        1.202       26.004       21.881       16.812      676.226      478.794      282.658        0.587        0.072      101.495        7.672        0.006      335.314        5.865      868.488
03/11/2014  21:27:00       78.999       54.001        8.311       40.899       30.863       24.037     1672.709      952.523      577.756        0.621        0.160       95.692       16.613        0.030      335.302        5.845      868.515
03/11/2014  21:28:00       73.538       51.196       16.251       46.905       29.278       18.693     2200.099      857.219      349.431        0.585        0.170       89.604       12.021        0.018      335.276        5.803      868.530
03/11/2014  21:29:00       63.380       49.888        1.361       25.628       18.478       18.731      656.779      341.420      350.866        0.393        0.067       80.659       10.858        0.018      335.245        5.750      868.551
03/11/2014  21:30:00       92.587       65.162        9.590       32.152       20.093       18.742     1033.775      403.713      351.260        0.735        0.089      113.218       17.456        0.024      335.268        5.787      868.555
03/11/2014  21:31:00       76.823       58.509        7.065       34.776       25.310       16.976     1209.353      640.575      288.169        0.576        0.107       96.566       12.525        0.017      335.247        5.753      868.568
03/11/2014  21:32:00       88.228       64.253       13.075       44.746       23.743       23.966     2002.226      563.727      574.389        0.761        0.157      109.145       16.021        0.022      335.284        5.814      868.583
03/11/2014  21:33:00      140.781       93.650       21.974       21.304       22.349       22.768      453.843      499.499      518.381        1.527        0.074      169.085       11.756        0.005      335.298        5.839      868.588
03/11/2014  21:34:00      121.389       77.658       20.550       26.370       27.159       26.105      695.392      737.624      681.482        1.165        0.106      144.105       18.097        0.016      335.279        5.807      868.585
03/11/2014  21:35:00      108.890       67.857       21.692       40.378       34.599       34.589     1630.365     1197.109     1196.380        1.048        0.201      128.302       24.123        0.035      335.247        5.753      868.587
03/11/2014  21:36:00      131.617       87.012       25.657       39.465       25.376       23.580     1557.513      643.964      556.028        1.415        0.138      157.779       15.119        0.009      335.279        5.806      868.603
03/11/2014  21:37:00      107.637       77.793       15.104       35.438       29.412       24.537     1255.829      865.087      602.043        1.029        0.136      132.806        9.278        0.005      335.232        5.727      868.612
03/11/2014  21:38:00       88.196       62.656       19.242       41.735       28.961       31.725     1741.775      838.714     1006.444        0.783        0.179      108.187       19.751        0.033      335.197        5.670      868.626
03/11/2014  21:39:00       82.290       45.236       22.947       52.925       43.548       24.210     2801.063     1896.450      586.140        0.731        0.264       93.904       15.517        0.027      335.182        5.646      868.633
03/11/2014  21:40:00      130.858       91.690       20.142       46.113       29.049       31.009     2126.406      843.867      961.542        1.493        0.197      159.784       16.304        0.010      335.264        5.782      868.622
03/11/2014  21:41:00      114.158       84.964        9.391       33.062       25.613       28.481     1093.095      656.013      811.188        1.145        0.128      142.306       16.244        0.013      335.253        5.764      868.608
03/11/2014  21:42:00      100.383       70.792       14.384       41.859       30.999       28.966     1752.216      960.908      839.021        0.942        0.178      122.834       17.349        0.020      335.216        5.701      868.601
03/11/2014  21:43:00       50.995       39.407       11.829       34.364       33.066       30.394     1180.895     1093.376      923.801        0.375        0.160       64.447       20.746        0.104      335.175        5.634      868.601
03/11/2014  21:44:00       43.517       78.760       -7.335       28.931       40.734       26.616      836.993     1659.222      708.400        0.568        0.160       89.983       22.082        0.060      335.199        5.672      868.617
03/11/2014  21:45:00       27.634      101.819       -8.074       24.099       36.644       25.079      580.748     1342.805      628.938        0.687        0.128      105.502       24.228        0.053      335.084        5.484      868.635
03/11/2014  21:46:00       42.498       78.412       -3.258       27.648       32.843       22.100      764.435     1078.641      488.414        0.515        0.117       89.188       21.970        0.061      335.122        5.547      868.643
03/11/2014  21:47:00       60.601       58.239       13.233       40.891       37.367       25.766     1672.049     1396.285      663.885        0.549        0.187       84.049       19.540        0.054      335.118        5.541      868.648
03/11/2014  21:48:00       90.978       98.369        6.744       57.270       35.487       36.789     3279.889     1259.320     1353.439        1.194        0.295      133.990       22.860        0.029      335.296        5.836      868.632
03/11/2014  21:49:00       48.894       73.163       -7.950       40.050       31.719       22.549     1603.994     1006.118      508.471        0.546        0.156       87.997       15.673        0.032      335.232        5.728      868.614
03/11/2014  21:50:00       61.609       60.008        0.668       42.174       32.844       25.857     1778.657     1078.723      668.560        0.546        0.176       86.004       18.859        0.048      335.152        5.597      868.612
03/11/2014  21:51:00       94.751       71.362       15.445       69.611       39.354       34.051     4845.674     1548.744     1159.485        1.093        0.378      118.618       25.673        0.047      335.290        5.824      868.611
03/11/2014  21:52:00      106.088       73.046       10.202       52.539       38.314       28.469     2760.298     1467.976      810.473        1.087        0.252      128.804       16.564        0.017      335.288        5.821      868.622
03/11/2014  21:53:00       85.628       55.586        5.913       26.835       21.052       18.855      720.117      443.206      355.509        0.599        0.076      102.088        8.724        0.007      335.176        5.634      868.638
03/11/2014  21:54:00       55.703       42.128       15.863       34.728       22.984       23.504     1206.003      528.244      552.428        0.371        0.114       69.840       12.660        0.033      335.132        5.563      868.643
03/11/2014  21:55:00       74.672       47.152        8.380       24.268       27.836       29.086      588.932      774.826      845.971        0.504        0.110       88.313       19.325        0.048      335.179        5.640      868.642
03/11/2014  21:56:00       73.063       63.149        5.247       41.540       35.579       32.088     1725.570     1265.848     1029.617        0.669        0.201       96.571       27.305        0.080      335.137        5.570      868.649
03/11/2014  21:57:00       92.659       61.191       14.244       53.663       29.992       28.511     2879.669      899.508      812.876        0.856        0.230      111.040       17.646        0.025      335.222        5.712      868.647
03/11/2014  21:58:00      136.860       92.889       23.688       39.730       29.399       28.745     1578.470      864.272      826.273        1.559        0.163      165.406       18.094        0.012      335.160        5.610      868.646
03/11/2014  21:59:00      105.382       73.156       13.380       37.290       32.179       29.400     1390.563     1035.482      864.359        0.996        0.165      128.285       22.102        0.030      335.123        5.549      868.636
03/11/2014  22:00:00      147.401      100.618       15.417       53.435       46.323       39.536     2855.332     2145.817     1563.134        1.933        0.328      178.468       24.389        0.019      335.150        5.592      868.636
03/11/2014  22:01:00       89.797       62.737       33.259       40.502       29.786       29.176     1640.396      887.219      851.235        0.824        0.169      109.541       23.686        0.047      335.062        5.448      868.626
03/11/2014  22:02:00       92.436       35.271       25.210       37.660       27.450       29.397     1418.280      753.530      864.199        0.673        0.152       98.937       24.796        0.063      335.053        5.431      868.609
03/11/2014  22:03:00       94.087       53.748       22.504       33.489       27.633       30.823     1121.492      763.558      950.067        0.754        0.142      108.357       24.970        0.053      335.052        5.431      868.604
03/11/2014  22:04:00      128.525       75.841       29.364       40.573       36.093       32.556     1646.181     1302.669     1059.905        1.357        0.200      149.233       20.701        0.019      335.086        5.488      868.603
03/11/2014  22:05:00      121.973       71.865       25.681       42.485       29.158       33.559     1804.999      850.171     1126.189        1.224        0.189      141.570       25.192        0.032      335.146        5.586      868.603
03/11/2014  22:06:00      133.223       79.769       12.146       50.718       38.582       27.772     2572.297     1488.583      771.310        1.454        0.242      155.279       26.975        0.030      335.127        5.555      868.603
03/11/2014  22:07:00      137.057       45.447       14.958       65.445       45.727       41.176     4283.113     2090.938     1695.475        1.457        0.403      144.396       17.578        0.015      335.191        5.662      868.592
03/11/2014  22:08:00      117.443       49.040       18.537       39.059       36.336       31.431     1525.627     1320.334      987.900        1.019        0.192      127.270       22.800        0.032      335.051        5.428      868.585
03/11/2014  22:09:00      104.556       60.835       15.948       55.827       35.428       30.658     3116.700     1255.153      939.911        1.010        0.266      120.966       26.788        0.049      335.094        5.500      868.574
03/11/2014  22:10:00       68.177       62.576       20.424       29.395       27.484       27.114      864.088      755.362      735.192        0.567        0.118       92.541       18.446        0.040      334.991        5.330      868.574
03/11/2014  22:11:00       84.630       50.922       12.940       27.262       18.008       16.127      743.214      324.286      260.077        0.562        0.066       98.769       10.574        0.011      334.971        5.296      868.583
03/11/2014  22:12:00      110.484       70.882       25.463       38.191       36.162       27.071     1458.588     1307.692      732.818        1.069        0.175      131.267       19.328        0.022      335.044        5.418      868.596
03/11/2014  22:13:00      177.009       97.514       43.802       54.216       44.497       35.775     2939.416     1979.953     1279.882        2.448        0.310      202.092       21.507        0.011      335.109        5.521      868.603
03/11/2014  22:14:00      123.432       57.797        4.703       59.623       37.740       36.909     3554.899     1424.271     1362.248        1.247        0.317      136.293       24.653        0.033      335.001        5.344      868.615
03/11/2014  22:15:00      131.572       56.663       11.219       49.259       36.542       30.812     2426.411     1335.335      949.369        1.268        0.236      143.255       11.352        0.006      335.005        5.351      868.622
03/11/2014  22:16:00       91.031       40.608       20.660       46.061       40.914       30.914     2121.651     1673.918      955.657        0.756        0.238       99.678       20.848        0.044      334.946        5.254      868.622
03/11/2014  22:17:00      102.642       62.304       18.904       27.874       19.510       18.208      776.982      380.650      331.529        0.813        0.074      120.071        7.944        0.004      334.855        5.102      868.618
03/11/2014  22:18:00      117.872       73.361       11.673       45.674       33.806       28.849     2086.150     1142.815      832.270        1.174        0.203      138.837        6.997        0.003      334.921        5.214      868.626
03/11/2014  22:19:00      103.122       45.491       13.028       44.753       36.281       25.802     2002.817     1316.326      665.744        0.843        0.199      112.710       14.820        0.017      334.906        5.189      868.630
03/11/2014  22:20:00       99.158       51.520        3.053       43.148       26.434       19.027     1861.781      698.768      362.028        0.771        0.146      111.743        8.908        0.006      334.873        5.132      868.620
03/11/2014  22:21:00      106.271       47.232        7.417       45.736       32.476       25.402     2091.765     1054.664      645.255        0.868        0.190      116.294       10.024        0.007      334.906        5.187      868.615
03/11/2014  22:22:00       95.031       60.542       34.186       44.545       30.495       30.341     1984.290      929.952      920.605        0.885        0.192      112.677       18.200        0.026      334.874        5.135      868.616
03/11/2014  22:23:00      132.737       75.175       31.796       42.627       30.204       29.748     1817.064      912.295      884.955        1.395        0.181      152.547        9.593        0.004      334.908        5.191      868.615
03/11/2014  22:24:00       89.774       51.335       17.226       34.211       27.703       26.984     1170.383      767.458      728.119        0.683        0.133      103.415       15.064        0.021      334.835        5.069      868.624
03/11/2014  22:25:00       80.665       56.353        7.145       30.254       27.434       19.286      915.296      752.643      371.962        0.589        0.102       98.400       12.971        0.017      334.782        4.981      868.631
03/11/2014  22:26:00       95.306       43.538       12.828       30.576       26.318       20.391      934.918      692.654      415.813        0.659        0.102      104.780        5.793        0.003      334.808        5.023      868.642
03/11/2014  22:27:00       88.969       48.118       15.330       34.218       25.026       21.588     1170.889      626.292      466.048        0.636        0.113      101.148       15.296        0.023      334.752        4.931      868.656
03/11/2014  22:28:00       90.113       37.284        4.769       55.665       33.561       32.727     3098.597     1126.359     1071.041        0.741        0.265       97.521       24.699        0.064      334.787        4.990      868.671
03/11/2014  22:29:00       80.030       38.983       16.122       36.293       26.947       34.598     1317.211      726.164     1197.049        0.571        0.162       89.020       21.798        0.060      334.752        4.933      868.683
03/11/2014  22:30:00       71.996       33.190       18.243       29.401       24.876       25.950      864.444      618.829      673.409        0.439        0.108       79.277       17.047        0.046      334.657        4.773      868.687
03/11/2014  22:31:00       81.192       13.887        3.919       34.015       26.380       21.547     1156.999      695.892      464.282        0.456        0.116       82.371       15.812        0.037      334.740        4.912      868.674
03/11/2014  22:32:00       87.027       57.857       11.816       26.510       24.865       20.999      702.785      618.265      440.962        0.641        0.088      104.505       14.346        0.019      334.740        4.914      868.651
03/11/2014  22:33:00       70.862       43.707       15.925       24.336       17.045       20.116      592.258      290.547      404.665        0.424        0.064       83.257       16.069        0.037      334.702        4.848      868.639
03/11/2014  22:34:00       89.473       38.497        5.052       19.601       13.788       16.902      384.216      190.105      285.678        0.519        0.043       97.404        9.135        0.009      334.766        4.955      868.637
03/11/2014  22:35:00       64.835       35.049       15.628       21.919       19.924       18.870      480.444      396.953      356.065        0.345        0.062       73.702       12.833        0.030      334.735        4.905      868.665
03/11/2014  22:36:00       70.845       38.260       11.555       13.419       17.637       14.087      180.062      311.072      198.446        0.365        0.034       80.516        9.195        0.013      334.657        4.772      868.680
03/11/2014  22:37:00       70.428       34.957        0.957       17.359       14.096       15.026      301.343      198.684      225.768        0.345        0.036       78.626       11.899        0.023      334.690        4.830      868.690
03/11/2014  22:38:00       59.605       44.096        6.773       17.929       13.761       12.006      321.461      189.374      144.140        0.310        0.033       74.144        6.253        0.007      334.620        4.713      868.698
03/11/2014  22:39:00       57.224       49.689       19.060       21.124       16.663       18.925      446.210      277.646      358.161        0.359        0.054       75.786       10.638        0.020      334.606        4.689      868.702
03/11/2014  22:40:00       62.768       50.111       22.351       25.810       16.364       16.685      666.162      267.774      278.388        0.408        0.061       80.318       14.366        0.032      334.612        4.699      868.707
03/11/2014  22:41:00       28.914       25.194       28.735       31.608       33.080       16.973      999.042     1094.287      288.091        0.234        0.119       38.350       16.861        0.193      334.555        4.605      868.725
03/11/2014  22:42:00       73.337       18.324       13.631       29.555       22.098       19.195      873.515      488.311      368.445        0.381        0.087       75.591       14.261        0.036      334.572        4.633      868.735
03/11/2014  22:43:00       35.489        7.969       23.734       30.875       18.805       20.561      953.267      353.633      422.769        0.181        0.086       36.373       18.761        0.266      334.566        4.623      868.731
03/11/2014  22:44:00       48.044       38.716       35.376       28.301       19.812       24.951      800.969      392.519      622.548        0.344        0.091       61.702       17.774        0.083      334.549        4.594      868.710
03/11/2014  22:45:00       92.947        8.559       32.261       37.948       47.442       30.123     1440.039     2250.706      907.403        0.717        0.230       93.340       30.181        0.105      334.630        4.730      868.688
03/11/2014  22:46:00       98.625       67.940       64.282       70.224       48.306       44.537     4931.371     2333.425     1983.585        1.386        0.462      119.761       36.266        0.092      334.645        4.754      868.701
03/11/2014  22:47:00      137.775       24.657       44.616       87.673       65.536       61.074     7686.541     4294.958     3730.031        1.864        0.786      139.964       47.837        0.117      334.703        4.849      868.699
03/11/2014  22:48:00      122.394       32.070       68.354       87.152       73.785       49.743     7595.476     5444.185     2474.395        1.809        0.776      126.526       49.112        0.151      334.738        4.906      868.707
03/11/2014  22:49:00      103.153       40.230       61.124       77.285       70.230       62.040     5973.005     4932.284     3849.004        1.537        0.738      110.720       57.416        0.269      334.740        4.911      868.715
03/11/2014  22:50:00      104.110       56.273       39.849       67.169       48.528       48.129     4511.689     2354.940     2316.386        1.239        0.459      118.345       34.993        0.087      334.698        4.842      868.704
03/11/2014  22:51:00       83.937        3.464       27.387       73.515       49.988       44.136     5404.444     2498.845     1947.943        0.883        0.493       84.008       39.228        0.218      334.658        4.776      868.695
03/11/2014  22:52:00      142.048       20.388       17.348       51.575       45.080       41.872     2659.990     2032.215     1753.268        1.367        0.322      143.504       30.803        0.046      334.699        4.842      868.678
03/11/2014  22:53:00      114.458       84.182       58.127       66.074       61.513       51.915     4365.826     3783.861     2695.209        1.720        0.542      142.082       44.693        0.099      334.720        4.877      868.695
03/11/2014  22:54:00       58.312       70.027       81.079       69.003       58.525       51.546     4761.352     3425.180     2656.939        1.286        0.542       91.127       33.283        0.133      334.747        4.922      868.711
03/11/2014  22:55:00       81.445       46.116       61.699       56.408       71.658       60.669     3181.822     5134.884     3680.736        1.228        0.600       93.595       37.342        0.159      334.794        5.001      868.724
03/11/2014  22:56:00       67.712      100.211      124.621       76.076       93.182       56.973     5787.604     8682.951     3245.889        2.393        0.886      120.942       60.021        0.246      334.966        5.288      868.733
03/11/2014  22:57:00       62.869       36.070       58.380       54.599       75.828       50.774     2981.082     5749.822     2578.047        0.998        0.565       72.481       45.598        0.396      334.934        5.235      868.737
03/11/2014  22:58:00      110.582       67.117      110.377       75.329       77.931       52.602     5674.479     6073.183     2766.949        2.171        0.726      129.356       53.598        0.172      335.002        5.346      868.752
03/11/2014  22:59:00       67.236       59.540       86.361       75.793       79.736       56.945     5744.547     6357.885     3242.785        1.543        0.767       89.809       44.025        0.240      334.986        5.321      868.740
03/11/2014  23:00:00       67.227       77.478      119.048       78.894       68.751       56.622     6224.226     4726.653     3206.080        1.942        0.708      102.578       50.757        0.245      334.991        5.329      868.725
03/11/2014  23:01:00       84.019       56.944      104.465       82.541       69.505       50.988     6813.020     4830.916     2599.758        1.773        0.712      101.498       43.639        0.185      334.995        5.335      868.712
03/11/2014  23:02:00      165.034      -25.887       60.928      124.104       93.413       74.943    15401.795     8726.031     5616.387        3.068        1.487      167.052       64.749        0.150      335.061        5.445      868.683
03/11/2014  23:03:00       53.785       57.482       88.995       69.197       84.428       62.453     4788.286     7128.057     3900.359        1.496        0.791       78.721       59.696        0.575      335.013        5.365      868.672
03/11/2014  23:04:00      105.648       41.575      101.589       98.341       89.852       71.312     9671.019     8073.385     5085.333        2.302        1.141      113.534       67.950        0.358      335.037        5.404      868.686
03/11/2014  23:05:00      120.606       77.629      118.516      101.066       99.908       67.596    10214.303     9981.586     4569.265        2.969        1.238      143.430       59.476        0.172      335.060        5.444      868.695
03/11/2014  23:06:00       73.550       61.452       84.246       89.563       68.737       44.687     8021.486     4724.764     1996.959        1.551        0.737       95.843       42.539        0.197      335.038        5.409      868.695
03/11/2014  23:07:00       65.417       72.788      101.929       49.153       57.802       34.247     2416.060     3341.079     1172.877        1.345        0.347       97.865       25.455        0.068      335.047        5.423      868.684
03/11/2014  23:08:00       79.061       75.078      110.777       84.464       74.504       57.497     7134.245     5550.789     3305.933        2.007        0.800      109.029       47.065        0.186      335.060        5.443      868.672
03/11/2014  23:09:00      199.814      104.467       76.319       91.851       76.664       69.025     8436.529     5877.371     4764.470        3.787        0.954      225.475       53.879        0.057      335.061        5.443      868.684
03/11/2014  23:10:00      151.291       93.918       81.796      101.823       84.811       65.323    10367.975     7192.961     4267.066        3.011        1.091      178.071       54.451        0.094      335.031        5.393      868.691
03/11/2014  23:11:00       88.712       59.705       56.384       56.949       53.440       51.894     3243.133     2855.885     2692.980        1.170        0.440      106.932       41.170        0.148      334.946        5.253      868.693
03/11/2014  23:12:00      138.004       69.703       29.303       47.030       36.697       40.966     2211.840     1346.699     1678.178        1.500        0.262      154.608       11.049        0.005      334.917        5.205      868.680
03/11/2014  23:13:00      129.189       57.236        1.457       56.879       32.371       31.113     3235.221     1047.857      968.006        1.261        0.263      141.300       19.402        0.019      334.777        4.973      868.693
03/11/2014  23:14:00      103.383       53.482       23.422       67.186       53.843       39.755     4513.981     2899.076     1580.437        1.154        0.450      116.398       30.654        0.069      334.834        5.068      868.698
03/11/2014  23:15:00      137.368       81.236       38.692       63.819       46.375       50.946     4072.880     2150.669     2595.544        1.789        0.441      159.591       29.526        0.034      334.819        5.043      868.710
03/11/2014  23:16:00       92.171       19.077       26.874       73.106       57.334       43.493     5344.455     3287.229     1891.624        1.005        0.526       94.124       30.250        0.103      334.821        5.047      868.719
03/11/2014  23:17:00      125.188       85.800       34.009       65.318       39.553       41.543     4266.438     1564.456     1725.783        1.587        0.378      151.769       36.193        0.057      334.698        4.840      868.728
03/11/2014  23:18:00       71.122       21.747        5.009       64.402       42.227       29.664     4147.581     1783.133      879.933        0.618        0.341       74.372       26.558        0.128      334.685        4.820      868.743
03/11/2014  23:19:00      134.824       78.031       33.859       68.873       45.810       43.181     4743.449     2098.571     1864.588        1.706        0.435      155.776       36.548        0.055      334.632        4.730      868.760
03/11/2014  23:20:00      173.945       93.125       28.137       76.635       63.977       46.251     5872.865     4093.086     2139.118        2.591        0.605      197.304       35.154        0.032      334.847        5.087      868.739
03/11/2014  23:21:00      201.015      157.051       20.055      105.828       74.810       59.234    11199.519     5596.506     3508.697        4.289        1.015      255.092       37.608        0.022      335.024        5.381      868.718
03/11/2014  23:22:00      152.028      107.765       22.432       81.335       58.089       50.247     6615.311     3374.332     2524.729        2.387        0.626      186.349       28.636        0.024      334.972        5.297      868.718
03/11/2014  23:23:00      197.422      103.653       51.578       69.680       42.224       45.891     4855.290     1782.892     2105.965        3.056        0.437      222.978       37.880        0.029      334.906        5.185      868.715
03/11/2014  23:24:00      129.277       59.869       39.670       89.195       46.198       44.848     7955.690     2134.288     2011.317        1.698        0.605      142.467       37.513        0.069      334.861        5.110      868.694
03/11/2014  23:25:00      108.013       49.650       14.302       53.635       38.259       28.289     2876.665     1463.765      800.278        0.974        0.257      118.878       25.357        0.045      334.881        5.147      868.675
03/11/2014  23:26:00      140.769       73.677       20.116       44.653       43.152       32.616     1993.910     1862.073     1063.789        1.528        0.246      158.884       20.227        0.016      334.918        5.207      868.655
03/11/2014  23:27:00       99.975       70.858        2.790       41.882       38.985       25.786     1754.091     1519.825      664.902        0.948        0.197      122.539       18.452        0.023      334.810        5.028      868.651
03/11/2014  23:28:00      113.683       82.000       15.482       32.308       25.322       31.088     1043.784      641.189      966.459        1.127        0.133      140.170       16.697        0.014      334.798        5.007      868.644
03/11/2014  23:29:00      182.008      109.615       29.448      103.306       69.011       44.626    10672.161     4762.482     1991.469        3.171        0.871      212.467       25.351        0.014      334.900        5.174      868.638
03/11/2014  23:30:00      154.711       59.162       24.541      106.314       81.262       56.118    11302.695     6603.435     3149.239        2.454        1.053      165.637       48.830        0.087      334.857        5.103      868.632
03/11/2014  23:31:00      221.046      132.390       50.790       78.220       67.774       52.490     6118.328     4593.301     2755.187        4.121        0.673      257.660       42.550        0.027      334.892        5.161      868.658
03/11/2014  23:32:00      140.188       95.036       59.710       61.563       53.559       55.434     3790.019     2868.600     3072.928        2.099        0.487      169.365       33.285        0.039      334.840        5.077      868.683
03/11/2014  23:33:00      152.094       67.784       29.609       56.401       54.100       49.720     3181.069     2926.813     2472.057        1.859        0.429      166.515       30.073        0.033      334.811        5.030      868.704
03/11/2014  23:34:00       83.681       26.323       42.986       82.443       47.602       41.229     6796.927     2265.908     1699.818        1.015        0.538       87.723       33.117        0.143      334.755        4.937      868.707
03/11/2014  23:35:00      103.421       29.574       12.025       43.625       35.919       29.761     1903.182     1290.174      885.697        0.790        0.204      107.566       25.969        0.058      334.722        4.882      868.712
03/11/2014  23:36:00       90.679       41.540        6.123       30.696       24.407       22.967      942.231      595.718      527.485        0.603        0.103       99.741        6.747        0.005      334.642        4.749      868.706
03/11/2014  23:37:00      109.458       68.143       15.243       46.098       18.797       26.870     2125.022      353.318      721.990        1.003        0.160      128.936       28.344        0.048      334.706        4.854      868.693
03/11/2014  23:38:00      107.741       59.147       34.395       34.058       21.108       31.024     1159.974      445.528      962.504        0.943        0.128      122.909       22.790        0.034      334.759        4.943      868.673
03/11/2014  23:39:00       91.154       48.346       37.231       31.618       38.252       28.021      999.710     1463.200      785.202        0.764        0.162      103.181       19.197        0.035      334.697        4.841      868.667
03/11/2014  23:40:00       53.346       29.312       50.417       43.600       35.109       25.678     1900.924     1232.662      659.341        0.502        0.190       60.868       29.983        0.243      334.696        4.839      868.671
03/11/2014  23:41:00       55.336       68.916       74.986       41.122       34.476       32.040     1690.979     1188.622     1026.564        0.867        0.195       88.383       28.653        0.105      334.720        4.877      868.677
03/11/2014  23:42:00       83.725       35.485       40.912       45.307       43.859       30.628     2052.692     1923.574      938.098        0.743        0.246       90.934       18.024        0.039      334.712        4.866      868.684
03/11/2014  23:43:00       68.149       72.525       63.094       35.905       25.891       19.935     1289.180      670.346      397.386        0.812        0.118       99.520       15.342        0.024      334.714        4.868      868.686
03/11/2014  23:44:00       66.202       39.061       51.838       41.341       33.705       28.211     1709.081     1136.017      795.888        0.612        0.182       76.867       20.948        0.074      334.746        4.921      868.680
03/11/2014  23:45:00       45.240       32.566       50.129       42.375       29.942       27.240     1795.609      896.525      742.029        0.453        0.172       55.742       26.662        0.229      334.727        4.889      868.678
03/11/2014  23:46:00       41.815       26.684       52.471       37.170       46.106       28.657     1381.597     2125.778      821.206        0.477        0.216       49.604       35.046        0.499      334.764        4.951      868.669
03/11/2014  23:47:00       31.086       52.206       67.214       55.155       46.454       42.950     3042.100     2157.940     1844.692        0.763        0.352       60.761       44.688        0.541      334.742        4.914      868.677
03/11/2014  23:48:00       33.611       65.990       74.975       43.911       41.665       31.961     1928.184     1735.959     1021.501        0.789        0.234       74.057       29.762        0.162      334.799        5.009      868.680
03/11/2014  23:49:00       36.440       38.261       68.882       54.908       44.502       33.511     3014.925     1980.441     1122.961        0.683        0.306       52.837       32.552        0.380      334.830        5.061      868.670
03/11/2014  23:50:00       12.726       65.259       77.636       28.049       38.536       29.187      786.762     1485.041      851.864        0.679        0.156       66.488       23.992        0.130      334.742        4.917      868.672
03/11/2014  23:51:00       57.362       48.544       70.497       59.071       43.666       31.688     3489.344     1906.709     1004.114        0.851        0.320       75.146       38.631        0.264      334.722        4.881      868.685
03/11/2014  23:52:00       49.290       15.346       41.910       48.049       39.211       25.945     2308.751     1537.499      673.118        0.447        0.226       51.623       29.726        0.332      334.743        4.917      868.687
03/11/2014  23:53:00       17.523        8.523       41.794       27.995       25.409       29.091      783.724      645.599      846.301        0.220        0.114       19.485       19.485        1.000      334.714        4.869      868.673
03/11/2014  23:54:00       22.891       29.275       26.850       19.754       23.385       26.081      390.203      546.881      680.228        0.186        0.081       37.163       14.358        0.149      334.500        4.514      868.660
03/11/2014  23:55:00       83.603       15.240        2.375       29.926       23.525       24.115      895.562      553.427      581.518        0.463        0.102       84.981       20.366        0.057      334.575        4.636      868.651
03/11/2014  23:56:00       77.474       41.082       15.883       38.510       24.827       27.578     1483.005      616.402      760.533        0.540        0.143       87.692       13.190        0.023      334.512        4.534      868.659
03/11/2014  23:57:00       65.230       31.215       20.820       23.512       23.522       23.331      552.793      553.276      544.357        0.366        0.083       72.314       13.400        0.034      334.420        4.382      868.682
03/11/2014  23:58:00       42.670       38.797        3.516       15.113       14.256       10.587      228.392      203.224      112.088        0.194        0.027       57.671        6.519        0.013      334.249        4.097      868.694
03/11/2014  23:59:00       61.466       37.082       11.004       38.668       25.043       20.287     1495.239      627.151      411.566        0.390        0.127       71.786       14.722        0.042      334.315        4.207      868.683
